[[{"header":{"parameterUnit":"m.s-1","parameterCategory":1,"la1":30.6,"la2":29.2853,"lo1":-89.7004,"lo2":-87.6739,"dy":0.0162,"dx":0.0183,"nx":112,"ny":82,"refTime":"2025-07-08T12:00:00:Z","depth":0,"parameterNumber":2,"parameterNumberName":"U-component_of_WINDS"},"data":[0.0,0.0,0.0,0.0,0.0,0.0,0.0,0.0,0.0,0.0,0.0,0.0,0.0,0.0,0.0,0.0,0.0,0.0,0.0,0.0,0.0,0.0,0.0,0.0,0.0,0.0,0.0,0.0,0.0,0.0,0.0,0.0,0.0,0.0,0.0,0.0,0.0,0.0,0.0,0.0,0.0,0.0,0.0,0.0,0.0,0.0,0.0,0.0,0.0,0.0,0.0,0.0,0.0,0.0,0.0,0.0,0.0,0.0,0.0,0.0,0.0,0.0,0.0,0.0,0.0,0.0,0.0,0.0,0.0,0.0,0.0,0.0,0.0,0.0,0.0,0.0,0.0,0.0,0.0,0.0,0.0,0.0,0.0,0.0,0.0,0.0,0.0,0.0,0.0,0.0,0.0,-1.5444,-1.6992,-1.7902,-1.7902,-1.7339,-1.6227,-1.4409,0.0,0.0,0.0,0.0,0.0,0.0,0.0,0.0,0.0,0.0,0.0,0.0,0.0,0.0,0.0,0.0,0.0,0.0,0.0,0.0,0.0,0.0,0.0,0.0,0.0,0.0,0.0,0.0,0.0,0.0,0.0,0.0,0.0,0.0,0.0,0.0,0.0,0.0,0.0,0.0,0.0,0.0,0.0,0.0,0.0,0.0,0.0,0.0,0.0,0.0,0.0,0.0,0.0,0.0,0.0,0.0,0.0,0.0,0.0,0.0,0.0,0.0,0.0,0.0,0.0,0.0,0.0,0.0,0.0,0.0,0.0,0.0,0.0,0.0,0.0,0.0,0.0,0.0,0.0,0.0,0.0,0.0,0.0,0.0,0.0,0.0,0.0,0.0,0.0,0.0,0.0,0.0,0.0,0.0,0.0,0.0,0.0,0.0,0.0,0.0,0.0,0.0,0.0,0.0,-1.3877,-1.7142,-1.7739,-1.7902,-1.7902,-1.7339,-1.6227,-1.4409,0.0,0.0,0.0,0.0,0.0,0.0,0.0,0.0,0.0,0.0,0.0,0.0,0.0,0.0,0.0,0.0,0.0,0.0,0.0,0.0,0.0,0.0,0.0,0.0,0.0,0.0,0.0,0.0,0.0,0.0,0.0,0.0,0.0,0.0,0.0,0.0,0.0,0.0,0.0,0.0,0.0,0.0,0.0,0.0,0.0,0.0,0.0,0.0,0.0,0.0,0.0,0.0,0.0,0.0,0.0,0.0,0.0,0.0,0.0,0.0,0.0,0.0,0.0,0.0,0.0,0.0,0.0,0.0,0.0,0.0,0.0,0.0,0.0,0.0,0.0,0.0,0.0,0.0,0.0,0.0,0.0,0.0,0.0,0.0,0.0,0.0,0.0,0.0,0.0,0.0,0.0,0.0,0.0,0.0,0.0,0.0,0.0,0.0,0.0,0.0,0.0,0.0,0.0,-1.381,-1.4965,-1.7617,-1.7902,-1.7902,-1.7902,-1.7339,-1.6227,-1.4409,-1.2591,0.0,0.0,0.0,0.0,0.0,0.0,0.0,0.0,0.0,0.0,0.0,0.0,0.0,0.0,0.0,0.0,0.0,0.0,0.0,0.0,0.0,0.0,0.0,0.0,0.0,0.0,0.0,0.0,0.0,0.0,0.0,0.0,0.0,0.0,0.0,0.0,0.0,0.0,0.0,0.0,0.0,0.0,0.0,0.0,0.0,0.0,0.0,0.0,0.0,0.0,0.0,0.0,0.0,0.0,0.0,0.0,0.0,0.0,0.0,0.0,0.0,0.0,0.0,0.0,0.0,0.0,0.0,0.0,0.0,0.0,0.0,0.0,0.0,0.0,0.0,0.0,0.0,0.0,0.0,0.0,0.0,0.0,0.0,0.0,0.0,0.0,0.0,0.0,0.0,0.0,0.0,0.0,0.0,0.0,0.0,0.0,0.0,0.0,0.0,0.0,0.0,0.0,-1.567,-1.6367,-1.7753,-1.8024,-1.8052,-1.7916,-1.7217,-1.6078,-1.4409,-1.2333,0.0,0.0,0.0,0.0,0.0,0.0,0.0,0.0,0.0,0.0,0.0,0.0,0.0,0.0,0.0,0.0,0.0,0.0,0.0,0.0,0.0,0.0,0.0,0.0,0.0,0.0,0.0,0.0,0.0,0.0,0.0,0.0,0.0,0.0,0.0,0.0,0.0,0.0,0.0,0.0,0.0,0.0,0.0,0.0,0.0,0.0,0.0,0.0,0.0,0.0,0.0,0.0,0.0,0.0,0.0,0.0,0.0,0.0,0.0,0.0,0.0,0.0,0.0,0.0,0.0,0.0,0.0,0.0,0.0,0.0,0.0,0.0,0.0,0.0,0.0,0.0,0.0,0.0,0.0,0.0,0.0,0.0,0.0,0.0,0.0,0.0,0.0,0.0,0.0,0.0,0.0,0.0,0.0,0.0,0.0,0.0,0.0,0.0,0.0,0.0,0.0,0.0,-1.5996,-1.7753,-1.7889,-1.8391,-1.85,-1.7957,-1.6837,-1.5643,-1.4368,-1.1546,0.0,0.0,0.0,0.0,0.0,0.0,0.0,0.0,0.0,0.0,0.0,0.0,0.0,0.0,0.0,0.0,0.0,0.0,0.0,0.0,0.0,0.0,0.0,0.0,0.0,0.0,0.0,0.0,0.0,0.0,0.0,0.0,0.0,0.0,0.0,0.0,0.0,0.0,0.0,0.0,0.0,0.0,0.0,0.0,0.0,0.0,0.0,0.0,0.0,0.0,0.0,0.0,0.0,0.0,0.0,0.0,0.0,0.0,0.0,0.0,0.0,0.0,0.0,0.0,0.0,0.0,0.0,0.0,0.0,0.0,0.0,0.0,0.0,0.0,0.0,0.0,0.0,0.0,0.0,0.0,0.0,0.0,0.0,0.0,0.0,0.0,0.0,0.0,0.0,0.0,0.0,0.0,0.0,0.0,0.0,0.0,0.0,0.0,0.0,0.0,0.0,0.0,-1.5616,-1.7204,0.0,-1.8323,-1.8296,-1.8445,-1.7712,-1.639,-1.4422,0.0,0.0,0.0,0.0,0.0,0.0,0.0,0.0,0.0,0.0,0.0,0.0,0.0,0.0,0.0,0.0,0.0,0.0,0.0,0.0,0.0,0.0,0.0,0.0,0.0,0.0,0.0,0.0,0.0,0.0,0.0,0.0,0.0,0.0,0.0,0.0,0.0,0.0,0.0,0.0,0.0,0.0,0.0,0.0,0.0,0.0,0.0,0.0,0.0,0.0,0.0,0.0,0.0,0.0,0.0,0.0,0.0,0.0,0.0,0.0,0.0,0.0,0.0,0.0,0.0,0.0,0.0,0.0,0.0,0.0,0.0,0.0,0.0,0.0,0.0,0.0,0.0,0.0,0.0,0.0,0.0,0.0,0.0,0.0,0.0,0.0,0.0,0.0,0.0,0.0,0.0,0.0,0.0,0.0,0.0,0.0,0.0,0.0,0.0,0.0,0.0,0.0,-1.4029,-1.5698,-1.7217,0.0,-1.8418,-1.835,-1.8765,-1.8065,-1.668,-1.4436,0.0,0.0,0.0,0.0,0.0,0.0,0.0,0.0,0.0,0.0,0.0,0.0,0.0,0.0,0.0,0.0,0.0,0.0,0.0,0.0,0.0,0.0,0.0,0.0,0.0,0.0,0.0,0.0,0.0,0.0,0.0,0.0,0.0,0.0,0.0,0.0,0.0,0.0,0.0,0.0,0.0,0.0,0.0,0.0,0.0,0.0,0.0,0.0,0.0,0.0,0.0,0.0,0.0,0.0,0.0,0.0,0.0,0.0,0.0,0.0,0.0,0.0,0.0,0.0,0.0,0.0,0.0,0.0,0.0,0.0,0.0,0.0,0.0,0.0,0.0,0.0,0.0,0.0,0.0,0.0,0.0,0.0,0.0,0.0,0.0,0.0,0.0,0.0,0.0,0.0,0.0,0.0,0.0,0.0,0.0,0.0,0.0,0.0,0.0,0.0,0.0,0.0,-1.4137,-1.6422,-1.8133,-1.8752,-1.8793,-1.8793,-1.8806,-1.7712,-1.6227,0.0,0.0,0.0,0.0,0.0,0.0,0.0,0.0,0.0,0.0,0.0,0.0,0.0,0.0,0.0,0.0,0.0,0.0,0.0,0.0,0.0,0.0,0.0,0.0,0.0,0.0,0.0,0.0,0.0,0.0,0.0,0.0,0.0,0.0,0.0,0.0,0.0,0.0,0.0,0.0,0.0,0.0,0.0,0.0,0.0,0.0,0.0,0.0,0.0,0.0,0.0,0.0,0.0,0.0,0.0,0.0,0.0,0.0,0.0,0.0,0.0,0.0,0.0,0.0,0.0,0.0,0.0,0.0,0.0,0.0,0.0,0.0,0.0,0.0,0.0,0.0,0.0,0.0,0.0,0.0,0.0,0.0,0.0,0.0,0.0,0.0,0.0,0.0,0.0,0.0,0.0,0.0,0.0,0.0,0.0,0.0,0.0,0.0,0.0,0.0,0.0,0.0,0.0,-1.4137,-1.6422,-1.8133,-1.8752,-1.8418,-1.8337,-1.8765,-1.8079,-1.6693,-1.4436,0.0,0.0,0.0,0.0,0.0,0.0,0.0,0.0,0.0,0.0,0.0,0.0,0.0,0.0,0.0,0.0,0.0,0.0,0.0,0.0,0.0,0.0,0.0,0.0,0.0,0.0,0.0,0.0,0.0,0.0,0.0,0.0,0.0,0.0,0.0,0.0,0.0,0.0,0.0,0.0,0.0,0.0,0.0,0.0,0.0,0.0,0.0,0.0,0.0,0.0,0.0,0.0,0.0,0.0,0.0,0.0,0.0,0.0,0.0,0.0,0.0,0.0,0.0,0.0,0.0,0.0,0.0,0.0,0.0,0.0,0.0,0.0,0.0,0.0,0.0,0.0,0.0,0.0,0.0,0.0,0.0,0.0,0.0,0.0,0.0,0.0,0.0,0.0,0.0,0.0,0.0,0.0,0.0,0.0,0.0,0.0,0.0,0.0,0.0,0.0,0.0,0.0,-1.4137,-1.6422,-1.8133,-1.8752,-1.8255,-1.8133,-1.8765,-1.8242,-1.6979,-1.4805,0.0,0.0,0.0,0.0,0.0,0.0,0.0,0.0,0.0,0.0,0.0,0.0,0.0,0.0,0.0,0.0,0.0,0.0,0.0,0.0,0.0,0.0,0.0,0.0,0.0,0.0,0.0,0.0,0.0,0.0,0.0,0.0,0.0,0.0,0.0,0.0,0.0,0.0,0.0,0.0,0.0,0.0,0.0,0.0,0.0,0.0,0.0,0.0,0.0,0.0,0.0,0.0,0.0,0.0,0.0,0.0,0.0,0.0,0.0,0.0,0.0,0.0,0.0,0.0,0.0,0.0,0.0,0.0,0.0,0.0,0.0,0.0,0.0,0.0,0.0,0.0,0.0,0.0,0.0,0.0,0.0,0.0,0.0,0.0,0.0,0.0,0.0,0.0,0.0,0.0,0.0,0.0,0.0,0.0,0.0,0.0,0.0,0.0,0.0,0.0,0.0,0.0,-1.4137,-1.6422,-1.8106,-1.8649,-1.8228,-1.8119,-1.8684,-1.8201,-1.7155,-1.5389,0.0,0.0,0.0,0.0,0.0,0.0,0.0,0.0,0.0,0.0,0.0,0.0,0.0,0.0,0.0,0.0,0.0,0.0,0.0,0.0,0.0,0.0,0.0,0.0,0.0,0.0,0.0,0.0,0.0,0.0,0.0,0.0,0.0,0.0,0.0,0.0,0.0,0.0,0.0,0.0,0.0,0.0,0.0,0.0,0.0,0.0,0.0,0.0,0.0,0.0,0.0,0.0,0.0,0.0,0.0,0.0,0.0,0.0,0.0,0.0,-2.0504,0.0,0.0,0.0,0.0,0.0,0.0,0.0,0.0,0.0,0.0,0.0,0.0,0.0,0.0,0.0,0.0,0.0,0.0,0.0,0.0,0.0,0.0,0.0,0.0,0.0,0.0,0.0,0.0,0.0,0.0,0.0,0.0,0.0,0.0,0.0,0.0,0.0,0.0,0.0,0.0,0.0,-1.4137,-1.6422,-1.7957,-1.8079,-1.7984,-1.7957,-1.8079,-1.797,-1.7332,-1.5996,0.0,0.0,0.0,0.0,0.0,0.0,0.0,0.0,0.0,0.0,0.0,0.0,0.0,0.0,0.0,0.0,0.0,0.0,0.0,0.0,0.0,0.0,0.0,0.0,0.0,0.0,0.0,0.0,0.0,0.0,0.0,0.0,0.0,0.0,0.0,0.0,0.0,0.0,0.0,0.0,0.0,0.0,0.0,0.0,0.0,0.0,0.0,0.0,0.0,0.0,0.0,0.0,0.0,0.0,0.0,0.0,0.0,0.0,0.0,0.0,0.0,-2.278,0.0,0.0,0.0,0.0,0.0,0.0,0.0,0.0,0.0,0.0,0.0,0.0,0.0,0.0,0.0,0.0,0.0,0.0,0.0,0.0,0.0,0.0,0.0,0.0,0.0,0.0,0.0,0.0,0.0,0.0,0.0,0.0,0.0,0.0,0.0,0.0,0.0,0.0,0.0,0.0,-1.4588,-1.6843,-1.8215,-1.7929,-1.816,-1.8215,-1.7916,-1.7902,-1.7522,-1.6593,-1.567,0.0,0.0,0.0,0.0,0.0,0.0,0.0,0.0,0.0,0.0,0.0,0.0,0.0,0.0,0.0,0.0,0.0,0.0,0.0,0.0,0.0,0.0,0.0,0.0,0.0,0.0,0.0,0.0,0.0,0.0,0.0,0.0,0.0,0.0,0.0,0.0,0.0,0.0,0.0,0.0,0.0,0.0,0.0,0.0,0.0,0.0,0.0,0.0,0.0,0.0,0.0,0.0,0.0,0.0,-3.1005,-3.1551,-3.1043,-3.153,-3.2555,-2.8519,-2.7058,-2.7364,0.0,0.0,0.0,0.0,0.0,0.0,0.0,0.0,0.0,0.0,0.0,0.0,0.0,0.0,0.0,0.0,0.0,0.0,0.0,0.0,0.0,0.0,0.0,0.0,0.0,-2.2952,-2.2181,0.0,0.0,0.0,0.0,0.0,0.0,0.0,0.0,0.0,0.0,0.0,0.0,-1.54,-1.7466,-1.8636,-1.8255,-1.8568,-1.8595,-1.8092,-1.7957,-1.7698,-1.719,-1.6593,-1.5802,0.0,0.0,0.0,0.0,0.0,0.0,0.0,0.0,0.0,0.0,0.0,0.0,0.0,0.0,0.0,0.0,0.0,0.0,0.0,0.0,0.0,0.0,0.0,0.0,0.0,0.0,0.0,0.0,0.0,0.0,0.0,0.0,-1.5809,-1.7369,0.0,0.0,0.0,0.0,0.0,0.0,0.0,0.0,0.0,0.0,0.0,0.0,0.0,0.0,-2.9782,-3.206,-3.325,-3.3371,-3.4749,-3.5269,-3.503,-3.4965,-3.5121,-3.5424,-3.4325,0.0,-2.9225,-2.7646,0.0,0.0,0.0,0.0,0.0,0.0,0.0,0.0,0.0,0.0,0.0,0.0,0.0,0.0,0.0,0.0,0.0,0.0,0.0,0.0,0.0,0.0,-2.613,-2.5611,-2.5501,-2.5399,0.0,-2.1461,-1.8138,-1.6548,0.0,0.0,0.0,0.0,0.0,0.0,0.0,0.0,-1.678,-1.8057,-1.8962,-1.9415,-1.907,-1.8779,-1.8697,-1.8201,-1.7875,-1.7794,-1.7217,-1.681,-1.6647,-1.506,0.0,0.0,0.0,0.0,0.0,0.0,0.0,0.0,0.0,0.0,0.0,0.0,0.0,0.0,0.0,0.0,0.0,0.0,0.0,0.0,0.0,0.0,0.0,0.0,0.0,0.0,0.0,0.0,0.0,-1.5523,-1.8156,-1.8832,-1.9918,-1.9993,0.0,0.0,0.0,0.0,0.0,0.0,0.0,0.0,0.0,-2.9748,-3.0972,-3.2317,-3.3835,-3.5304,-3.6236,-3.665,-3.7267,-3.7713,-3.7946,-3.763,-3.7614,-3.7757,-3.679,-3.5277,-3.3284,-3.068,-2.8758,-2.7288,0.0,0.0,0.0,0.0,0.0,-2.5029,-2.6504,0.0,0.0,0.0,0.0,0.0,0.0,0.0,0.0,0.0,0.0,0.0,0.0,0.0,0.0,-2.7162,-2.7178,-2.7178,-2.7178,-2.5277,-2.2857,0.0,-1.9334,-1.8039,-1.5978,0.0,0.0,0.0,0.0,0.0,-1.7961,-1.9086,-1.9741,-1.97,-1.9741,-1.9497,-1.8839,-1.8554,-1.8255,-1.7916,-1.7658,-1.7522,-1.7522,-1.6417,-1.5398,0.0,0.0,0.0,0.0,0.0,0.0,0.0,0.0,0.0,0.0,0.0,0.0,0.0,0.0,0.0,0.0,0.0,0.0,0.0,0.0,0.0,0.0,0.0,0.0,0.0,0.0,0.0,0.0,-1.7993,-2.0345,-2.0529,-2.2198,-2.2591,0.0,0.0,0.0,0.0,0.0,0.0,-2.8592,-3.0144,-3.1662,-3.3197,-3.4542,-3.5852,-3.7163,-3.7978,-3.8584,-3.8963,-3.8963,-3.9185,-3.9556,-3.9166,-3.9057,-3.9146,-3.8036,-3.7299,-3.6622,-3.3346,-3.1602,-3.0812,-2.909,-2.8316,-2.8221,-2.8711,-2.8584,-2.8379,-2.9911,-3.0101,-2.9493,-2.8695,0.0,-2.7367,-2.4535,0.0,0.0,0.0,0.0,-2.5514,-2.6751,0.0,-2.8015,-2.8505,-2.8489,-2.8363,-2.8363,-2.7826,-2.6583,0.0,-2.2654,-2.1286,-1.9188,0.0,0.0,0.0,0.0,-1.8248,-1.9362,-2.0142,-2.0502,-2.0252,-2.0401,-2.0098,-1.9111,-1.888,-1.8527,-1.7943,-1.7902,-1.7902,-1.7902,-1.7481,-1.6836,-1.603,0.0,0.0,0.0,0.0,0.0,0.0,0.0,0.0,0.0,0.0,0.0,0.0,0.0,0.0,0.0,0.0,0.0,0.0,0.0,0.0,0.0,0.0,0.0,0.0,0.0,0.0,0.0,0.0,0.0,-2.3586,-2.626,0.0,0.0,0.0,0.0,-2.7057,-2.9696,-3.1714,-3.2576,-3.4076,-3.5611,-3.7167,-3.7978,-3.8732,-3.9526,-4.0342,-4.046,-3.9926,-3.9926,-3.969,-3.9219,-3.9209,-3.9199,-3.9162,-3.8541,-3.823,-3.7983,-3.5263,-3.3751,-3.3072,-3.2339,-3.1602,-3.0993,-3.1024,-3.1009,-3.0993,-3.1103,-3.1144,-3.1207,-3.1833,-3.1137,-2.9888,-2.9004,-2.7851,0.0,0.0,-2.8363,-2.9019,-2.9785,-3.003,-3.0062,-3.0093,-2.9564,-2.9051,-2.9051,-2.8537,-2.7604,0.0,-2.5262,-2.4299,-2.2707,0.0,-2.0555,-2.0495,-1.9863,-1.9886,-2.1282,-2.1117,-2.1093,-2.1631,-2.0971,-2.0274,-1.97,-1.9138,-1.8527,-1.7943,-1.7902,-1.7902,-1.7902,-1.7875,-1.7443,-1.6585,-1.5157,0.0,0.0,0.0,0.0,0.0,0.0,0.0,0.0,0.0,0.0,0.0,0.0,0.0,0.0,0.0,0.0,0.0,0.0,0.0,0.0,0.0,0.0,0.0,0.0,0.0,0.0,0.0,0.0,-2.666,-2.869,0.0,0.0,-2.8937,-3.0162,-3.0851,-3.2817,-3.4542,-3.5783,-3.7267,-3.8353,-3.8888,-3.9687,-4.0221,-4.048,-4.0774,-4.0799,-4.0573,-4.0573,-4.0476,-4.0279,-3.9893,-3.9532,-3.9179,-3.8974,-3.8451,-3.7751,-3.7138,-3.625,-3.5224,-3.4557,-3.4115,-3.3893,-3.3893,-3.3893,-3.383,-3.3356,-3.3198,-3.3103,-3.2497,-3.1643,-3.0796,-3.0519,-3.0109,-2.9777,-3.0038,-3.0267,-3.0503,-3.078,-3.0844,-3.0733,-3.0315,-3.0014,-2.969,-2.9209,-2.8909,-2.8593,-2.8088,-2.6714,-2.5198,-2.377,-2.2772,-2.1951,-2.137,-2.1048,-2.1139,-2.1886,-2.1685,-2.1558,-2.1779,-2.1377,-2.0843,-2.0261,-1.97,-1.9125,-1.8513,-1.8106,-1.7902,-1.7902,-1.7902,-1.7753,-1.7437,-1.6186,-1.4673,0.0,0.0,0.0,0.0,0.0,0.0,0.0,0.0,0.0,0.0,0.0,0.0,0.0,0.0,0.0,0.0,0.0,0.0,0.0,0.0,0.0,0.0,0.0,0.0,0.0,0.0,-2.7437,-2.9135,-3.1115,-3.1911,-3.0819,-3.2113,-3.3386,-3.4369,-3.5852,-3.7146,-3.818,-3.9422,-4.0095,-4.0095,-4.0636,-4.0912,-4.0912,-4.0912,-4.0799,-4.0597,-4.0597,-4.0385,-4.0003,-3.9603,-3.9129,-3.8634,-3.8634,-3.8201,-3.7539,-3.7886,-3.7527,-3.6738,-3.6263,-3.6105,-3.6074,-3.5837,-3.5742,-3.5631,-3.492,-3.4494,-3.4146,-3.3272,-3.2487,-3.1918,-3.1918,-3.1918,-3.1918,-3.1918,-3.1918,-3.1918,-3.1918,-3.1744,-3.146,-3.101,-3.0552,-3.0077,-2.958,-2.9272,-2.9098,-2.9098,-2.7827,-2.638,-2.5391,-2.4507,-2.3627,-2.2715,-2.2457,-2.2386,-2.2434,-2.2231,-2.2044,-2.1949,-2.1688,-2.1251,-2.0559,-2.0003,-1.9429,-1.8847,-1.8228,-1.7902,-1.7902,-1.7788,-1.7727,-1.7727,-1.6374,-1.491,-1.3361,0.0,0.0,0.0,0.0,0.0,0.0,0.0,0.0,0.0,0.0,0.0,0.0,0.0,0.0,0.0,0.0,0.0,0.0,0.0,0.0,0.0,0.0,0.0,-2.6435,-2.8483,-3.0227,-3.1063,-3.372,-3.4911,-3.3438,-3.5883,-3.7564,-3.7564,-3.8905,-3.9733,-3.9733,-4.0498,-4.0912,-4.0912,-4.0912,-4.0912,-4.0912,-4.0912,-4.0614,-4.0028,-4.0028,-3.943,-3.839,-3.8334,-3.8055,-3.7599,-3.7524,-3.7539,-3.7539,-3.7539,-3.751,-3.751,-3.751,-3.751,-3.7415,-3.6706,-3.6408,-3.6298,-3.5663,-3.4936,-3.432,-3.432,-3.3878,-3.3324,-3.3324,-3.3324,-3.3309,-3.3309,-3.3309,-3.3309,-3.3309,-3.2829,-3.2323,-3.2291,-3.1232,-3.0236,-3.0204,-2.9627,-2.9098,-2.9075,-2.8561,-2.7998,-2.7634,-2.6704,-2.5659,-2.4656,-2.4177,0.0,-2.3004,-2.2735,-2.2514,-2.2208,-2.1949,-2.1441,-2.0586,-2.0017,-1.9442,-1.8874,-1.8242,-1.7916,-1.7929,-1.7618,-1.7419,-1.7399,-1.574,-1.4174,-1.2764,0.0,0.0,0.0,0.0,0.0,0.0,0.0,0.0,0.0,0.0,0.0,0.0,0.0,0.0,0.0,0.0,0.0,0.0,0.0,0.0,0.0,0.0,-2.9476,-2.9129,-3.1057,-3.3159,-3.499,-3.6356,-3.72,-3.736,-3.8416,-3.914,-3.9225,-4.0078,-4.0584,-4.0584,-4.0791,-4.0912,-4.0912,-4.0912,-4.0912,-4.0912,-4.0912,-4.0823,-4.0645,-4.0645,-4.05,-4.0145,-3.9332,-3.9065,-3.9262,-3.8435,-3.8084,-3.8084,-3.8084,-3.7857,-3.751,-3.751,-3.751,-3.7478,-3.7259,-3.6864,-3.6361,-3.6172,-3.5679,-3.5094,-3.5094,-3.4604,-3.402,-3.402,-3.3688,-3.3309,-3.3309,-3.3309,-3.3309,-3.3309,-3.3166,-3.2882,-3.2418,-3.1611,-3.0796,-3.0315,-2.9627,-2.9006,-2.8716,-2.8513,-2.814,-2.7309,-2.6447,-2.5609,-2.4897,0.0,0.0,-2.3444,-2.3122,-2.27,-2.1991,-2.1688,-2.1428,-2.1169,-2.027,-1.9632,0.0,-1.8486,-1.8092,-1.8527,-1.8464,-1.8156,-1.7627,-1.6802,-1.5731,0.0,0.0,0.0,0.0,0.0,0.0,0.0,0.0,0.0,0.0,0.0,0.0,0.0,0.0,0.0,0.0,0.0,0.0,0.0,0.0,0.0,0.0,-3.0352,-3.2739,-3.295,-3.4144,-3.5547,-3.7151,-3.8238,-3.9029,-3.9504,-4.0023,-4.0343,-4.04,-4.0764,-4.0959,-4.0912,-4.0912,-4.0912,-4.0912,-4.0912,-4.0912,-4.0912,-4.0912,-4.0912,-4.0912,-4.0638,-4.0402,-4.0162,-3.9226,-3.8876,0.0,-3.8254,-3.7956,-3.7956,-3.7956,-3.7786,0.0,0.0,0.0,0.0,0.0,-3.7227,-3.6864,-3.6864,-3.6406,-3.5821,-3.5821,-3.5331,-3.4747,-3.4747,-3.4478,-3.4115,-3.3814,-3.3719,-3.3656,-3.3372,-3.3309,-3.3198,-3.2829,-3.2171,-3.1539,-3.1169,-3.0275,-2.9446,-2.9049,0.0,0.0,-2.7287,-2.6782,-2.626,-2.5629,-2.5379,-2.4974,0.0,-2.3835,-2.3311,-2.2442,-2.2107,-2.1817,-2.1437,-2.0559,0.0,0.0,0.0,-1.8749,-1.8908,-1.8935,0.0,0.0,0.0,0.0,0.0,0.0,0.0,0.0,-1.5094,-1.5317,0.0,0.0,0.0,0.0,0.0,0.0,0.0,0.0,0.0,0.0,0.0,0.0,0.0,0.0,0.0,0.0,-3.3055,-3.5497,-3.7042,-3.7341,-3.7639,-3.8286,-3.9515,-4.0342,-4.0451,-4.0894,-4.118,-4.114,-4.1117,-4.1047,-4.0942,0.0,0.0,0.0,0.0,-4.0912,-4.0912,-4.0912,-4.0912,-4.0894,-4.036,-3.9868,-3.9365,-3.8695,-3.8169,-3.7772,-3.7583,-3.7524,-3.7583,-3.7539,-3.751,-3.751,-3.751,-3.751,-3.751,-3.751,-3.751,0.0,0.0,0.0,0.0,-3.6519,-3.6074,-3.5505,-3.5505,-3.5458,-3.5236,-3.4494,-3.4288,-3.4146,-3.3467,-3.3309,-3.3309,-3.3309,-3.2797,-3.2291,-3.2291,-3.1248,-3.0154,-2.962,-2.871,-2.7871,-2.7401,-2.7325,-2.7117,-2.6535,-2.6147,0.0,-2.5042,-2.4704,-2.4174,-2.3266,0.0,0.0,-2.1572,-2.0952,-2.0586,-2.0495,-2.0044,-1.9633,-1.9277,-1.933,-1.9147,-1.8699,-1.8336,-1.8149,-1.8115,-1.8237,-1.835,-1.8434,-1.6943,-1.7015,0.0,0.0,0.0,0.0,0.0,0.0,0.0,0.0,0.0,0.0,0.0,0.0,0.0,0.0,0.0,-3.3424,-3.5356,-3.7095,-3.8638,-3.941,-3.9888,-4.0028,-4.018,-4.0596,-4.1279,-4.1276,-4.1232,-4.1335,-4.1186,-4.1099,-4.114,-4.1099,0.0,-4.1047,-4.1047,-4.1023,-4.0912,-4.0912,-4.0912,-4.0912,0.0,0.0,-4.0541,-3.9506,-3.9216,-3.9447,-3.8087,-3.7756,-3.8112,-3.7685,-3.751,-3.751,-3.751,-3.751,-3.751,-3.751,-3.751,-3.751,-3.751,-3.7415,-3.7304,-3.7304,-3.6801,-3.6203,-3.6203,-3.5837,0.0,-3.4494,-3.4288,-3.4146,-3.3467,-3.3309,-3.3309,-3.3309,-3.2797,-3.2291,-3.2291,-3.1602,-3.0647,-2.9373,-2.8956,-2.8393,-2.7129,-2.691,-2.6867,-2.6735,-2.6669,-2.6292,-2.5437,-2.526,-2.4787,-2.3712,-2.3541,-2.314,-2.2208,-2.1562,-2.1019,-2.0522,-2.041,-2.0296,-2.0236,-2.0695,-2.0423,-1.9267,-1.9158,-1.9032,-1.8816,-1.8835,-1.9302,-2.0121,-1.936,-1.9179,0.0,0.0,0.0,0.0,0.0,0.0,0.0,0.0,0.0,0.0,0.0,-2.8667,-2.9843,0.0,-3.4021,-3.5602,-3.7128,-3.855,-3.9743,-4.0256,-4.0502,-4.0502,-4.0771,-4.1117,-4.1569,-4.1475,-4.1408,-4.1403,-4.1307,-4.1244,-4.1209,-4.1146,-4.1093,-4.1093,-4.1093,-4.107,-4.1,-4.1,-4.1,-4.1,-4.0638,-4.0434,-4.041,-3.9584,-3.9348,-3.9542,-3.8701,-3.8327,-3.8266,-3.7727,-3.751,-3.751,-3.751,-3.751,-3.751,-3.751,-3.751,-3.751,-3.751,-3.751,-3.751,-3.751,-3.7243,-3.6959,-3.6959,-3.6706,-3.6295,-3.5568,-3.511,-3.4683,-3.3972,-3.3546,-3.3309,-3.3309,-3.304,-3.2813,-3.2813,-3.2234,-3.1373,-3.0032,-2.9521,-2.884,-2.7351,-2.7093,-2.7041,-2.6832,-2.6806,-2.6637,-2.6159,-2.5945,-2.5505,-2.4636,-2.4425,-2.3981,-2.3077,-2.2571,-2.2171,-2.1887,-2.186,-2.186,-2.186,-2.2144,-2.1982,-2.1308,-2.0888,-2.0588,-2.0451,-2.0013,-2.0213,-2.0983,-2.0718,-2.0586,0.0,0.0,0.0,0.0,0.0,0.0,0.0,0.0,-2.8017,-2.907,-3.0773,-3.2371,-3.3336,-3.5021,-3.6566,-3.7516,-3.8708,-3.9814,-4.0608,-4.0713,-4.0713,-4.0713,-4.1236,-4.1604,-4.1604,-4.1604,-4.156,-4.1448,-4.1426,-4.1363,-4.1277,-4.1198,-4.1233,-4.1389,-4.1389,-4.1435,-4.1544,-4.1544,-4.1544,-4.1497,-4.0903,-4.0552,-4.0374,-3.9828,-3.9481,-3.9348,-3.9109,-3.8739,-3.8266,-3.7727,-3.751,-3.751,-3.751,-3.751,-3.751,-3.751,-3.751,-3.751,-3.751,-3.751,-3.751,-3.751,-3.751,-3.751,-3.751,-3.751,-3.7368,-3.6598,-3.6026,-3.5394,-3.4525,-3.3893,-3.3467,-3.3324,-3.3309,-3.3309,-3.3309,-3.2892,-3.2147,-3.1042,-3.038,-2.9535,-2.797,-2.7656,-2.7406,-2.6873,-2.6806,-2.6806,-2.6806,-2.6566,-2.6191,-2.5635,-2.5372,-2.487,-2.3957,-2.3453,-2.3215,-2.3215,-2.3215,-2.3215,-2.3215,-2.3215,-2.3149,-2.307,-2.2294,-2.1907,-2.1954,-2.1145,-2.1043,-2.156,-2.156,-2.156,-2.1016,-2.1355,-2.2563,-2.5243,-2.6067,-2.7265,0.0,0.0,-3.2353,-3.4459,-3.509,-3.5722,-3.7198,-3.7672,-3.8339,-3.987,-4.0256,-4.0643,-4.1376,-4.1481,-4.1481,-4.1481,-4.1552,-4.1604,-4.1604,-4.1604,-4.1604,-4.1582,-4.1471,-4.1448,-4.156,-4.1448,-4.1695,-4.2416,-4.2434,-4.2672,-4.3128,-4.3128,-4.3079,-4.2955,-4.2881,-4.2469,-4.1756,-4.1214,-4.0585,-3.9851,-3.8832,-3.8362,-3.8266,-3.7727,-3.751,-3.751,-3.751,-3.751,-3.751,-3.751,-3.751,-3.751,-3.751,-3.751,-3.751,-3.751,-3.751,-3.751,-3.751,-3.751,-3.7368,-3.6598,-3.6345,-3.5966,-3.4636,-3.4225,-3.4036,-3.3435,-3.3309,-3.3309,-3.3309,-3.3245,-3.2872,-3.1789,-3.1523,-3.0886,-2.9118,-2.8505,-2.7961,-2.6945,-2.6806,-2.6806,-2.6806,-2.6779,-2.6604,-2.625,-2.6183,-2.5701,-2.4607,-2.3699,-2.3215,-2.3215,-2.3215,-2.3215,-2.3215,-2.3215,-2.3043,-2.2684,-2.2158,-2.1947,-2.2068,-2.1562,-2.1584,-2.2101,-2.2101,-2.2101,-2.5696,-2.6233,0.0,0.0,-3.0137,-3.1837,-3.3178,-3.4319,-3.546,-3.6865,-3.7512,-3.788,-3.8076,-3.8866,-3.955,0.0,-4.0551,-4.1253,-4.1569,-4.1604,-4.1446,-4.1007,-4.1341,-4.1604,-4.1604,-4.1604,-4.1604,-4.1604,-4.1976,-4.2239,-4.2284,-4.2573,-4.2894,-4.3226,-4.3243,-4.3353,-4.3572,-4.3572,-4.3565,-4.3475,-4.3444,-4.3263,-4.2892,-4.2132,-4.1324,-4.0476,-3.9655,-3.9102,-3.8767,-3.8197,-3.7786,-3.751,-3.751,-3.751,-3.751,-3.751,-3.751,-3.751,-3.751,-3.751,-3.751,-3.751,-3.751,-3.751,-3.751,-3.751,-3.7447,-3.7117,-3.6738,-3.625,-3.5651,-3.492,-3.4225,-3.3941,-3.3577,-3.3309,-3.3309,-3.3309,-3.3051,-3.2227,-3.206,-3.1477,-2.9662,-2.9012,-2.84,-2.731,-2.6937,-2.6806,-2.6806,-2.6806,-2.6753,-2.6606,-2.6418,-2.6023,-2.542,-2.4859,-2.445,-2.4272,-2.4245,-2.4245,-2.4245,-2.4245,-2.4039,-2.3594,-2.3142,-2.2769,-2.2548,-2.2092,-2.1981,-2.2197,-2.251,-2.2686,-2.8685,0.0,0.0,-3.1091,-3.3472,-3.549,-3.49,-3.6268,-3.7777,-3.8322,-3.888,-3.9108,-3.855,-3.9375,-4.0042,-3.9691,-4.0569,-4.1358,-4.1569,-4.1604,-4.1394,-4.0871,-4.1271,-4.1604,-4.1604,-4.1604,-4.1604,-4.1604,-4.2359,-4.2816,-4.2816,-4.3407,-4.385,-4.4078,-4.4095,-4.4159,-4.4345,-4.4345,-4.432,-4.4272,-4.4216,-4.4087,-4.3885,-4.2756,-4.1793,-4.0948,-4.0368,-3.9774,-3.9216,-3.8585,-3.8014,-3.751,-3.751,-3.751,-3.751,-3.751,-3.751,-3.751,-3.751,-3.751,-3.751,-3.751,-3.751,-3.751,-3.751,-3.751,-3.751,-3.751,-3.7117,-3.6674,-3.644,-3.5521,-3.4541,-3.4336,-3.3783,-3.3309,-3.3309,-3.3309,-3.3166,-3.2671,-3.2576,-3.2094,-3.0607,-2.9842,-2.9083,-2.8,-2.7325,-2.6937,-2.6806,-2.6806,-2.6806,-2.6806,-2.6418,-2.6123,-2.5921,-2.5564,-2.5257,-2.5005,-2.5005,-2.5005,-2.5005,-2.5005,-2.4835,-2.4494,-2.4018,-2.3637,-2.3315,-2.2825,-2.2631,-2.263,-2.3047,-2.33,0.0,0.0,-3.2043,-3.3364,-3.5492,-3.7366,-3.7835,-3.8638,-3.9231,-3.9249,-3.9266,-3.9284,-3.9266,-3.9284,-3.9585,-4.0344,-4.0502,-4.0783,-4.1499,-4.1604,-4.1604,-4.1569,-4.1587,-4.1604,0.0,-4.1604,-4.1604,-4.1604,-4.2359,-4.2816,-4.2816,-4.35,-4.4255,-4.5045,-4.5062,-4.5341,-4.5928,-4.5928,-4.5852,-4.5726,-4.5726,-4.5368,-4.461,-4.3088,-4.1957,-4.1146,-4.0618,-4.0011,-3.9358,-3.875,-3.81,-3.751,-3.751,-3.751,-3.751,-3.751,-3.751,-3.751,-3.751,-3.751,-3.751,-3.751,-3.751,-3.751,-3.751,-3.751,-3.751,-3.751,-3.7494,-3.7291,-3.6582,-3.59,-3.5173,-3.4462,-3.3783,-3.3309,-3.3309,-3.3309,-3.3293,-3.3277,-3.3277,-3.3056,-3.2329,-3.1299,-3.0207,-2.9098,-2.807,-2.7248,-2.6858,-2.6806,-2.6806,-2.6806,-2.6286,-2.5921,-2.5893,-2.537,-2.5005,-2.5005,-2.5005,-2.5005,-2.5005,-2.5005,-2.4977,-2.4977,-2.4523,-2.4305,-2.4343,-2.3879,-2.369,-2.3758,-2.377,-2.4013,0.0,0.0,-3.4875,-3.6613,-3.8446,-3.9809,-3.9725,-3.9905,-4.0116,-4.0116,-3.9252,-3.8357,-3.7848,-3.8164,-3.8602,-3.8866,-3.9817,-4.0766,-4.1499,-4.1604,-4.1411,-4.0941,-4.1306,0.0,0.0,0.0,0.0,-4.1604,-4.2798,-4.3535,-4.3535,-4.4746,-4.5547,-4.581,-4.5828,-4.5926,-4.6122,-4.6122,-4.6097,-4.6073,-4.6073,-4.5621,-4.481,-4.3755,-4.2658,-4.1543,-4.0654,-3.98,-3.8963,-3.8546,-3.8014,-3.751,-3.7714,-3.7655,-3.7539,-3.7714,-3.7655,-3.751,-3.751,-3.751,-3.751,-3.751,-3.751,-3.751,-3.751,-3.751,-3.751,-3.751,-3.751,-3.7447,-3.718,-3.6611,-3.59,-3.5189,-3.4478,-3.383,-3.3403,-3.3309,-3.3309,-3.3309,-3.3309,-3.3087,-3.2418,-3.1753,-3.07,-2.888,-2.7684,-2.6963,-2.6806,-2.6806,-2.6806,-2.6806,-2.6433,-2.6096,-2.5921,-2.555,-2.5257,-2.5005,-2.5005,-2.5005,-2.5005,-2.5005,-2.5039,-2.5125,-2.4978,-2.494,-2.5075,-2.4538,-2.4318,-2.432,-2.4277,-2.4362,-3.4339,-3.6074,-3.7305,-3.9114,-4.0477,-4.1295,-4.0954,-4.0695,-4.0256,-3.9431,-3.8199,-3.6882,-3.5583,-3.5741,-3.6426,-3.7532,-3.857,-3.9817,-4.1376,-4.1604,-4.1411,-4.0937,-4.1569,0.0,0.0,0.0,0.0,-4.1622,-4.3026,-4.3904,-4.3904,-4.5354,-4.6196,-4.6196,-4.6196,-4.6196,-4.6196,-4.6196,-4.6196,-4.6196,-4.6196,-4.5768,-4.4949,-4.4137,-4.3184,-4.2085,-4.0961,-3.9935,-3.9028,-3.8778,-3.8226,-3.7539,-3.7815,-3.7743,-3.7539,-3.7685,-3.7655,-3.751,-3.751,-3.751,-3.751,-3.751,-3.751,-3.751,-3.751,-3.751,-3.751,-3.751,-3.751,-3.751,-3.751,-3.6959,-3.6282,-3.5868,-3.4999,-3.4178,-3.3751,-3.3467,-3.3309,-3.3309,-3.3309,-3.3166,-3.2734,-3.2008,-3.088,-2.9185,-2.7892,-2.7041,-2.6849,-2.6806,-2.6806,-2.6806,-2.6406,-2.6096,-2.5921,-2.555,-2.5229,-2.5005,-2.5208,-2.5317,-2.5317,-2.5534,-2.5673,-2.5782,-2.5782,-2.5831,-2.594,-2.5602,-2.5347,-2.5186,-2.5129,-2.498,-3.6566,-3.797,-3.9293,-4.079,-4.1532,-4.1831,-4.1596,-4.0902,-3.9677,-3.7358,-3.6145,-3.4827,0.0,0.0,-3.3371,-3.6392,-3.7007,-3.8184,-4.1183,-4.1639,-4.1657,0.0,0.0,0.0,0.0,0.0,0.0,-4.178,0.0,-4.3921,-4.3957,-4.5372,-4.6196,-4.6196,-4.6196,-4.6196,-4.6196,-4.6196,-4.6196,-4.6196,-4.6196,-4.5828,-4.5133,-4.4273,-4.3518,-4.2747,-4.1505,-4.0449,-3.9501,-3.942,-3.8629,-3.7583,-3.7828,-3.7756,-3.7539,-3.7539,-3.7539,-3.751,-3.751,-3.751,-3.751,-3.751,-3.751,-3.751,-3.751,-3.751,-3.751,-3.751,-3.751,-3.751,-3.751,-3.6975,-3.644,-3.6408,-3.5394,-3.4383,-3.4304,-3.3799,-3.334,-3.3309,-3.3309,-3.3309,-3.3309,-3.2059,-3.0803,-3.008,-2.8729,-2.7576,-2.6936,-2.6835,-2.6806,-2.6806,-2.6272,-2.5921,-2.5893,-2.537,-2.5018,-2.5046,-2.5575,-2.59,-2.5928,-2.6511,-2.6806,-2.6847,-2.6847,-2.6902,-2.7003,-2.6958,-2.6725,-2.6289,-2.6255,-2.5943,-3.721,-3.9066,-4.0755,-4.1754,-4.1961,-4.169,-4.095,-3.929,-3.7411,-3.5655,-3.3301,-3.1194,0.0,0.0,0.0,-3.497,-3.7198,0.0,-4.1341,-4.2131,0.0,-4.25,0.0,-4.3535,-4.3325,-4.35,0.0,0.0,-4.3676,-4.415,-4.4764,-4.5688,-4.6196,-4.6196,-4.6196,-4.6196,-4.6196,-4.6196,-4.6196,-4.6196,-4.6196,-4.6109,-4.5863,-4.4518,-4.364,-4.3093,-4.1419,-4.0383,-3.9834,-3.9272,-3.8723,-3.8254,-3.8483,-3.8258,-3.7844,-3.8078,-3.8004,-3.7756,-3.7553,-3.751,-3.751,-3.751,-3.751,-3.751,-3.751,-3.751,-3.751,-3.751,-3.751,-3.751,-3.751,-3.7368,-3.7069,-3.6519,-3.6124,-3.5584,-3.4525,-3.4162,-3.3893,-3.3403,-3.3309,-3.3309,-3.3309,-3.2552,-3.168,-3.0841,-2.9939,-2.8878,-2.7644,-2.7084,-2.6806,-2.6806,-2.6433,-2.6123,-2.5921,-2.5592,-2.5477,-2.5672,-2.5805,-2.609,-2.6565,-2.6711,-2.6996,-2.7474,-2.7488,-2.771,-2.8163,-2.7761,-2.7499,-2.7377,-2.6973,-2.6688,-3.912,-4.065,-4.1855,-4.2221,-4.1855,-4.0986,-3.9332,-3.7429,-3.5268,-3.2669,-3.0492,0.0,0.0,0.0,0.0,0.0,0.0,0.0,-4.0797,-4.178,-4.2412,0.0,-4.3447,0.0,-4.3904,-4.422,-4.4431,0.0,-4.4431,-4.4624,-4.508,-4.5793,-4.6196,-4.6196,-4.6196,-4.6196,-4.6196,-4.6196,-4.6196,-4.6196,-4.6196,-4.6196,-4.6144,-4.4606,-4.3769,-4.345,0.0,-4.057,-4.0228,-3.9594,-3.9092,-3.8679,-3.8772,-3.8528,-3.8103,-3.8177,-3.8075,-3.7857,-3.7583,-3.751,-3.751,-3.751,-3.751,-3.751,-3.751,-3.751,-3.751,-3.751,-3.751,-3.751,-3.751,-3.751,-3.7415,-3.6975,-3.6658,-3.6093,-3.5015,-3.4525,-3.4099,-3.3435,-3.3309,-3.3309,-3.3309,-3.2804,-3.222,-3.1485,-3.0646,-2.9707,-2.8678,-2.7766,-2.7316,-2.7605,-2.7102,-2.6731,-2.6694,-2.6425,-2.629,-2.628,-2.6538,-2.6837,-2.7172,-2.7461,-2.7759,-2.8085,-2.8085,-2.8261,-2.8587,-2.8281,-2.802,-2.7776,-2.7477,-2.7242,-4.1233,-4.2075,-4.253,-4.2348,-4.1466,-3.9964,-3.7474,-3.5515,-3.3161,-2.9369,0.0,-2.6806,-2.5366,0.0,-2.8579,-3.1721,0.0,-3.6794,-4.0046,-4.113,-4.1938,-4.2851,-4.3605,-4.4097,-4.4202,-4.4834,-4.5256,-4.5256,-4.5256,-4.5256,-4.5256,-4.5846,-4.6196,-4.6196,-4.6196,-4.6196,-4.6196,-4.6196,-4.6196,-4.6196,-4.6196,-4.6196,-4.6144,-4.4606,-4.3904,-4.3775,0.0,0.0,-4.0689,-4.0246,-3.9653,-3.9043,-3.9028,-3.8777,-3.842,-3.8201,-3.8042,-3.7931,-3.7642,-3.7539,-3.751,-3.751,-3.751,-3.751,-3.751,-3.751,-3.751,-3.751,-3.751,-3.751,-3.751,-3.751,-3.751,-3.751,-3.7006,-3.6358,-3.5568,-3.4747,-3.3988,-3.3419,-3.3309,-3.3309,-3.3309,-3.2942,-3.2547,-3.2061,-3.1212,-3.043,-2.9886,-2.8665,-2.8071,-2.8651,-2.7978,-2.7555,-2.7678,-2.7485,-2.7244,-2.6932,-2.742,-2.7746,-2.7827,-2.8315,-2.8587,-2.8587,-2.8587,-2.8587,-2.8587,-2.8587,-2.836,-2.7921,-2.7921,-2.7643,-4.0999,-4.1761,-4.2348,-4.2308,-4.104,-3.9193,-3.6854,-3.3988,0.0,0.0,0.0,-2.4607,-2.3668,-2.53,0.0,-3.0896,0.0,0.0,0.0,0.0,-4.2131,0.0,0.0,0.0,0.0,0.0,0.0,0.0,0.0,0.0,-4.6003,-4.6126,-4.6196,-4.6196,-4.6196,-4.6196,-4.6196,-4.6196,-4.6196,-4.6196,-4.6196,-4.6196,-4.6144,-4.4606,-4.3904,-4.3816,0.0,0.0,-4.1408,-4.0977,-4.0417,-3.9834,-4.0053,-3.9542,-3.8777,-3.9055,-3.8799,-3.8278,-3.7931,-3.7685,-3.751,-3.751,-3.751,-3.751,-3.751,-3.751,-3.751,-3.751,-3.751,-3.751,-3.751,-3.751,-3.751,-3.751,-3.7415,-3.6943,-3.5663,-3.4383,-3.3435,-3.3324,-3.3309,-3.3309,-3.3309,-3.324,-3.3011,-3.2547,-3.2329,-3.1921,-3.1114,-2.9548,-2.8565,-2.8694,-2.8551,-2.8254,-2.7749,-2.7661,-2.7603,-2.7546,-2.7651,-2.7922,-2.841,-2.8532,-2.8587,-2.8587,-2.8587,-2.8587,-2.8587,-2.8587,-2.8554,-2.8457,-2.8457,-2.8425,-4.0948,-4.1763,-4.2221,-4.191,-4.0426,-3.8095,-3.457,0.0,0.0,0.0,0.0,-2.3558,-2.3177,0.0,0.0,0.0,0.0,0.0,0.0,0.0,0.0,0.0,0.0,0.0,0.0,0.0,0.0,0.0,0.0,0.0,-4.6196,-4.6196,-4.6196,-4.6196,-4.6196,-4.6196,-4.6196,-4.6196,-4.6196,-4.6196,-4.6196,-4.6003,-4.5582,-4.4431,-4.3693,-4.3272,-4.2096,0.0,-4.156,-4.118,-4.0819,-4.0514,-4.0424,-4.0078,-3.962,-3.9463,-3.9189,-3.8843,-3.8331,-3.8078,-3.7934,-3.7772,-3.7596,-3.751,-3.751,-3.751,-3.751,-3.751,-3.751,-3.751,-3.751,-3.751,-3.751,-3.751,-3.7196,-3.6658,-3.5616,-3.4557,-3.3719,-3.3372,-3.3309,-3.3309,-3.3309,-3.3309,-3.3145,-3.2683,-3.2394,-3.202,-3.1394,-3.0367,-2.9697,-2.9697,-2.9363,-2.9102,-2.896,-2.8794,-2.8616,-2.8437,-2.8261,-2.8302,-2.8587,-2.8587,-2.8587,-2.8587,-2.8587,-2.8587,-2.8587,-2.8587,-2.8587,-2.8587,-2.8587,-2.8587,-4.0863,-4.1678,-4.1917,-4.145,-3.9788,-3.705,-3.2533,-3.0019,0.0,0.0,-2.3107,-2.3107,-2.3107,0.0,0.0,0.0,0.0,0.0,0.0,0.0,0.0,0.0,0.0,0.0,0.0,0.0,0.0,0.0,0.0,0.0,0.0,-4.6196,-4.6196,-4.6196,-4.6196,-4.6196,-4.6196,-4.6196,-4.6196,-4.6196,-4.6039,-4.5653,-4.5062,-4.4097,-4.336,-4.2763,-4.1955,0.0,0.0,-4.1272,-4.1071,-4.0977,-4.0731,-4.0546,-4.0351,-3.9927,-3.9645,-3.9463,-3.8925,-3.8639,-3.8472,-3.8214,-3.7857,-3.7583,-3.751,-3.751,-3.751,-3.751,-3.751,-3.751,-3.751,-3.751,-3.751,-3.751,-3.6943,-3.625,-3.5726,-3.492,-3.413,-3.3625,-3.3403,-3.3309,-3.3309,-3.3309,-3.3171,-3.2807,-3.2437,-3.1992,-3.1509,-3.1102,-3.0807,-3.0612,-3.0132,-2.9883,-3.0068,-2.9865,-2.954,-2.9226,-2.8876,-2.8716,-2.8716,-2.8651,-2.8587,-2.8587,-2.8587,-2.8587,-2.8587,-2.8587,-2.8587,-2.8587,-2.8587,-2.8587,-4.0563,-4.1165,-4.1199,-4.1129,-3.9245,-3.636,-3.2406,0.0,0.0,-2.3756,-2.3107,-2.3107,-2.3107,-2.323,0.0,0.0,0.0,0.0,0.0,0.0,0.0,0.0,0.0,0.0,0.0,0.0,0.0,0.0,0.0,0.0,0.0,-4.6196,-4.6196,-4.6196,-4.6196,-4.6196,-4.6196,-4.6196,-4.6196,-4.6196,-4.5536,-4.5168,-4.5045,-4.357,-4.2868,-4.2763,0.0,0.0,0.0,-4.156,-4.134,-4.1024,-4.1363,-4.1053,-4.0424,-4.0731,-4.0466,-3.9927,-3.9876,-3.942,-3.8843,-3.8799,-3.8379,-3.7815,-3.7583,-3.751,-3.751,-3.751,-3.751,-3.751,-3.751,-3.751,-3.751,-3.751,-3.6943,-3.6377,-3.6314,-3.5252,-3.4273,-3.4209,-3.3719,-3.3309,-3.3309,-3.3309,-3.3282,-3.324,-3.3187,-3.285,-3.1964,-3.1794,-3.148,-3.0687,-3.0554,-3.0404,-3.0111,-3.008,-2.9927,-2.9571,-2.9226,-2.9035,-2.9035,-2.8748,-2.8587,-2.8587,-2.8587,-2.8587,-2.8587,-2.8587,-2.8587,-2.8587,-2.8587,-2.8587,-3.8344,-3.9507,-3.9969,-3.9767,-3.771,-3.4852,-3.154,0.0,-2.6297,-2.3633,-2.3107,-2.3107,-2.3107,-2.3107,-2.3651,0.0,0.0,0.0,0.0,0.0,0.0,0.0,0.0,0.0,0.0,0.0,0.0,0.0,0.0,0.0,0.0,-4.6196,-4.6196,-4.6196,-4.6196,-4.6196,-4.6196,-4.5758,-4.5554,-4.5536,-4.4746,-4.415,-4.3693,-4.3079,-4.2552,-4.2061,0.0,0.0,0.0,-4.1604,-4.1515,-4.1386,-4.1538,-4.1408,-4.11,-4.1047,-4.0819,-4.0563,-4.0326,-3.9919,-3.947,-3.9262,-3.8756,-3.8148,-3.7815,-3.7727,-3.7714,-3.7569,-3.751,-3.751,-3.751,-3.751,-3.751,-3.751,-3.7275,-3.6943,-3.6487,-3.5647,-3.4826,-3.4383,-3.3751,-3.3309,-3.3309,-3.3309,-3.3309,-3.3309,-3.3065,-3.2738,-3.2382,-3.1851,-3.1423,-3.1073,-3.0777,-3.0552,-3.0401,-3.0233,-3.005,-2.9927,-2.9571,-2.932,-2.9099,-2.8972,-2.8812,-2.8587,-2.8587,-2.8587,-2.8587,-2.8587,-2.8587,-2.8587,-2.8587,-2.8587,-3.6291,-3.7657,-3.8307,-3.8088,-3.6181,-3.3565,0.0,0.0,-2.5932,-2.3581,-2.3107,-2.3107,-2.3107,-2.3107,-2.3353,0.0,0.0,0.0,0.0,0.0,0.0,0.0,0.0,0.0,0.0,0.0,0.0,0.0,0.0,0.0,0.0,-4.6196,-4.6196,-4.6196,-4.6196,-4.6091,-4.5881,-4.5361,-4.4975,-4.4746,-4.3939,-4.3307,-4.2775,-4.2552,-4.2148,-4.1604,0.0,0.0,0.0,-4.1604,-4.1604,-4.1604,-4.1604,-4.1604,-4.156,-4.1295,-4.1163,-4.114,-4.0849,-4.0434,-4.002,-3.9774,-3.9162,-3.846,-3.8132,-3.7931,-3.7727,-3.7553,-3.751,-3.751,-3.751,-3.751,-3.751,-3.751,-3.751,-3.7368,-3.6848,-3.6026,-3.5236,-3.4715,-3.3909,-3.3309,-3.3309,-3.3309,-3.3309,-3.3309,-3.3011,-3.2765,-3.2629,-3.2076,-3.1638,-3.1495,-3.1175,-3.0896,-3.0628,-3.0371,-3.0264,-3.0264,-2.9927,-2.9602,-2.9257,-2.9162,-2.894,-2.8619,-2.8587,-2.8587,-2.8587,-2.8587,-2.8587,-2.8587,-2.8587,-2.8587,-3.486,-3.5828,-3.6145,-3.6201,-3.4871,-3.2721,0.0,-2.7719,-2.5932,-2.3581,-2.3107,-2.3107,-2.3107,-2.3107,-2.3353,-2.4168,0.0,0.0,0.0,0.0,0.0,0.0,0.0,0.0,0.0,0.0,0.0,0.0,0.0,0.0,0.0,0.0,-4.6196,-4.6196,-4.6196,-4.5846,-4.5115,-4.5098,-4.4694,-4.3904,-4.3167,-4.2816,-4.2758,-4.199,-4.1604,0.0,0.0,0.0,0.0,-4.1604,-4.1604,-4.1604,-4.1604,-4.1604,-4.1604,-4.1604,-4.1604,-4.1604,-4.1582,-4.1053,-4.04,-4.0375,-3.9671,-3.875,-3.8476,-3.7963,-3.751,-3.751,-3.751,-3.751,-3.751,-3.751,-3.751,-3.751,-3.751,-3.751,-3.7494,-3.6374,-3.5394,-3.5379,-3.4257,-3.3309,-3.3309,-3.3309,-3.3309,-3.3309,-3.3309,-3.3118,-3.2656,-3.2586,-3.241,-3.1921,-3.1908,-3.1537,-3.0657,-3.0598,-3.0598,-3.0598,-3.028,-2.9927,-2.9602,-2.9289,-2.894,-2.8619,-2.8587,-2.8587,-2.8587,-2.8587,-2.8587,-2.8587,-2.8587,-2.8587,-3.0734,-3.1667,-3.2077,-3.2094,-3.0815,-2.9141,-2.7683,-2.6139,-2.466,-2.337,-2.3107,-2.3107,-2.3107,-2.3107,-2.3704,-2.5577,-2.5875,0.0,0.0,0.0,0.0,0.0,0.0,0.0,0.0,0.0,0.0,0.0,0.0,0.0,0.0,0.0,-4.5466,-4.5466,-4.5466,-4.508,-4.429,-4.3781,-4.3412,-4.3149,-4.2359,-4.199,-4.1973,-4.1727,0.0,0.0,0.0,0.0,0.0,-4.1604,-4.1604,-4.1604,-4.1604,-4.1604,-4.1604,-4.1604,-4.1604,-4.1604,-4.1604,-4.1255,-4.0819,-4.0819,-4.0269,-3.9542,-3.9189,-3.8467,-3.7743,-3.7553,-3.751,-3.751,-3.751,-3.751,-3.751,-3.751,-3.751,-3.751,-3.751,-3.6374,-3.5394,-3.5394,-3.4257,-3.3309,-3.3309,-3.3309,-3.3309,-3.3309,-3.3309,-3.324,-3.3091,-3.2792,-3.2532,-3.2394,-3.2089,-3.1695,-3.1131,-3.1073,-3.0925,-3.0612,-3.0492,-3.028,-2.9958,-2.9602,-2.9289,-2.894,-2.8716,-2.8587,-2.8587,-2.8587,-2.8587,-2.8587,-2.8587,-2.8587,0.0,-2.8724,-2.9503,-2.9429,-2.8388,-2.7158,-2.6401,-2.5231,-2.4062,-2.3265,-2.3144,-2.3168,-2.3119,-2.3144,-2.3643,-2.505,-2.5542,0.0,0.0,0.0,0.0,0.0,0.0,0.0,0.0,0.0,0.0,0.0,0.0,0.0,0.0,0.0,-4.4518,-4.4237,-4.4501,-4.4273,-4.35,-4.3044,-4.2658,-4.2342,-4.185,-4.1604,-4.1604,-4.1604,0.0,0.0,0.0,0.0,0.0,-4.1604,-4.1604,-4.1604,-4.1604,-4.1604,-4.1604,-4.1604,-4.1604,-4.1604,-4.1604,-4.134,-4.1001,-4.1001,-4.0538,-3.9927,-3.9551,-3.8723,-3.7857,-3.7714,-3.7583,-3.751,-3.751,-3.751,-3.751,-3.751,-3.751,-3.751,-3.751,-3.6374,-3.5394,-3.5394,-3.4257,-3.3309,-3.3309,-3.3309,-3.3309,-3.3309,-3.3309,-3.3309,-3.3309,-3.3038,-3.2861,-3.2861,-3.2602,-3.2259,-3.1838,-3.1638,-3.1336,-3.0896,-3.0866,-3.0582,-2.9927,-2.971,-2.9383,-2.8908,-2.8716,-2.8587,-2.8587,-2.8587,-2.8587,-2.8587,-2.8587,-2.8587,0.0,-2.6604,-2.7838,-2.766,-2.6992,-2.6207,-2.5446,-2.4645,0.0,-2.3172,-2.3129,-2.323,-2.3267,-2.3299,-2.3383,-2.3578,-2.4246,0.0,0.0,0.0,0.0,0.0,0.0,0.0,0.0,0.0,0.0,0.0,0.0,0.0,0.0,0.0,0.0,-4.2833,-4.3412,-4.3412,-4.2728,-4.2705,-4.2342,-4.1604,-4.1604,-4.1604,-4.1604,-4.1604,0.0,0.0,0.0,0.0,0.0,-4.1604,-4.1604,-4.1604,-4.1604,-4.1604,-4.1604,-4.1604,-4.1604,-4.1604,-4.1604,-4.1363,-4.1047,-4.1047,-4.0611,-4.0011,-3.9698,-3.8843,-3.7927,-3.7927,-3.7743,-3.751,-3.751,-3.751,-3.751,-3.751,-3.751,-3.751,-3.751,-3.6374,-3.5394,-3.5394,-3.4257,-3.3309,-3.3309,-3.3309,-3.3309,-3.3309,-3.3309,-3.3309,-3.3309,-3.3309,-3.3309,-3.3309,-3.3309,-3.3118,-3.2683,-3.2201,-3.1781,-3.1365,-3.1336,-3.0822,-2.9727,-2.9665,-2.932,-2.8651,-2.8619,-2.8587,-2.8587,-2.8587,-2.8587,-2.8587,-2.8587,-2.8587,-2.1267,0.0,-2.284,-2.2891,-2.266,-2.2382,0.0,-2.1927,-2.1864,-2.2195,-2.2329,-2.2941,-2.4746,-2.4182,-2.4622,-2.8166,0.0,0.0,0.0,0.0,0.0,0.0,0.0,0.0,0.0,0.0,0.0,0.0,0.0,0.0,0.0,0.0,0.0,-4.2816,-4.2377,-4.2061,-4.1885,-4.1885,-4.1797,-4.1604,-4.1604,-4.1604,-4.1604,-4.1604,0.0,0.0,0.0,0.0,-4.1604,-4.1604,-4.1604,-4.1604,-4.1604,-4.1604,-4.1604,-4.1604,-4.1604,-4.1604,-4.1604,-4.1538,-4.1453,-4.1453,-4.114,-4.0748,-4.0683,-3.9586,-3.8351,-3.8351,-3.7943,-3.751,-3.751,-3.751,-3.751,-3.751,-3.751,-3.751,-3.751,-3.6374,-3.5394,-3.5394,-3.4257,-3.3309,-3.3309,-3.3309,-3.3309,-3.3309,-3.3309,-3.3309,-3.3309,-3.3309,-3.3309,-3.3309,-3.3309,-3.324,-3.3145,-3.2711,-3.2228,-3.1794,-3.1766,-3.1393,-3.0539,-3.0267,-2.9777,-2.9004,-2.8716,-2.8587,-2.8587,-2.8587,-2.8587,-2.8587,-2.8587,-2.8587,-1.9632,-2.0966,-2.2358,-2.2427,-2.2642,-2.2822,-2.2712,-2.2411,-2.2225,-2.2535,0.0,0.0,0.0,0.0,0.0,0.0,0.0,0.0,0.0,0.0,0.0,0.0,0.0,0.0,0.0,0.0,0.0,0.0,0.0,0.0,0.0,0.0,0.0,0.0,-4.1832,-4.1604,-4.1604,-4.1604,-4.1604,-4.1604,-4.1604,-4.1604,-4.1604,-4.1604,0.0,0.0,0.0,0.0,-4.1604,-4.1604,-4.1604,-4.1604,-4.1604,-4.1604,-4.1604,-4.1604,-4.1604,-4.1604,-4.1604,-4.1604,-4.1604,-4.1604,-4.1453,-4.1272,-4.1272,-4.0431,-3.9361,-3.8843,-3.8294,-3.7815,-3.7553,-3.751,-3.751,-3.751,-3.751,-3.751,-3.751,-3.6374,-3.5394,-3.5394,-3.4257,-3.3309,-3.3309,-3.3309,-3.3309,-3.3309,-3.3309,-3.3309,-3.3309,-3.3309,-3.3309,-3.3309,-3.3309,-3.3309,-3.3309,-3.3065,-3.2726,-3.2256,-3.216,-3.1779,-3.1028,-3.045,-2.9763,-2.8876,-2.8683,-2.8587,-2.8587,-2.8587,-2.8587,-2.8587,-2.8587,-2.8587,-1.936,-2.1595,-2.3705,-2.3371,-2.3912,-2.4498,-2.424,0.0,0.0,0.0,0.0,0.0,0.0,-2.5386,0.0,0.0,0.0,0.0,0.0,0.0,0.0,0.0,0.0,0.0,0.0,0.0,0.0,0.0,0.0,0.0,0.0,0.0,0.0,0.0,-4.1604,-4.1604,-4.1604,-4.1604,-4.1604,-4.1604,-4.1604,-4.1604,-4.1604,-4.1604,0.0,0.0,0.0,0.0,-4.1604,-4.1604,-4.1604,-4.1604,-4.1604,-4.1604,-4.1604,-4.1604,-4.1604,-4.1604,-4.1604,-4.1604,-4.1604,-4.1604,-4.1604,-4.1604,-4.1604,-4.1146,-4.0407,-3.9361,-3.8707,-3.821,-3.7685,-3.7539,-3.751,-3.751,-3.751,-3.751,-3.751,-3.6453,-3.5521,-3.541,-3.4352,-3.3419,-3.3324,-3.3309,-3.3309,-3.3309,-3.3309,-3.3309,-3.3309,-3.3309,-3.3309,-3.3309,-3.3309,-3.3309,-3.3309,-3.3309,-3.3118,-3.2738,-3.2617,-3.2117,-3.1189,-3.0375,-2.9515,-2.8619,-2.8587,-2.8587,-2.8587,-2.8587,-2.8587,-2.8587,-2.8587,-2.8587,-2.0762,-2.2437,-2.3324,-2.1332,-2.1947,-2.2811,-2.2016,-2.1726,0.0,0.0,0.0,0.0,0.0,0.0,0.0,0.0,0.0,0.0,0.0,0.0,0.0,0.0,0.0,0.0,0.0,0.0,0.0,0.0,0.0,0.0,0.0,0.0,0.0,-4.1604,-4.1604,-4.1604,-4.1604,-4.1604,-4.1604,-4.1604,-4.1604,-4.1604,-4.1604,-4.1604,-4.1604,0.0,0.0,-4.1604,-4.1604,-4.1604,-4.1604,-4.1604,-4.1604,-4.1604,-4.1604,-4.1604,-4.1604,-4.1604,-4.1604,-4.1604,-4.1604,-4.1604,-4.1604,-4.1604,-4.1604,-4.1209,-4.0642,-4.0011,-3.9166,-3.8379,-3.7943,-3.7685,-3.751,-3.751,-3.751,-3.751,-3.751,-3.6848,-3.609,-3.5505,-3.4715,-3.3972,-3.3403,-3.3309,-3.3309,-3.3309,-3.3309,-3.3309,-3.3309,-3.3309,-3.3309,-3.3309,-3.3309,-3.3309,-3.3309,-3.3309,-3.3282,-3.3187,-3.316,-3.2504,-3.1013,-3.0074,-2.9282,-2.8619,-2.8587,-2.8587,-2.8587,-2.8587,-2.8587,-2.8587,-2.8587,-2.8587,-1.934,-2.1025,-2.2401,-2.1767,-2.3423,-2.5229,-2.5162,-2.4861,0.0,0.0,0.0,0.0,0.0,0.0,0.0,0.0,0.0,0.0,0.0,0.0,0.0,0.0,0.0,0.0,0.0,0.0,0.0,0.0,0.0,0.0,0.0,0.0,0.0,0.0,-4.1762,-4.1697,-4.1604,-4.1604,-4.1604,-4.1604,-4.1604,-4.1604,-4.1604,-4.1604,-4.1604,-4.1604,0.0,-4.1604,-4.1604,-4.1604,-4.1604,-4.1604,-4.1604,-4.1604,-4.1604,-4.1604,-4.1604,-4.1604,-4.1604,-4.1604,-4.1604,-4.1604,-4.1604,-4.1604,-4.1604,-4.1431,-4.114,-4.0659,-3.9732,-3.8756,-3.8303,-3.7931,-3.7714,-3.7714,-3.7612,-3.751,-3.751,-3.6927,-3.6187,-3.5521,-3.4794,-3.4083,-3.3419,-3.3309,-3.3309,-3.3309,-3.3309,-3.3309,-3.3309,-3.3309,-3.3309,-3.3309,-3.3309,-3.3309,-3.3309,-3.3309,-3.3282,-3.3203,-3.3203,-3.2672,-3.1491,-3.1028,-3.0496,-2.9844,-2.9453,-2.9396,-2.9716,-2.9291,-2.9108,-2.9108,-2.9108,-2.8899,-1.8588,-2.0083,-2.1776,-2.2952,-2.5052,-2.7109,-2.8196,-2.7904,-2.7706,0.0,0.0,0.0,0.0,0.0,0.0,0.0,0.0,0.0,0.0,0.0,0.0,0.0,0.0,0.0,0.0,0.0,0.0,0.0,0.0,0.0,0.0,0.0,0.0,0.0,-4.1917,-4.1827,-4.1653,-4.1626,-4.1604,-4.1604,-4.1604,-4.1604,-4.1604,-4.1604,-4.1604,-4.1604,-4.1604,-4.1604,-4.1604,-4.1604,-4.1604,-4.1604,-4.1604,-4.1604,-4.1604,-4.1604,-4.1604,-4.1604,-4.1604,-4.1604,-4.1604,-4.1604,-4.1604,-4.1604,-4.1604,-4.152,-4.1386,-4.1094,-4.0269,-3.9348,-3.8761,-3.8274,-3.7915,-3.7915,-3.7714,-3.751,-3.751,-3.6927,-3.6187,-3.5521,-3.4794,-3.4083,-3.3419,-3.3309,-3.3309,-3.3309,-3.3309,-3.3309,-3.3309,-3.3309,-3.3309,-3.3309,-3.3309,-3.3309,-3.3309,-3.3309,-3.3256,-3.315,-3.3123,-3.2753,-3.1975,-3.1903,-3.1577,-3.0925,-3.0345,-3.0268,-3.0691,-3.0095,-2.9685,-2.9515,-2.95,-2.9257,-2.0626,-2.1369,-2.2039,-2.4284,-2.5009,-2.5758,-2.8062,-2.7966,0.0,-3.0337,0.0,0.0,0.0,0.0,0.0,0.0,0.0,0.0,0.0,0.0,0.0,0.0,0.0,0.0,0.0,0.0,0.0,0.0,0.0,0.0,0.0,0.0,0.0,0.0,0.0,-4.1874,-4.1892,-4.1697,-4.1604,-4.1604,-4.1604,-4.1604,-4.1604,-4.1604,-4.1604,-4.1604,-4.1604,-4.1604,-4.1604,-4.1604,-4.1604,-4.1604,-4.1604,-4.1604,-4.1604,-4.1604,-4.1604,-4.1604,-4.1604,-4.1604,-4.1604,-4.1604,-4.1604,-4.1604,-4.1604,-4.134,-4.1047,-4.1001,-4.0659,-4.0153,-3.9489,-3.8618,-3.7915,-3.7915,-3.7714,-3.751,-3.751,-3.6927,-3.6187,-3.5521,-3.4794,-3.4083,-3.3419,-3.3309,-3.3309,-3.3309,-3.3309,-3.3309,-3.3309,-3.3309,-3.3309,-3.3309,-3.3309,-3.3309,-3.3309,-3.3309,-3.3309,-3.3282,-3.3176,-3.278,-3.2112,-3.1959,-3.1577,-3.0925,-3.0837,-3.0778,-3.0703,-3.0651,-3.0228,-2.9495,-2.9512,-2.9488,-1.8878,-2.0355,-2.1948,-2.3795,-2.5389,0.0,0.0,-3.0242,-3.1202,-3.4132,-3.457,0.0,0.0,0.0,0.0,0.0,0.0,0.0,0.0,0.0,0.0,0.0,0.0,0.0,0.0,0.0,0.0,0.0,0.0,0.0,0.0,0.0,0.0,0.0,0.0,-4.2269,-4.2145,-4.2061,-4.1956,-4.1784,-4.167,-4.1604,-4.1604,-4.1604,-4.1604,-4.1604,-4.1604,-4.1604,-4.1604,-4.1604,-4.1604,-4.1604,-4.1604,-4.1604,-4.1604,-4.1604,-4.1604,-4.1604,-4.1604,-4.1604,-4.1604,-4.1604,-4.1604,-4.1604,-4.1604,-4.1475,-4.1363,-4.1363,-4.1094,-4.0604,-3.9901,-3.9135,-3.8463,-3.8246,-3.7847,-3.751,-3.751,-3.6927,-3.6187,-3.5521,-3.4794,-3.4083,-3.3419,-3.3309,-3.3309,-3.3309,-3.3309,-3.3309,-3.3309,-3.3309,-3.3309,-3.3309,-3.3309,-3.3309,-3.3309,-3.3309,-3.3309,-3.3309,-3.3256,-3.3107,-3.2846,-3.2792,-3.2656,-3.2407,-3.1888,-3.1743,-3.1989,-3.1135,-3.0475,-3.0059,-3.0055,-2.9849,-1.8135,-1.9866,-2.193,-2.3723,0.0,0.0,-3.1093,-3.1981,-3.3248,-3.6995,-3.6906,0.0,0.0,0.0,0.0,0.0,0.0,0.0,0.0,0.0,0.0,0.0,0.0,0.0,0.0,0.0,0.0,0.0,0.0,0.0,0.0,0.0,0.0,0.0,0.0,0.0,-4.2389,-4.2328,-4.2225,-4.2019,-4.1892,-4.178,-4.1697,-4.1697,-4.1697,-4.1697,-4.1697,-4.167,-4.1604,-4.1604,-4.1604,-4.1604,-4.1604,-4.1604,-4.1604,-4.1604,-4.1604,-4.1604,-4.1604,-4.1604,-4.1604,-4.1604,-4.1604,-4.1604,-4.1604,-4.1604,-4.1604,-4.1604,-4.1408,-4.1047,-4.0419,-3.9723,-3.9086,-3.8662,-3.816,-3.765,-3.7255,-3.6595,-3.5884,-3.5189,-3.4462,-3.383,-3.3388,-3.3309,-3.3309,-3.3309,-3.3309,-3.3309,-3.3309,-3.3309,-3.3309,-3.3309,-3.3309,-3.3309,-3.3309,-3.3309,-3.3309,-3.3309,-3.3309,-3.3309,-3.3309,-3.3309,-3.3309,-3.3309,-3.2749,-3.261,-3.2877,-3.19,-3.1213,-3.0793,-3.0792,-3.0535,-1.9095,-2.0282,-2.2093,-2.4429,0.0,0.0,-3.2506,-3.2795,-3.3592,-3.8409,0.0,-3.752,0.0,0.0,0.0,0.0,0.0,0.0,0.0,0.0,0.0,0.0,0.0,0.0,0.0,0.0,0.0,0.0,0.0,0.0,0.0,0.0,0.0,0.0,0.0,0.0,-4.2609,-4.2409,-4.2308,-4.2308,-4.2308,-4.2166,-4.1895,-4.1895,-4.1895,-4.1895,-4.1895,-4.1784,-4.1604,-4.1604,-4.1604,-4.1604,-4.1604,-4.1604,-4.1604,-4.1604,-4.1604,-4.1604,-4.1604,-4.1604,-4.1604,-4.1604,-4.1604,-4.1604,-4.1604,-4.1604,-4.1604,-4.1604,-4.1604,-4.1515,-4.1117,-4.04,-3.9664,-3.9043,-3.8596,-3.7959,-3.6679,-3.5868,-3.5201,-3.4431,-3.3751,-3.3309,-3.3309,-3.3309,-3.3309,-3.3309,-3.3309,-3.3309,-3.3309,-3.3309,-3.3309,-3.3309,-3.3309,-3.3309,-3.3309,-3.3309,-3.3309,-3.3309,-3.3309,-3.3309,-3.3309,-3.3309,-3.3309,-3.3309,-3.3309,-3.3229,-3.3096,-3.3016,-3.2543,-3.1694,-3.1618,-3.1531,-1.9095,-2.107,0.0,-2.5389,0.0,0.0,0.0,-3.4063,0.0,0.0,0.0,0.0,0.0,0.0,0.0,0.0,0.0,0.0,0.0,0.0,0.0,0.0,0.0,0.0,0.0,0.0,0.0,0.0,0.0,0.0,0.0,0.0,0.0,0.0,0.0,0.0,-4.2824,-4.2767,-4.265,-4.251,-4.251,-4.2409,-4.2166,-4.2166,-4.2166,-4.2166,-4.1977,-4.187,-4.1805,-4.167,-4.1604,-4.1604,-4.1604,-4.1604,-4.1604,-4.1604,-4.1604,-4.1604,-4.1604,-4.1604,-4.1604,-4.1604,-4.1604,-4.1604,-4.1604,-4.1604,-4.1604,-4.1604,-4.1604,-4.1582,-4.1453,-4.1186,-4.0635,-3.9525,-3.8616,-3.7802,-3.6938,-3.578,-3.4791,-3.439,-3.3751,-3.3309,-3.3309,-3.3309,-3.3309,-3.3309,-3.3309,-3.3309,-3.3309,-3.3309,-3.3309,-3.3309,-3.3309,-3.3309,-3.3309,-3.3309,-3.3309,-3.3309,-3.3309,-3.3309,-3.3309,-3.3309,-3.3309,-3.3309,-3.3309,-3.3229,-3.3096,-3.2607,-3.2185,-3.1849,-3.1768,-3.1655,-2.0355,-2.26,0.0,-2.7145,-2.9934,-3.2795,-3.5041,0.0,0.0,0.0,0.0,0.0,0.0,0.0,0.0,0.0,0.0,0.0,0.0,0.0,0.0,0.0,0.0,0.0,0.0,0.0,0.0,0.0,0.0,0.0,0.0,0.0,0.0,0.0,0.0,0.0,-4.2901,-4.2901,-4.2843,-4.2709,-4.2709,-4.265,-4.2532,-4.247,-4.2389,-4.2287,-4.1934,-4.1784,-4.1762,-4.1648,-4.1604,-4.1604,-4.1604,-4.1604,-4.1604,-4.1604,-4.1604,-4.1604,-4.1604,-4.1604,-4.1604,-4.1604,-4.1604,-4.1604,-4.1604,-4.1604,-4.1604,-4.1604,-4.1604,-4.1604,-4.1604,-4.1538,-4.1163,-3.991,-3.8922,-3.7935,-3.6864,-3.5604,-3.4574,-3.4128,-3.3657,-3.3309,-3.3309,-3.3309,-3.3309,-3.3309,-3.3309,-3.3309,-3.3309,-3.3309,-3.3309,-3.3309,-3.3309,-3.3309,-3.3309,-3.3309,-3.3309,-3.3309,-3.3309,-3.3309,-3.3309,-3.3309,-3.3309,-3.3309,-3.3309,-3.3256,-3.3176,-3.2765,-3.2504,-3.2382,-3.2329,-3.2251,-2.2083,-2.4292,0.0,-2.9205,-3.1179,0.0,-3.6415,-3.8245,-3.9297,0.0,0.0,0.0,0.0,0.0,0.0,0.0,0.0,0.0,0.0,0.0,0.0,0.0,0.0,0.0,0.0,0.0,0.0,0.0,0.0,0.0,0.0,0.0,0.0,0.0,0.0,0.0,-4.2901,-4.2901,-4.2901,0.0,-4.2901,-4.2901,-4.2882,-4.2709,-4.251,-4.2287,-4.1845,-4.1648,-4.1604,-4.1604,-4.1604,-4.1604,-4.1604,-4.1604,-4.1604,-4.1604,-4.1604,-4.1604,-4.1604,-4.1604,-4.1604,-4.1604,-4.1604,-4.1604,-4.1604,-4.1604,-4.1604,-4.1604,-4.1604,-4.1604,-4.1604,-4.1604,-4.1346,-4.0326,-3.9377,-3.8254,-3.6663,-3.5459,-3.4472,-3.3822,-3.3477,-3.3309,-3.3309,-3.3309,-3.3309,-3.3309,-3.3309,-3.3309,-3.3309,-3.3309,-3.3309,-3.3309,-3.3309,-3.3309,-3.3309,-3.3309,-3.3309,-3.3309,-3.3309,-3.3309,-3.3309,-3.3309,-3.3309,-3.3309,-3.3309,-3.3309,-3.3309,-3.3309,-3.3229,-3.3123,-3.3123,-3.3058,-2.0717,-2.3451,0.0,0.0,-3.2433,-3.5548,-3.7502,-3.8209,0.0,0.0,0.0,0.0,0.0,0.0,0.0,0.0,0.0,0.0,0.0,0.0,0.0,0.0,0.0,0.0,0.0,0.0,0.0,0.0,0.0,0.0,0.0,0.0,0.0,0.0,0.0,-4.2901,-4.2901,-4.2901,-4.2901,0.0,-4.2901,-4.2901,-4.2901,-4.2862,-4.265,-4.2287,-4.2205,-4.1952,-4.1604,-4.1604,-4.1604,-4.1604,-4.1604,-4.1604,-4.1604,-4.1604,-4.1604,-4.1604,-4.1604,-4.1604,-4.1604,-4.1604,-4.1604,-4.1604,-4.1604,-4.1604,-4.1604,-4.1604,-4.1604,-4.1604,-4.1604,-4.1604,-4.1453,-4.0913,-3.9761,-3.8477,-3.7327,-3.5795,-3.443,-3.3829,-3.3477,-3.3309,-3.3309,-3.3309,-3.3309,-3.3309,-3.3309,-3.3309,-3.3309,-3.3309,-3.3309,-3.3309,-3.3309,-3.3309,-3.3309,-3.3309,-3.3309,-3.3309,-3.3309,-3.3309,-3.3309,-3.3309,-3.3309,-3.3309,-3.3309,-3.3309,-3.3309,-3.3309,-3.3282,-3.3256,-3.3256,-3.3176,-2.1025,0.0,0.0,-3.0622,0.0,-3.5657,-3.7267,0.0,0.0,0.0,0.0,0.0,0.0,0.0,0.0,0.0,0.0,0.0,0.0,0.0,0.0,0.0,0.0,0.0,0.0,0.0,0.0,0.0,0.0,0.0,0.0,0.0,0.0,0.0,-4.2901,-4.2901,-4.2901,-4.2901,-4.2901,-4.2901,-4.2901,-4.2901,-4.29,-4.2805,-4.2631,-4.245,-4.2348,-4.2082,-4.174,-4.174,-4.1692,-4.1604,-4.1604,-4.1604,-4.1604,-4.1604,-4.1604,-4.1604,-4.1604,-4.1604,-4.1604,-4.1604,-4.1604,-4.1604,-4.1604,-4.1604,-4.1604,-4.1604,-4.1604,-4.1604,-4.1604,-4.1604,-4.156,-4.134,-3.9998,-3.8599,-3.7892,-3.6269,-3.4887,-3.4553,-3.4267,-3.4018,-3.4018,-3.3832,-3.3607,-3.3319,-3.3309,-3.3309,-3.3309,-3.3309,-3.3309,-3.3309,-3.3309,-3.3309,-3.3309,-3.3309,-3.3309,-3.3309,-3.3309,-3.3309,-3.3309,-3.3309,-3.3309,-3.3309,-3.3309,-3.3309,-3.3309,-3.3309,-3.3309,-3.3309,-3.3309,-3.3256,-2.1079,0.0,-2.7327,-3.2017,-3.381,0.0,0.0,0.0,0.0,0.0,0.0,0.0,0.0,0.0,0.0,0.0,0.0,0.0,0.0,0.0,0.0,0.0,0.0,0.0,0.0,0.0,0.0,0.0,0.0,0.0,0.0,0.0,-4.2502,-4.2502,-4.2611,-4.2683,-4.2683,-4.2828,-4.2901,-4.2901,-4.2901,-4.2901,-4.2882,-4.2728,-4.2631,-4.2589,-4.243,-4.2225,-4.1977,-4.1917,-4.1805,-4.1648,-4.1604,-4.1604,-4.1604,-4.1604,-4.1604,-4.1604,-4.1604,-4.1604,-4.1604,-4.1604,-4.1604,-4.1604,-4.1604,-4.1604,-4.1604,-4.1604,-4.1604,-4.1604,-4.1604,-4.1604,-4.1569,-4.1446,-4.0128,-3.8777,-3.8397,-3.6843,-3.5509,-3.5442,-3.5098,-3.4793,-3.469,-3.4358,-3.3924,-3.3372,-3.3309,-3.3309,-3.3309,-3.3309,-3.3309,-3.3309,-3.3309,-3.3309,-3.3309,-3.3309,-3.3309,-3.3309,-3.3309,-3.3309,-3.3309,-3.3309,-3.3309,-3.3309,-3.3309,-3.3309,-3.3309,-3.3309,-3.3309,-3.3309,-3.3309,-3.3309,0.0,0.0,-2.72,0.0,-3.2977,0.0,0.0,0.0,0.0,0.0,0.0,0.0,0.0,0.0,0.0,0.0,0.0,0.0,0.0,0.0,0.0,0.0,0.0,0.0,0.0,0.0,0.0,0.0,0.0,0.0,0.0,-4.0745,-4.0818,-4.0818,-4.1488,-4.185,-4.185,-4.2538,-4.2901,-4.2901,-4.2901,-4.2901,-4.2901,-4.2863,-4.2767,-4.2609,-4.257,-4.245,-4.2246,-4.1998,-4.1874,-4.1831,-4.167,-4.1604,-4.1604,-4.1604,-4.1604,-4.1604,-4.1604,-4.1604,-4.1604,-4.1604,-4.1604,-4.1604,-4.1604,-4.1604,-4.1604,-4.1604,-4.1604,-4.1604,-4.1604,-4.1604,-4.1446,-4.0801,-3.9933,-3.9136,-3.8799,-3.7288,-3.5907,-3.5565,-3.5203,-3.4816,-3.4284,-3.4151,-3.3924,-3.3372,-3.3309,-3.3309,-3.3309,-3.3309,-3.3309,-3.3309,-3.3309,-3.3309,-3.3309,-3.3309,-3.3309,-3.3309,-3.3309,-3.3309,-3.3309,-3.3309,-3.3309,-3.3309,-3.3309,-3.3309,-3.3309,-3.3309,-3.3309,-3.3309,-3.3309,-3.3309,-1.8308,-2.1984,-2.5715,0.0,0.0,0.0,0.0,0.0,0.0,0.0,0.0,0.0,0.0,0.0,0.0,0.0,0.0,0.0,0.0,0.0,0.0,0.0,0.0,0.0,0.0,0.0,0.0,0.0,0.0,0.0,-3.9876,-4.0275,-4.0492,-4.0492,-4.0836,0.0,-4.1035,-4.1379,-4.1778,-4.223,-4.223,-4.2466,-4.2901,-4.2901,-4.2844,-4.2767,-4.2767,-4.265,-4.245,-4.2207,-4.204,-4.1892,-4.1692,-4.1604,-4.1604,-4.1604,-4.1604,-4.1604,-4.1604,-4.1604,-4.1604,-4.1604,-4.1604,-4.1604,-4.1604,-4.1604,-4.1604,-4.1604,-4.1604,-4.1604,-4.1604,-4.1604,-4.1516,-4.1183,-4.02,-3.9193,-3.873,-3.7499,-3.6447,-3.622,-3.5989,-3.5577,-3.4745,-3.4545,-3.4218,-3.3424,-3.3309,-3.3309,-3.3309,-3.3309,-3.3309,-3.3309,-3.3309,-3.3309,-3.3309,-3.3309,-3.3309,-3.3309,-3.3309,-3.3309,-3.3309,-3.3309,-3.3309,-3.3309,-3.3309,-3.3309,-3.3309,-3.3309,-3.3309,-3.3309,-3.3309,-3.3309,0.0,0.0,-2.3107,0.0,0.0,0.0,0.0,0.0,0.0,0.0,0.0,0.0,0.0,0.0,0.0,0.0,0.0,0.0,0.0,0.0,0.0,0.0,0.0,0.0,0.0,0.0,0.0,0.0,0.0,0.0,-3.9115,-3.9623,-3.993,-3.993,-4.0111,-4.022,-4.022,-4.0401,-4.08,-4.1397,-4.1397,-4.1705,-4.2285,-4.2502,-4.2592,-4.2611,-4.281,-4.2824,-4.265,-4.247,-4.2249,-4.2044,-4.1784,-4.1692,-4.167,-4.1626,-4.1604,-4.1604,-4.1604,-4.1604,-4.1604,-4.1604,-4.1604,-4.1604,-4.1604,-4.1604,-4.1604,-4.1604,-4.1604,-4.1604,-4.1604,-4.1604,-4.1499,-4.1113,-4.0147,-3.9073,-3.8286,-3.7454,-3.6829,-3.6745,-3.6647,-3.6301,-3.538,-3.5128,-3.4697,-3.3678,-3.3513,-3.345,-3.3335,-3.3309,-3.3309,-3.3309,-3.3309,-3.3309,-3.3309,-3.3309,-3.3309,-3.3309,-3.3309,-3.3309,-3.3309,-3.3309,-3.3309,-3.3309,-3.3309,-3.3309,-3.3309,-3.3309,-3.3309,-3.3309,-3.3309,-3.3309,0.0,-1.695,0.0,0.0,0.0,0.0,0.0,0.0,0.0,0.0,0.0,0.0,0.0,0.0,0.0,0.0,0.0,0.0,0.0,0.0,0.0,0.0,0.0,0.0,0.0,0.0,0.0,0.0,0.0,0.0,-3.8263,-3.8299,-3.8317,-3.8317,-3.9061,-3.946,-3.946,-4.0148,-4.051,-4.0564,-4.0564,-4.0583,-4.0637,-4.1415,-4.1759,-4.1795,-4.2574,-4.2882,-4.2863,-4.2688,-4.2589,-4.253,-4.2065,-4.1874,-4.1852,-4.167,-4.1604,-4.1604,-4.1604,-4.1604,-4.1604,-4.1604,-4.1604,-4.1604,-4.1604,-4.1604,-4.1604,-4.1604,-4.1604,-4.1604,-4.1604,-4.1604,-4.1236,-3.9779,-3.9354,-3.8901,-3.7411,-3.7042,-3.6948,-3.6829,-3.6788,-3.6591,-3.5972,-3.5737,-3.5317,-3.4292,-3.4093,-3.3873,-3.3388,-3.3309,-3.3309,-3.3309,-3.3309,-3.3309,-3.3309,-3.3309,-3.3309,-3.3309,-3.3309,-3.3309,-3.3309,-3.3309,-3.3309,-3.3309,-3.3309,-3.3309,-3.3309,-3.3309,-3.3309,-3.3309,-3.3309,-3.3309,0.0,0.0,0.0,0.0,0.0,0.0,0.0,0.0,0.0,0.0,0.0,0.0,0.0,0.0,0.0,0.0,0.0,0.0,0.0,0.0,0.0,0.0,0.0,0.0,0.0,0.0,0.0,0.0,0.0,0.0,-3.8209,-3.8209,-3.8209,-3.8209,-3.848,-3.8644,-3.8644,-3.888,-3.9278,-3.9786,-3.9786,-4.0039,-4.051,-4.08,-4.0926,-4.0945,-4.1234,-4.194,-4.2882,-4.267,-4.2609,-4.257,-4.2269,-4.2163,-4.2163,-4.2079,-4.1934,-4.1784,-4.1784,-4.1697,-4.1604,-4.1604,-4.1604,-4.1604,-4.1604,-4.1604,-4.1604,-4.1604,-4.1604,-4.1499,-4.1007,-4.0906,-4.0481,-3.8918,-3.8164,-3.7654,-3.713,-3.7007,-3.6987,-3.6948,-3.6869,-3.665,-3.6118,-3.5847,-3.5476,-3.4807,-3.4625,-3.4472,-3.4276,-3.4251,-3.4251,-3.4251,-3.3984,-3.3797,-3.3797,-3.3503,-3.3309,-3.3309,-3.3309,-3.3309,-3.3309,-3.3309,-3.3309,-3.3309,-3.3309,-3.3309,-3.3309,-3.3309,-3.3309,-3.3309,-3.3309,-3.3309,-1.3274,0.0,0.0,0.0,0.0,0.0,0.0,0.0,0.0,0.0,0.0,0.0,0.0,0.0,0.0,0.0,0.0,0.0,0.0,0.0,0.0,0.0,0.0,0.0,0.0,0.0,0.0,0.0,0.0,0.0,-3.781,-3.8064,-3.8209,-3.8209,-3.8209,-3.8209,-3.8209,-3.8209,-3.848,-3.9006,-3.9006,-3.9242,-3.9749,-4.0021,-4.013,-4.0148,-4.0383,-4.127,-4.2502,-4.235,-4.2455,-4.267,-4.249,-4.2409,-4.2389,-4.2328,-4.2205,-4.204,-4.204,-4.1934,-4.1823,-4.1736,-4.1697,-4.1675,-4.1626,-4.1604,-4.1552,-4.1306,-4.1218,-4.106,-4.0288,-3.9905,-3.941,-3.8357,-3.7532,-3.7007,-3.7007,-3.7007,-3.7007,-3.7007,-3.6928,-3.6771,-3.6451,-3.6203,-3.5864,-3.538,-3.5151,-3.5005,-3.4816,-3.4793,-3.4738,-3.4569,-3.4284,-3.4025,-3.3848,-3.3503,-3.3309,-3.3309,-3.3309,-3.3309,-3.3309,-3.3309,-3.3309,-3.3309,-3.3309,-3.3309,-3.3309,-3.3309,-3.3309,-3.3309,-3.3309,-3.3309,0.0,0.0,0.0,0.0,0.0,0.0,0.0,0.0,0.0,0.0,0.0,0.0,0.0,0.0,0.0,0.0,0.0,0.0,0.0,0.0,0.0,0.0,0.0,0.0,0.0,0.0,0.0,0.0,0.0,-3.6959,-3.6959,-3.7738,-3.8172,-3.8172,-3.8191,-3.8209,-3.8209,-3.8209,-3.8209,-3.8209,-3.8209,-3.8209,-3.8227,-3.9007,-3.9351,-3.9387,-4.013,-4.089,-4.1632,-4.165,-4.2122,-4.2809,-4.2598,-4.2537,-4.2518,-4.2318,-4.2236,-4.2236,-4.2236,-4.2236,-4.2195,-4.1927,-4.1842,-4.1799,-4.16,-4.1534,-4.1376,-4.0678,-4.0467,-4.0291,-3.948,-3.8673,-3.8076,-3.8076,-3.7514,-3.7007,-3.7007,-3.7007,-3.7007,-3.7007,-3.7007,-3.7007,-3.7007,-3.6829,-3.6523,-3.5994,-3.5771,-3.5436,-3.4927,-3.484,-3.4666,-3.4209,-3.4134,-3.3924,-3.3424,-3.3346,-3.3319,-3.3319,-3.3319,-3.3335,-3.3309,-3.3309,-3.3309,-3.3309,-3.3309,-3.3309,-3.3309,-3.3309,-3.3309,-3.3309,-3.3309,-3.3309,-1.3256,0.0,0.0,0.0,0.0,0.0,0.0,0.0,0.0,0.0,0.0,0.0,0.0,0.0,0.0,0.0,0.0,0.0,0.0,0.0,0.0,0.0,0.0,0.0,0.0,0.0,0.0,0.0,0.0,-3.6127,-3.6127,-3.6904,-3.7339,-3.7339,-3.7901,-3.8209,-3.8209,-3.8209,-3.8209,-3.8209,-3.8209,-3.8209,-3.8209,-3.8444,-3.8535,-3.8553,-3.8753,-3.9297,-4.0075,-4.0601,-4.0945,-4.1144,-4.1107,-4.1089,-4.107,-4.1015,-4.0921,-4.077,-4.077,-4.0692,-4.0552,-4.0473,-4.0453,-4.0413,-4.0212,-4.015,-4.0073,-3.9733,-3.9638,-3.9445,-3.8655,-3.7865,-3.7286,-3.7286,-3.7148,-3.7007,-3.7007,-3.7007,-3.7007,-3.7007,-3.7007,-3.7007,-3.7007,-3.6869,-3.6728,-3.6571,-3.6464,-3.6297,-3.6049,-3.6028,-3.5941,-3.5727,-3.5391,-3.5121,-3.4981,-3.4601,-3.4243,-3.3899,-3.3873,-3.3694,-3.3335,-3.3309,-3.3309,-3.3309,-3.3309,-3.3309,-3.3309,-3.3309,-3.3309,-3.3309,-3.3309,-3.3309,0.0,0.0,0.0,0.0,0.0,0.0,0.0,0.0,0.0,0.0,0.0,0.0,0.0,0.0,0.0,0.0,0.0,0.0,0.0,0.0,0.0,0.0,0.0,0.0,0.0,0.0,0.0,0.0,-3.5293,-3.5532,-3.5802,-3.6236,-3.649,-3.649,-3.7285,-3.7701,-3.7701,-3.8028,-3.8209,-3.8209,-3.829,-3.8322,-3.8338,-3.8435,-3.8435,-3.8322,-3.8322,-3.8545,-3.8916,-3.9351,-3.993,-4.0492,-4.0492,-4.0492,-4.0492,-4.0492,-4.042,-4.0329,-4.0329,-4.0237,-4.0142,-4.0047,-4.0028,-3.999,-3.9775,-3.9733,-3.9605,-3.9085,-3.8629,-3.8234,-3.776,-3.7303,-3.7007,-3.7007,-3.7007,-3.7007,-3.7007,-3.7007,-3.7007,-3.7007,-3.7007,-3.7007,-3.7007,-3.6888,-3.6809,-3.6809,-3.6745,-3.6664,-3.6602,-3.6564,-3.6444,-3.6097,-3.5798,-3.5532,-3.5299,-3.4981,-3.469,-3.4415,-3.4391,-3.4243,-3.3942,-3.3917,-3.3832,-3.3658,-3.3617,-3.3529,-3.3309,-3.3309,-3.3309,-3.3309,-3.3309,-3.3309,0.0,0.0,0.0,0.0,0.0,0.0,-2.0736,-1.9786,0.0,0.0,0.0,0.0,0.0,0.0,0.0,0.0,0.0,0.0,0.0,0.0,0.0,0.0,0.0,0.0,0.0,0.0,0.0,-3.3869,-3.4458,-3.5035,-3.5571,-3.5683,-3.5719,-3.5719,-3.6515,-3.693,-3.693,-3.764,-3.804,-3.8147,-3.8319,-3.8449,-3.8556,-3.8788,-3.8773,-3.8541,-3.8541,-3.8449,-3.8274,-3.8274,-3.904,-4.0239,-4.0239,-4.0239,-4.0239,-4.0239,-4.0239,-4.0239,-4.0239,-4.0239,-4.0221,-4.004,-3.9985,-3.9948,-3.974,-3.9681,-3.9481,-3.8541,-3.7657,-3.7007,-3.7007,-3.7007,-3.7007,-3.7007,-3.7007,-3.7007,-3.7007,-3.7007,-3.7007,-3.7007,-3.7007,-3.7007,-3.7007,-3.6908,-3.6829,-3.6829,-3.6766,-3.6742,-3.6705,-3.6722,-3.6464,-3.5885,-3.5803,-3.5582,-3.5028,-3.4981,-3.4934,-3.4887,-3.4904,-3.4864,-3.4793,-3.4793,-3.4569,-3.4126,-3.405,-3.3787,-3.3309,-3.3309,-3.3309,-3.3309,-3.3309,-3.3309,0.0,0.0,0.0,0.0,0.0,0.0,0.0,-1.887,0.0,0.0,0.0,0.0,0.0,0.0,0.0,0.0,0.0,0.0,0.0,0.0,0.0,0.0,0.0,0.0,0.0,0.0,-3.3032,-3.3031,-3.3744,-3.4234,-3.4347,-3.4958,-3.5326,-3.5326,-3.6103,-3.6526,-3.6526,-3.6658,-3.7077,-3.7732,-3.7757,-3.814,-3.8818,-3.8881,-3.8862,-3.8818,-3.8818,-3.8788,-3.8758,-3.8758,-3.8729,-3.8645,-3.8645,-3.8645,-3.8645,-3.8645,-3.8645,-3.8645,-3.8645,-3.8645,-3.8645,-3.861,-3.8593,-3.8541,-3.8366,-3.8295,-3.8187,-3.7657,-3.7269,-3.7007,-3.7007,-3.7007,-3.7007,-3.7007,-3.7007,-3.7007,-3.7007,-3.7007,-3.7007,-3.7007,-3.7007,-3.7007,-3.7007,-3.6987,-3.6968,-3.6968,-3.6948,-3.6908,-3.6788,-3.6788,-3.6708,-3.6523,-3.6402,-3.6301,-3.6174,-3.6071,-3.5837,-3.5481,-3.5436,-3.5253,-3.4833,-3.4793,-3.4569,-3.4126,-3.3684,-3.3398,-3.3309,-3.3309,-3.3309,-3.3309,-3.3309,-3.3309,0.0,0.0,0.0,-2.1417,0.0,0.0,0.0,0.0,0.0,0.0,0.0,0.0,0.0,0.0,0.0,0.0,0.0,0.0,0.0,0.0,0.0,0.0,0.0,0.0,0.0,0.0,-3.2272,-3.2065,-3.2877,-3.3363,-3.3261,-3.4113,-3.4594,-3.4594,-3.5375,-3.5804,-3.5804,-3.6196,-3.6597,-3.6999,-3.7109,-3.7622,-3.8452,-3.8561,-3.877,-3.9064,-3.9064,-3.8993,-3.891,-3.891,-3.8762,-3.8546,-3.8546,-3.8467,-3.8354,-3.8354,-3.829,-3.8209,-3.8209,-3.8209,-3.8209,-3.8209,-3.8209,-3.8192,-3.809,-3.7916,-3.7703,-3.7503,-3.7222,-3.7007,-3.7007,-3.7007,-3.7007,-3.7007,-3.7007,-3.7007,-3.7007,-3.7007,-3.7007,-3.7007,-3.7007,-3.7007,-3.7007,-3.7007,-3.7007,-3.7007,-3.7007,-3.6987,-3.6908,-3.6908,-3.6869,-3.6766,-3.6687,-3.6606,-3.6523,-3.6444,-3.6259,-3.5963,-3.5963,-3.5815,-3.5571,-3.5554,-3.5191,-3.4464,-3.3694,-3.3309,-3.3309,-3.3309,-3.3309,-3.3309,-3.3309,-3.3309,0.0,0.0,0.0,0.0,0.0,-2.324,0.0,0.0,0.0,0.0,0.0,0.0,0.0,0.0,0.0,0.0,0.0,0.0,0.0,0.0,0.0,0.0,0.0,0.0,0.0,0.0,-3.1072,-3.12,-3.1818,-3.2267,-3.2409,-3.334,-3.3889,-3.3889,-3.4654,-3.5068,-3.5068,-3.5721,-3.6147,-3.6313,-3.6477,-3.6994,-3.784,-3.7984,-3.8409,-3.904,-3.904,-3.9039,-3.9021,-3.9021,-3.9021,-3.904,-3.8939,-3.8773,-3.8572,-3.8572,-3.8481,-3.8323,-3.8274,-3.8257,-3.8257,-3.8225,-3.8209,-3.8209,-3.8209,-3.7951,-3.7667,-3.7667,-3.741,-3.7124,-3.7066,-3.7066,-3.7046,-3.7007,-3.7007,-3.7007,-3.7007,-3.7007,-3.7007,-3.7007,-3.7007,-3.7007,-3.7007,-3.7007,-3.7007,-3.7007,-3.7007,-3.7007,-3.7007,-3.7007,-3.6968,-3.6849,-3.6829,-3.6731,-3.6585,-3.6544,-3.6502,-3.6364,-3.6381,-3.6381,-3.6343,-3.6237,-3.5771,-3.4958,-3.4068,-3.3539,-3.345,-3.345,-3.3398,-3.3309,-3.3309,-3.3309,0.0,0.0,0.0,0.0,-2.5418,0.0,0.0,0.0,0.0,0.0,0.0,0.0,0.0,0.0,0.0,0.0,0.0,0.0,0.0,0.0,0.0,0.0,0.0,0.0,0.0,0.0,0.0,-3.0777,-3.0385,-3.0657,-3.2079,-3.2989,-3.3468,-3.3468,-3.4255,-3.4678,-3.4678,-3.4761,-3.5192,-3.596,-3.5983,-3.6426,-3.7207,-3.723,-3.765,-3.8395,-3.8395,-3.8833,-3.9527,-3.9527,-3.9527,-3.9489,-3.905,-3.8877,-3.8848,-3.8848,-3.8833,-3.8788,-3.8541,-3.8462,-3.843,-3.8257,-3.8209,-3.8209,-3.8209,-3.8038,-3.7864,-3.7864,-3.7703,-3.7485,-3.7316,-3.7259,-3.722,-3.7046,-3.7007,-3.7007,-3.7007,-3.7007,-3.7007,-3.7007,-3.7007,-3.7007,-3.7007,-3.7007,-3.7007,-3.7007,-3.7007,-3.7007,-3.7007,-3.7007,-3.6989,-3.6987,-3.6869,-3.6788,-3.6768,-3.6705,-3.6664,-3.6661,-3.6643,-3.6602,-3.6482,-3.5963,-3.5616,-3.5504,-3.4911,-3.4423,-3.4,-3.4,-3.3771,-3.3309,-3.3309,-3.3309,0.0,0.0,0.0,0.0,0.0,0.0,0.0,0.0,-2.3942,0.0,0.0,0.0,0.0,0.0,0.0,0.0,0.0,0.0,0.0,0.0,0.0,0.0,0.0,0.0,0.0,0.0,0.0,0.0,0.0,-2.8792,-3.0446,-3.1425,-3.2395,-3.3371,-3.3738,-3.4132,-3.4612,-3.4612,-3.4771,-3.5146,-3.5146,-3.5578,-3.6404,-3.6404,-3.6836,-3.7606,-3.7606,-3.8075,-3.8845,-3.8845,-3.9138,-3.9577,-3.938,-3.9202,-3.9059,-3.9059,-3.9007,-3.8848,-3.8588,-3.851,-3.8462,-3.8274,-3.8209,-3.8209,-3.8209,-3.8073,-3.7899,-3.7899,-3.7775,-3.7594,-3.7503,-3.7391,-3.7278,-3.7201,-3.7085,-3.7007,-3.7007,-3.7007,-3.7007,-3.7007,-3.7007,-3.7007,-3.7007,-3.7007,-3.7007,-3.7007,-3.7007,-3.7007,-3.7007,-3.7007,-3.7007,-3.7007,-3.6948,-3.6871,-3.6809,-3.6768,-3.6745,-3.6702,-3.6623,-3.6602,-3.6623,-3.5963,-3.5616,-3.5666,-3.5098,-3.4714,-3.4513,-3.4234,-3.3975,-3.3745,-3.345,-3.3309,-2.5535,0.0,0.0,0.0,0.0,0.0,0.0,0.0,0.0,0.0,0.0,0.0,0.0,0.0,0.0,0.0,0.0,0.0,0.0,0.0,0.0,0.0,0.0,0.0,0.0,0.0,0.0,0.0,0.0,0.0,-2.9015,-3.0048,-3.1325,-3.2987,-3.3287,-3.3794,-3.4594,-3.4612,-3.4612,-3.4612,-3.4612,-3.4921,-3.554,-3.554,-3.5991,-3.6772,-3.6772,-3.723,-3.7962,-3.7962,-3.8469,-3.9251,-3.9251,-3.9264,-3.9309,-3.9309,-3.9175,-3.895,-3.8695,-3.8525,-3.8401,-3.8241,-3.8209,-3.8209,-3.8209,-3.8107,-3.7969,-3.7969,-3.7881,-3.7757,-3.7703,-3.7576,-3.7428,-3.7316,-3.7182,-3.7066,-3.7007,-3.7007,-3.7007,-3.7007,-3.7007,-3.7007,-3.7007,-3.7007,-3.7007,-3.7007,-3.7007,-3.7007,-3.7007,-3.7007,-3.7007,-3.7007,-3.7007,-3.6968,-3.6851,-3.6851,-3.6829,-3.6786,-3.6647,-3.6626,-3.6725,-3.5963,-3.5569,-3.5621,-3.4936,-3.4536,-3.4382,-3.4049,-3.3802,-3.3673,-3.3415,-3.3309,0.0,0.0,0.0,-2.4563,0.0,0.0,0.0,0.0,-2.6097,0.0,0.0,0.0,0.0,0.0,0.0,0.0,0.0,0.0,0.0,0.0,0.0,0.0,0.0,0.0,0.0,0.0,0.0,0.0,0.0,0.0,-2.8257,-2.926,-3.0471,-3.2086,-3.2968,-3.3794,-3.4594,-3.4612,-3.4612,-3.4612,-3.4612,-3.4602,-3.4639,-3.4639,-3.5108,-3.5935,-3.5935,-3.6385,-3.7148,-3.7148,-3.7606,-3.8338,-3.8338,-3.8845,-3.9596,-3.9596,-3.9419,-3.9156,-3.8964,-3.8593,-3.8209,-3.8209,-3.8209,-3.8209,-3.8209,-3.8192,-3.8192,-3.8192,-3.8192,-3.8141,-3.7934,-3.7881,-3.7793,-3.7391,-3.7314,-3.7239,-3.7046,-3.7007,-3.7007,-3.7007,-3.7007,-3.7007,-3.7007,-3.7007,-3.7007,-3.7007,-3.7007,-3.7007,-3.7007,-3.7007,-3.7007,-3.7007,-3.7007,-3.7007,-3.6989,-3.6989,-3.6987,-3.6987,-3.6851,-3.6788,-3.6809,-3.5911,-3.5408,-3.5408,-3.4565,-3.387,-3.3343,-3.3343,-3.3069,-3.2562,-3.3072,-3.3309,0.0,0.0,-2.802,-2.6058,0.0,0.0,0.0,0.0,0.0,0.0,0.0,0.0,0.0,0.0,0.0,0.0,0.0,0.0,0.0,0.0,0.0,0.0,0.0,0.0,0.0,0.0,0.0,0.0,0.0,0.0,0.0,-2.7599,-2.88,-3.0452,-3.1823,-3.2949,-3.3794,-3.432,-3.4612,-3.4612,-3.4612,-3.4612,-3.4612,-3.4612,-3.4752,-3.5033,-3.5033,-3.5522,-3.631,-3.631,-3.6779,-3.7512,-3.7512,-3.7692,-3.8087,-3.9195,-3.954,-3.9432,-3.917,-3.8906,-3.867,-3.867,-3.8544,-3.8401,-3.8401,-3.8305,-3.8209,-3.8209,-3.8209,-3.8192,-3.8124,-3.7986,-3.7864,-3.7739,-3.7484,-3.7278,-3.722,-3.7105,-3.7007,-3.7007,-3.7007,-3.7007,-3.7007,-3.7007,-3.7007,-3.7007,-3.7007,-3.7007,-3.7007,-3.7007,-3.7007,-3.7007,-3.6513,-3.6215,-3.6215,-3.5759,-3.5479,-3.5479,-3.5348,-3.531,-3.5403,-3.4965,-3.4749,-3.481,-3.4469,-3.4211,-3.4019,-3.3567,-3.328,-3.3093,-3.286,-3.2627,-2.7892,-2.832,0.0,0.0,-2.6632,0.0,-2.5459,0.0,0.0,0.0,0.0,0.0,0.0,0.0,0.0,0.0,0.0,0.0,0.0,0.0,0.0,0.0,0.0,0.0,0.0,0.0,-2.0708,-2.2192,0.0,0.0,0.0,0.0,-2.7974,-2.9645,-3.0978,-3.2236,-3.339,-3.3907,-3.432,-3.4612,-3.4612,-3.4612,-3.4612,-3.4612,-3.4612,-3.4612,-3.4612,-3.4921,-3.5446,-3.5446,-3.5935,-3.6678,-3.6678,-3.6847,-3.7223,-3.8312,-3.8658,-3.8559,-3.8617,-3.8544,-3.8504,-3.8799,-3.8788,-3.8634,-3.8634,-3.8496,-3.8305,-3.8305,-3.8257,-3.8209,-3.8209,-3.8089,-3.7986,-3.7916,-3.7703,-3.7466,-3.7334,-3.7201,-3.7085,-3.7009,-3.7007,-3.7007,-3.7007,-3.7007,-3.7007,-3.7007,-3.7007,-3.7007,-3.7007,-3.6742,-3.6566,-3.6566,-3.5864,-3.5425,-3.5425,-3.4969,-3.4706,-3.4706,-3.4615,-3.4615,-3.4688,-3.4275,-3.4062,-3.4102,-3.3746,-3.3568,-3.3568,-3.3137,-3.2926,-3.2926,-3.2345,-3.1835]},{"header":{"parameterUnit":"m.s-1","parameterCategory":1,"la1":30.6,"la2":29.2853,"lo1":-89.7004,"lo2":-87.6739,"dy":0.0162,"dx":0.0183,"nx":112,"ny":82,"refTime":"2025-07-08T12:00:00:Z","depth":0,"parameterNumber":3,"parameterNumberName":"V-component_of_WINDS"},"data":[0.0,0.0,0.0,0.0,0.0,0.0,0.0,0.0,0.0,0.0,0.0,0.0,0.0,0.0,0.0,0.0,0.0,0.0,0.0,0.0,0.0,0.0,0.0,0.0,0.0,0.0,0.0,0.0,0.0,0.0,0.0,0.0,0.0,0.0,0.0,0.0,0.0,0.0,0.0,0.0,0.0,0.0,0.0,0.0,0.0,0.0,0.0,0.0,0.0,0.0,0.0,0.0,0.0,0.0,0.0,0.0,0.0,0.0,0.0,0.0,0.0,0.0,0.0,0.0,0.0,0.0,0.0,0.0,0.0,0.0,0.0,0.0,0.0,0.0,0.0,0.0,0.0,0.0,0.0,0.0,0.0,0.0,0.0,0.0,0.0,0.0,0.0,0.0,0.0,0.0,0.0,-1.5958,-1.7557,-1.8498,-1.8498,-1.7955,-1.6803,-1.4921,0.0,0.0,0.0,0.0,0.0,0.0,0.0,0.0,0.0,0.0,0.0,0.0,0.0,0.0,0.0,0.0,0.0,0.0,0.0,0.0,0.0,0.0,0.0,0.0,0.0,0.0,0.0,0.0,0.0,0.0,0.0,0.0,0.0,0.0,0.0,0.0,0.0,0.0,0.0,0.0,0.0,0.0,0.0,0.0,0.0,0.0,0.0,0.0,0.0,0.0,0.0,0.0,0.0,0.0,0.0,0.0,0.0,0.0,0.0,0.0,0.0,0.0,0.0,0.0,0.0,0.0,0.0,0.0,0.0,0.0,0.0,0.0,0.0,0.0,0.0,0.0,0.0,0.0,0.0,0.0,0.0,0.0,0.0,0.0,0.0,0.0,0.0,0.0,0.0,0.0,0.0,0.0,0.0,0.0,0.0,0.0,0.0,0.0,0.0,0.0,0.0,0.0,0.0,0.0,-1.4402,-1.7712,-1.8329,-1.8498,-1.8498,-1.7955,-1.6803,-1.4921,0.0,0.0,0.0,0.0,0.0,0.0,0.0,0.0,0.0,0.0,0.0,0.0,0.0,0.0,0.0,0.0,0.0,0.0,0.0,0.0,0.0,0.0,0.0,0.0,0.0,0.0,0.0,0.0,0.0,0.0,0.0,0.0,0.0,0.0,0.0,0.0,0.0,0.0,0.0,0.0,0.0,0.0,0.0,0.0,0.0,0.0,0.0,0.0,0.0,0.0,0.0,0.0,0.0,0.0,0.0,0.0,0.0,0.0,0.0,0.0,0.0,0.0,0.0,0.0,0.0,0.0,0.0,0.0,0.0,0.0,0.0,0.0,0.0,0.0,0.0,0.0,0.0,0.0,0.0,0.0,0.0,0.0,0.0,0.0,0.0,0.0,0.0,0.0,0.0,0.0,0.0,0.0,0.0,0.0,0.0,0.0,0.0,0.0,0.0,0.0,0.0,0.0,0.0,-1.4332,-1.5497,-1.8203,-1.8498,-1.8498,-1.8498,-1.7955,-1.6803,-1.4921,-1.3038,0.0,0.0,0.0,0.0,0.0,0.0,0.0,0.0,0.0,0.0,0.0,0.0,0.0,0.0,0.0,0.0,0.0,0.0,0.0,0.0,0.0,0.0,0.0,0.0,0.0,0.0,0.0,0.0,0.0,0.0,0.0,0.0,0.0,0.0,0.0,0.0,0.0,0.0,0.0,0.0,0.0,0.0,0.0,0.0,0.0,0.0,0.0,0.0,0.0,0.0,0.0,0.0,0.0,0.0,0.0,0.0,0.0,0.0,0.0,0.0,0.0,0.0,0.0,0.0,0.0,0.0,0.0,0.0,0.0,0.0,0.0,0.0,0.0,0.0,0.0,0.0,0.0,0.0,0.0,0.0,0.0,0.0,0.0,0.0,0.0,0.0,0.0,0.0,0.0,0.0,0.0,0.0,0.0,0.0,0.0,0.0,0.0,0.0,0.0,0.0,0.0,0.0,-1.6227,-1.6912,-1.8343,-1.8624,-1.8652,-1.8512,-1.7829,-1.6649,-1.4921,-1.2771,0.0,0.0,0.0,0.0,0.0,0.0,0.0,0.0,0.0,0.0,0.0,0.0,0.0,0.0,0.0,0.0,0.0,0.0,0.0,0.0,0.0,0.0,0.0,0.0,0.0,0.0,0.0,0.0,0.0,0.0,0.0,0.0,0.0,0.0,0.0,0.0,0.0,0.0,0.0,0.0,0.0,0.0,0.0,0.0,0.0,0.0,0.0,0.0,0.0,0.0,0.0,0.0,0.0,0.0,0.0,0.0,0.0,0.0,0.0,0.0,0.0,0.0,0.0,0.0,0.0,0.0,0.0,0.0,0.0,0.0,0.0,0.0,0.0,0.0,0.0,0.0,0.0,0.0,0.0,0.0,0.0,0.0,0.0,0.0,0.0,0.0,0.0,0.0,0.0,0.0,0.0,0.0,0.0,0.0,0.0,0.0,0.0,0.0,0.0,0.0,0.0,0.0,-1.6564,-1.8343,-1.8484,-1.9003,-1.9115,-1.8554,-1.7436,-1.6199,-1.4878,-1.1983,0.0,0.0,0.0,0.0,0.0,0.0,0.0,0.0,0.0,0.0,0.0,0.0,0.0,0.0,0.0,0.0,0.0,0.0,0.0,0.0,0.0,0.0,0.0,0.0,0.0,0.0,0.0,0.0,0.0,0.0,0.0,0.0,0.0,0.0,0.0,0.0,0.0,0.0,0.0,0.0,0.0,0.0,0.0,0.0,0.0,0.0,0.0,0.0,0.0,0.0,0.0,0.0,0.0,0.0,0.0,0.0,0.0,0.0,0.0,0.0,0.0,0.0,0.0,0.0,0.0,0.0,0.0,0.0,0.0,0.0,0.0,0.0,0.0,0.0,0.0,0.0,0.0,0.0,0.0,0.0,0.0,0.0,0.0,0.0,0.0,0.0,0.0,0.0,0.0,0.0,0.0,0.0,0.0,0.0,0.0,0.0,0.0,0.0,0.0,0.0,0.0,0.0,-1.6171,-1.7815,0.0,-1.8933,-1.8905,-1.9059,-1.8301,-1.6972,-1.4935,0.0,0.0,0.0,0.0,0.0,0.0,0.0,0.0,0.0,0.0,0.0,0.0,0.0,0.0,0.0,0.0,0.0,0.0,0.0,0.0,0.0,0.0,0.0,0.0,0.0,0.0,0.0,0.0,0.0,0.0,0.0,0.0,0.0,0.0,0.0,0.0,0.0,0.0,0.0,0.0,0.0,0.0,0.0,0.0,0.0,0.0,0.0,0.0,0.0,0.0,0.0,0.0,0.0,0.0,0.0,0.0,0.0,0.0,0.0,0.0,0.0,0.0,0.0,0.0,0.0,0.0,0.0,0.0,0.0,0.0,0.0,0.0,0.0,0.0,0.0,0.0,0.0,0.0,0.0,0.0,0.0,0.0,0.0,0.0,0.0,0.0,0.0,0.0,0.0,0.0,0.0,0.0,0.0,0.0,0.0,0.0,0.0,0.0,0.0,0.0,0.0,0.0,-1.4527,-1.6255,-1.7829,0.0,-1.9031,-1.8961,-1.9348,-1.8666,-1.7235,-1.4949,0.0,0.0,0.0,0.0,0.0,0.0,0.0,0.0,0.0,0.0,0.0,0.0,0.0,0.0,0.0,0.0,0.0,0.0,0.0,0.0,0.0,0.0,0.0,0.0,0.0,0.0,0.0,0.0,0.0,0.0,0.0,0.0,0.0,0.0,0.0,0.0,0.0,0.0,0.0,0.0,0.0,0.0,0.0,0.0,0.0,0.0,0.0,0.0,0.0,0.0,0.0,0.0,0.0,0.0,0.0,0.0,0.0,0.0,0.0,0.0,0.0,0.0,0.0,0.0,0.0,0.0,0.0,0.0,0.0,0.0,0.0,0.0,0.0,0.0,0.0,0.0,0.0,0.0,0.0,0.0,0.0,0.0,0.0,0.0,0.0,0.0,0.0,0.0,0.0,0.0,0.0,0.0,0.0,0.0,0.0,0.0,0.0,0.0,0.0,0.0,0.0,0.0,-1.464,-1.6968,-1.8736,-1.9333,-1.9376,-1.9376,-1.939,-1.8301,-1.6803,0.0,0.0,0.0,0.0,0.0,0.0,0.0,0.0,0.0,0.0,0.0,0.0,0.0,0.0,0.0,0.0,0.0,0.0,0.0,0.0,0.0,0.0,0.0,0.0,0.0,0.0,0.0,0.0,0.0,0.0,0.0,0.0,0.0,0.0,0.0,0.0,0.0,0.0,0.0,0.0,0.0,0.0,0.0,0.0,0.0,0.0,0.0,0.0,0.0,0.0,0.0,0.0,0.0,0.0,0.0,0.0,0.0,0.0,0.0,0.0,0.0,0.0,0.0,0.0,0.0,0.0,0.0,0.0,0.0,0.0,0.0,0.0,0.0,0.0,0.0,0.0,0.0,0.0,0.0,0.0,0.0,0.0,0.0,0.0,0.0,0.0,0.0,0.0,0.0,0.0,0.0,0.0,0.0,0.0,0.0,0.0,0.0,0.0,0.0,0.0,0.0,0.0,0.0,-1.464,-1.6968,-1.8736,-1.9333,-1.9031,-1.8947,-1.9348,-1.868,-1.7249,-1.4949,0.0,0.0,0.0,0.0,0.0,0.0,0.0,0.0,0.0,0.0,0.0,0.0,0.0,0.0,0.0,0.0,0.0,0.0,0.0,0.0,0.0,0.0,0.0,0.0,0.0,0.0,0.0,0.0,0.0,0.0,0.0,0.0,0.0,0.0,0.0,0.0,0.0,0.0,0.0,0.0,0.0,0.0,0.0,0.0,0.0,0.0,0.0,0.0,0.0,0.0,0.0,0.0,0.0,0.0,0.0,0.0,0.0,0.0,0.0,0.0,0.0,0.0,0.0,0.0,0.0,0.0,0.0,0.0,0.0,0.0,0.0,0.0,0.0,0.0,0.0,0.0,0.0,0.0,0.0,0.0,0.0,0.0,0.0,0.0,0.0,0.0,0.0,0.0,0.0,0.0,0.0,0.0,0.0,0.0,0.0,0.0,0.0,0.0,0.0,0.0,0.0,0.0,-1.464,-1.6968,-1.8736,-1.9333,-1.8863,-1.8736,-1.9348,-1.8849,-1.7543,-1.5298,0.0,0.0,0.0,0.0,0.0,0.0,0.0,0.0,0.0,0.0,0.0,0.0,0.0,0.0,0.0,0.0,0.0,0.0,0.0,0.0,0.0,0.0,0.0,0.0,0.0,0.0,0.0,0.0,0.0,0.0,0.0,0.0,0.0,0.0,0.0,0.0,0.0,0.0,0.0,0.0,0.0,0.0,0.0,0.0,0.0,0.0,0.0,0.0,0.0,0.0,0.0,0.0,0.0,0.0,0.0,0.0,0.0,0.0,0.0,0.0,0.0,0.0,0.0,0.0,0.0,0.0,0.0,0.0,0.0,0.0,0.0,0.0,0.0,0.0,0.0,0.0,0.0,0.0,0.0,0.0,0.0,0.0,0.0,0.0,0.0,0.0,0.0,0.0,0.0,0.0,0.0,0.0,0.0,0.0,0.0,0.0,0.0,0.0,0.0,0.0,0.0,0.0,-1.464,-1.6968,-1.8708,-1.927,-1.8835,-1.8722,-1.9263,-1.8807,-1.7726,-1.5901,0.0,0.0,0.0,0.0,0.0,0.0,0.0,0.0,0.0,0.0,0.0,0.0,0.0,0.0,0.0,0.0,0.0,0.0,0.0,0.0,0.0,0.0,0.0,0.0,0.0,0.0,0.0,0.0,0.0,0.0,0.0,0.0,0.0,0.0,0.0,0.0,0.0,0.0,0.0,0.0,0.0,0.0,0.0,0.0,0.0,0.0,0.0,0.0,0.0,0.0,0.0,0.0,0.0,0.0,0.0,0.0,0.0,0.0,0.0,0.0,-1.3252,0.0,0.0,0.0,0.0,0.0,0.0,0.0,0.0,0.0,0.0,0.0,0.0,0.0,0.0,0.0,0.0,0.0,0.0,0.0,0.0,0.0,0.0,0.0,0.0,0.0,0.0,0.0,0.0,0.0,0.0,0.0,0.0,0.0,0.0,0.0,0.0,0.0,0.0,0.0,0.0,0.0,-1.464,-1.6968,-1.8554,-1.868,-1.8582,-1.8554,-1.868,-1.8568,-1.7908,-1.6564,0.0,0.0,0.0,0.0,0.0,0.0,0.0,0.0,0.0,0.0,0.0,0.0,0.0,0.0,0.0,0.0,0.0,0.0,0.0,0.0,0.0,0.0,0.0,0.0,0.0,0.0,0.0,0.0,0.0,0.0,0.0,0.0,0.0,0.0,0.0,0.0,0.0,0.0,0.0,0.0,0.0,0.0,0.0,0.0,0.0,0.0,0.0,0.0,0.0,0.0,0.0,0.0,0.0,0.0,0.0,0.0,0.0,0.0,0.0,0.0,0.0,-1.5474,0.0,0.0,0.0,0.0,0.0,0.0,0.0,0.0,0.0,0.0,0.0,0.0,0.0,0.0,0.0,0.0,0.0,0.0,0.0,0.0,0.0,0.0,0.0,0.0,0.0,0.0,0.0,0.0,0.0,0.0,0.0,0.0,0.0,0.0,0.0,0.0,0.0,0.0,0.0,0.0,-1.5073,-1.7403,-1.8821,-1.8526,-1.8764,-1.8821,-1.8512,-1.8498,-1.8105,-1.7183,-1.6227,0.0,0.0,0.0,0.0,0.0,0.0,0.0,0.0,0.0,0.0,0.0,0.0,0.0,0.0,0.0,0.0,0.0,0.0,0.0,0.0,0.0,0.0,0.0,0.0,0.0,0.0,0.0,0.0,0.0,0.0,0.0,0.0,0.0,0.0,0.0,0.0,0.0,0.0,0.0,0.0,0.0,0.0,0.0,0.0,0.0,0.0,0.0,0.0,0.0,0.0,0.0,0.0,0.0,0.0,-1.6573,-1.7042,-1.7833,-1.8665,-1.9464,-1.9191,-1.9345,-1.9654,0.0,0.0,0.0,0.0,0.0,0.0,0.0,0.0,0.0,0.0,0.0,0.0,0.0,0.0,0.0,0.0,0.0,0.0,0.0,0.0,0.0,0.0,0.0,0.0,0.0,-1.7572,-1.6714,0.0,0.0,0.0,0.0,0.0,0.0,0.0,0.0,0.0,0.0,0.0,0.0,-1.5809,-1.7969,-1.9256,-1.8863,-1.9186,-1.9214,-1.8694,-1.8554,-1.8287,-1.7801,-1.7183,-1.6399,0.0,0.0,0.0,0.0,0.0,0.0,0.0,0.0,0.0,0.0,0.0,0.0,0.0,0.0,0.0,0.0,0.0,0.0,0.0,0.0,0.0,0.0,0.0,0.0,0.0,0.0,0.0,0.0,0.0,0.0,0.0,0.0,-0.8208,-0.9018,0.0,0.0,0.0,0.0,0.0,0.0,0.0,0.0,0.0,0.0,0.0,0.0,0.0,0.0,-1.5835,-1.7002,-1.7633,-1.7697,-1.8476,-1.9199,-1.987,-1.9984,-2.0688,-2.1814,-2.2558,0.0,-2.0133,-1.8912,0.0,0.0,0.0,0.0,0.0,0.0,0.0,0.0,0.0,0.0,0.0,0.0,0.0,0.0,0.0,0.0,0.0,0.0,0.0,0.0,0.0,0.0,-1.9028,-1.8779,-1.8698,-1.8539,0.0,-1.6467,-1.4688,-1.3702,0.0,0.0,0.0,0.0,0.0,0.0,0.0,0.0,-1.689,-1.8456,-1.9593,-2.0105,-1.9705,-1.9362,-1.9277,-1.8807,-1.847,-1.8386,-1.7829,-1.7407,-1.7239,-1.5595,0.0,0.0,0.0,0.0,0.0,0.0,0.0,0.0,0.0,0.0,0.0,0.0,0.0,0.0,0.0,0.0,0.0,0.0,0.0,0.0,0.0,0.0,0.0,0.0,0.0,0.0,0.0,0.0,0.0,-0.7995,-0.9451,-0.9803,-1.0507,-1.0658,0.0,0.0,0.0,0.0,0.0,0.0,0.0,0.0,0.0,-1.5817,-1.6468,-1.7183,-1.799,-1.8722,-1.9216,-1.9436,-1.9815,-2.0264,-2.0818,-2.1344,-2.2267,-2.3536,-2.4178,-2.4189,-2.3632,-2.1733,-2.056,-1.9826,0.0,0.0,0.0,0.0,0.0,-1.8185,-1.9212,0.0,0.0,0.0,0.0,0.0,0.0,0.0,0.0,0.0,0.0,0.0,0.0,0.0,0.0,-1.9734,-1.9746,-1.9746,-1.9746,-1.8704,-1.7342,0.0,-1.5414,-1.4903,-1.395,0.0,0.0,0.0,0.0,0.0,-1.8277,-1.9635,-2.0442,-2.04,-2.0442,-2.0189,-1.9466,-1.9171,-1.8863,-1.8512,-1.8245,-1.8105,-1.8105,-1.7,-1.6191,0.0,0.0,0.0,0.0,0.0,0.0,0.0,0.0,0.0,0.0,0.0,0.0,0.0,0.0,0.0,0.0,0.0,0.0,0.0,0.0,0.0,0.0,0.0,0.0,0.0,0.0,0.0,0.0,-0.9342,-1.0619,-1.0687,-1.171,-1.2012,0.0,0.0,0.0,0.0,0.0,0.0,-1.5203,-1.6028,-1.6835,-1.7651,-1.8366,-1.9063,-1.976,-2.014,-2.0624,-2.1155,-2.1155,-2.1442,-2.1983,-2.267,-2.3584,-2.452,-2.5056,-2.5695,-2.6183,-2.4116,-2.296,-2.2386,-2.1135,-2.0572,-2.0504,-2.0859,-2.0768,-2.0618,-2.1732,-2.187,-2.1477,-2.0848,0.0,-1.9884,-1.7867,0.0,0.0,0.0,0.0,-1.858,-1.9436,0.0,-2.0354,-2.071,-2.0699,-2.0607,-2.0607,-2.0217,-1.9402,0.0,-1.7383,-1.7008,-1.6208,0.0,0.0,0.0,0.0,-1.8129,-1.9446,-2.0542,-2.1092,-2.0789,-2.108,-2.0857,-1.9747,-1.9508,-1.9143,-1.854,-1.8498,-1.8498,-1.8498,-1.8063,-1.7626,-1.7152,0.0,0.0,0.0,0.0,0.0,0.0,0.0,0.0,0.0,0.0,0.0,0.0,0.0,0.0,0.0,0.0,0.0,0.0,0.0,0.0,0.0,0.0,0.0,0.0,0.0,0.0,0.0,0.0,0.0,-1.2344,-1.3889,0.0,0.0,0.0,0.0,-1.4387,-1.579,-1.6862,-1.7321,-1.8119,-1.8935,-1.971,-2.014,-2.0594,-2.1016,-2.1394,-2.2082,-2.2994,-2.2994,-2.3438,-2.4329,-2.4382,-2.4435,-2.4531,-2.5389,-2.5786,-2.5801,-2.5095,-2.4522,-2.4028,-2.3442,-2.296,-2.2569,-2.2592,-2.2581,-2.2569,-2.265,-2.2627,-2.2673,-2.3075,-2.257,-2.1665,-2.1121,-2.0281,0.0,0.0,-2.0607,-2.1132,-2.164,-2.1768,-2.1791,-2.1814,-2.1479,-2.1155,-2.1155,-2.0733,-2.0056,0.0,-1.8396,-1.8187,-1.8635,0.0,-1.7555,-1.8945,-1.8849,-1.8995,-2.002,-2.0616,-2.114,-2.1679,-2.148,-2.104,-2.04,-1.9775,-1.9143,-1.854,-1.8498,-1.8498,-1.8498,-1.847,-1.8262,-1.7863,-1.676,0.0,0.0,0.0,0.0,0.0,0.0,0.0,0.0,0.0,0.0,0.0,0.0,0.0,0.0,0.0,0.0,0.0,0.0,0.0,0.0,0.0,0.0,0.0,0.0,0.0,0.0,0.0,0.0,-1.3841,-1.4975,0.0,0.0,-1.5386,-1.6037,-1.6404,-1.7449,-1.8366,-1.9026,-1.9815,-2.0393,-2.0677,-2.1046,-2.133,-2.1467,-2.1623,-2.1865,-2.2201,-2.2201,-2.2378,-2.2731,-2.3323,-2.393,-2.4541,-2.4829,-2.5631,-2.6618,-2.5824,-2.556,-2.5651,-2.5107,-2.4786,-2.4625,-2.4625,-2.4625,-2.4579,-2.4235,-2.412,-2.4051,-2.3556,-2.2937,-2.2375,-2.2224,-2.1926,-2.1684,-2.1824,-2.204,-2.2213,-2.2363,-2.2409,-2.2329,-2.1974,-2.1757,-2.1571,-2.127,-2.1052,-2.0822,-2.0454,-2.0176,-1.9775,-1.9248,-1.932,-1.9549,-1.9841,-1.9756,-1.9973,-2.086,-2.1264,-2.1558,-2.1779,-2.1848,-2.1631,-2.1026,-2.04,-1.9761,-1.9129,-1.8708,-1.8498,-1.8498,-1.8498,-1.8424,-1.8295,-1.7858,-1.6695,0.0,0.0,0.0,0.0,0.0,0.0,0.0,0.0,0.0,0.0,0.0,0.0,0.0,0.0,0.0,0.0,0.0,0.0,0.0,0.0,0.0,0.0,0.0,0.0,0.0,0.0,-1.3867,-1.4965,-1.6111,-1.6656,-1.6257,-1.6985,-1.7752,-1.8275,-1.9063,-1.9751,-2.0301,-2.0961,-2.1319,-2.1319,-2.1549,-2.1696,-2.1696,-2.1696,-2.1865,-2.2157,-2.2157,-2.2501,-2.3096,-2.3737,-2.451,-2.539,-2.539,-2.6071,-2.7149,-2.6528,-2.646,-2.6691,-2.6347,-2.6232,-2.6209,-2.6037,-2.5968,-2.5888,-2.5371,-2.5061,-2.4809,-2.4118,-2.3603,-2.319,-2.319,-2.319,-2.319,-2.319,-2.319,-2.319,-2.319,-2.3064,-2.2857,-2.2479,-2.2146,-2.1802,-2.1491,-2.1316,-2.119,-2.119,-2.0969,-2.061,-1.9972,-2.0382,-2.072,-2.0453,-2.0533,-2.0784,-2.1104,-2.1375,-2.1568,-2.1664,-2.1926,-2.1862,-2.1336,-2.0759,-2.0119,-1.9432,-1.8835,-1.8498,-1.8498,-1.8581,-1.8639,-1.8639,-1.8345,-1.7343,-1.5609,0.0,0.0,0.0,0.0,0.0,0.0,0.0,0.0,0.0,0.0,0.0,0.0,0.0,0.0,0.0,0.0,0.0,0.0,0.0,0.0,0.0,0.0,0.0,-1.3252,-1.4396,-1.5318,-1.5742,-1.7367,-1.8125,-1.736,-1.8879,-1.9921,-1.9921,-2.0686,-2.1126,-2.1126,-2.1476,-2.1696,-2.1696,-2.1696,-2.1696,-2.1696,-2.1696,-2.2167,-2.3052,-2.3052,-2.3986,-2.5652,-2.5735,-2.6216,-2.7067,-2.7138,-2.7149,-2.7149,-2.7149,-2.719,-2.719,-2.719,-2.719,-2.7121,-2.6668,-2.6513,-2.6432,-2.5911,-2.5383,-2.4935,-2.4935,-2.4613,-2.4212,-2.4212,-2.4212,-2.42,-2.42,-2.42,-2.42,-2.42,-2.3797,-2.343,-2.3407,-2.2639,-2.1917,-2.1894,-2.1525,-2.119,-2.1221,-2.0799,-2.0576,-2.0966,-2.1052,-2.1011,-2.0873,-2.1249,0.0,-2.0804,-2.0924,-2.1133,-2.1399,-2.1664,-2.1676,-2.1364,-2.0773,-2.0133,-1.946,-1.8849,-1.8512,-1.8526,-1.8769,-1.8927,-1.8946,-1.8227,-1.7348,-1.63,0.0,0.0,0.0,0.0,0.0,0.0,0.0,0.0,0.0,0.0,0.0,0.0,0.0,0.0,0.0,0.0,0.0,0.0,0.0,0.0,0.0,0.0,-1.4416,-1.4325,-1.5273,-1.6397,-1.7541,-1.8475,-1.9057,-1.9087,-2.0105,-2.0702,-2.0582,-2.1142,-2.1522,-2.1522,-2.1632,-2.1696,-2.1696,-2.1696,-2.1696,-2.1696,-2.1696,-2.182,-2.2069,-2.2069,-2.2334,-2.2887,-2.4221,-2.4648,-2.4296,-2.5621,-2.6174,-2.6174,-2.6174,-2.6569,-2.719,-2.719,-2.719,-2.7167,-2.707,-2.6783,-2.6478,-2.6341,-2.5922,-2.5497,-2.5497,-2.5142,-2.4717,-2.4717,-2.4476,-2.42,-2.42,-2.42,-2.42,-2.42,-2.4097,-2.389,-2.3499,-2.2914,-2.2375,-2.1974,-2.1525,-2.1316,-2.1639,-2.1584,-2.1495,-2.1577,-2.2142,-2.2459,-2.2027,0.0,0.0,-2.1624,-2.1798,-2.1873,-2.1705,-2.1926,-2.2044,-2.1969,-2.099,-2.033,0.0,-1.9101,-1.8694,-1.9143,-1.9204,-1.9469,-1.9923,-1.9244,-1.8747,0.0,0.0,0.0,0.0,0.0,0.0,0.0,0.0,0.0,0.0,0.0,0.0,0.0,0.0,0.0,0.0,0.0,0.0,0.0,0.0,0.0,0.0,-1.4804,-1.5968,-1.6071,-1.6607,-1.7385,-1.8371,-1.9169,-1.9726,-1.9912,-2.0613,-2.1057,-2.1031,-2.139,-2.1607,-2.1696,-2.1696,-2.1696,-2.1696,-2.1696,-2.1696,-2.1696,-2.1696,-2.1696,-2.1696,-2.2122,-2.2511,-2.2896,-2.4392,-2.4946,0.0,-2.5924,-2.6393,-2.6393,-2.6393,-2.6704,0.0,0.0,0.0,0.0,0.0,-2.7047,-2.6783,-2.6783,-2.645,-2.6026,-2.6026,-2.567,-2.5245,-2.5245,-2.505,-2.4786,-2.4568,-2.4499,-2.4453,-2.4246,-2.42,-2.412,-2.3797,-2.3374,-2.2914,-2.2593,-2.1996,-2.164,-2.2139,0.0,0.0,-2.2444,-2.2925,-2.308,-2.2526,-2.2602,-2.2585,0.0,-2.2324,-2.2365,-2.2054,-2.2252,-2.2347,-2.2198,-2.1336,0.0,0.0,0.0,-1.95,-1.9968,-1.9997,0.0,0.0,0.0,0.0,0.0,0.0,0.0,0.0,-1.9363,-1.9783,0.0,0.0,0.0,0.0,0.0,0.0,0.0,0.0,0.0,0.0,0.0,0.0,0.0,0.0,0.0,0.0,-1.6122,-1.7265,-1.8017,-1.8162,-1.8307,-1.8674,-1.954,-2.0114,-2.0113,-2.0668,-2.1096,-2.1302,-2.1347,-2.1482,-2.1597,0.0,0.0,0.0,0.0,-2.1696,-2.1696,-2.1696,-2.1696,-2.1687,-2.2545,-2.3367,-2.4241,-2.5189,-2.6049,-2.6757,-2.7056,-2.7138,-2.7056,-2.7149,-2.719,-2.719,-2.719,-2.719,-2.719,-2.719,-2.719,0.0,0.0,0.0,0.0,-2.6593,-2.6209,-2.5796,-2.5796,-2.5761,-2.5601,-2.5061,-2.4912,-2.4809,-2.4315,-2.42,-2.42,-2.42,-2.3774,-2.3407,-2.3407,-2.2651,-2.2161,-2.2677,-2.2735,-2.2873,-2.3403,-2.3492,-2.3314,-2.2763,-2.3031,0.0,-2.2597,-2.2736,-2.279,-2.2468,0.0,0.0,-2.2339,-2.1744,-2.1364,-2.1316,-2.0801,-2.0599,-2.0854,-2.0911,-2.1079,-2.1322,-2.166,-2.1919,-2.2073,-2.2978,-2.3486,-2.3594,-2.1735,-2.1827,0.0,0.0,0.0,0.0,0.0,0.0,0.0,0.0,0.0,0.0,0.0,0.0,0.0,0.0,0.0,-1.6302,-1.7197,-1.8042,-1.8845,-1.9222,-1.9401,-1.9469,-1.9869,-2.013,-2.0245,-2.0692,-2.0952,-2.0835,-2.1212,-2.1338,-2.1132,-2.1338,0.0,-2.1482,-2.1482,-2.1526,-2.1696,-2.1696,-2.1696,-2.1696,0.0,0.0,-2.2299,-2.3973,-2.4445,-2.3996,-2.6238,-2.6745,-2.6133,-2.688,-2.719,-2.719,-2.719,-2.719,-2.719,-2.719,-2.719,-2.719,-2.719,-2.7121,-2.7041,-2.7041,-2.6737,-2.6363,-2.6363,-2.6037,0.0,-2.5061,-2.4912,-2.4809,-2.4315,-2.42,-2.42,-2.42,-2.3774,-2.3407,-2.3407,-2.296,-2.2678,-2.3156,-2.324,-2.3406,-2.3896,-2.3966,-2.3927,-2.381,-2.3855,-2.3778,-2.3411,-2.3401,-2.342,-2.3353,-2.3387,-2.3292,-2.2947,-2.2376,-2.1814,-2.1344,-2.1181,-2.1155,-2.1185,-2.1665,-2.1949,-2.2018,-2.2087,-2.2682,-2.3815,-2.3999,-2.465,-2.5696,-2.4779,-2.4548,0.0,0.0,0.0,0.0,0.0,0.0,0.0,0.0,0.0,0.0,0.0,-1.3982,-1.4555,0.0,-1.6593,-1.7316,-1.8108,-1.8802,-1.9384,-1.958,-1.97,-1.97,-1.9995,-2.0221,-2.0275,-2.051,-2.0645,-2.0699,-2.0934,-2.1015,-2.0997,-2.1248,-2.1392,-2.1392,-2.1392,-2.1437,-2.1571,-2.1571,-2.1571,-2.1571,-2.2122,-2.2413,-2.2457,-2.3844,-2.4231,-2.3877,-2.5253,-2.5852,-2.5872,-2.6787,-2.719,-2.719,-2.719,-2.719,-2.719,-2.719,-2.719,-2.719,-2.719,-2.719,-2.719,-2.719,-2.7059,-2.6852,-2.6852,-2.6668,-2.637,-2.5842,-2.5509,-2.5199,-2.4682,-2.4372,-2.42,-2.42,-2.4005,-2.3786,-2.3786,-2.342,-2.3109,-2.3358,-2.322,-2.3198,-2.3671,-2.376,-2.3819,-2.4054,-2.4083,-2.4037,-2.3866,-2.3983,-2.394,-2.3636,-2.3742,-2.3721,-2.3381,-2.322,-2.3009,-2.2714,-2.2686,-2.2686,-2.2686,-2.2981,-2.3164,-2.3152,-2.3506,-2.4052,-2.4754,-2.516,-2.5872,-2.6857,-2.6518,-2.6349,0.0,0.0,0.0,0.0,0.0,0.0,0.0,0.0,-1.3665,-1.4179,-1.5009,-1.5788,-1.6259,-1.7081,-1.7834,-1.8247,-1.8879,-1.9418,-1.9751,-1.9802,-1.9802,-1.9802,-2.0112,-2.0292,-2.0292,-2.0292,-2.0382,-2.0609,-2.0654,-2.0736,-2.0862,-2.1105,-2.1293,-2.1374,-2.1374,-2.1455,-2.1626,-2.1626,-2.1626,-2.1717,-2.2615,-2.3002,-2.2959,-2.3931,-2.4313,-2.4231,-2.4616,-2.5158,-2.5872,-2.6787,-2.719,-2.719,-2.719,-2.719,-2.719,-2.719,-2.719,-2.719,-2.719,-2.719,-2.719,-2.719,-2.719,-2.719,-2.719,-2.719,-2.7087,-2.6651,-2.6175,-2.5716,-2.5084,-2.4625,-2.4315,-2.4212,-2.42,-2.42,-2.42,-2.3843,-2.3571,-2.3551,-2.3259,-2.3075,-2.3366,-2.3465,-2.3667,-2.4037,-2.4083,-2.4083,-2.4083,-2.429,-2.4264,-2.3801,-2.4024,-2.4069,-2.38,-2.397,-2.4092,-2.4092,-2.4092,-2.4092,-2.4092,-2.4092,-2.4129,-2.4204,-2.4869,-2.5313,-2.5479,-2.6229,-2.6934,-2.7596,-2.7596,-2.7596,-0.922,-0.9564,-1.0491,-1.1906,-1.2538,-1.3335,0.0,0.0,-1.578,-1.6853,-1.7162,-1.7471,-1.8143,-1.8374,-1.8699,-1.9392,-1.958,-1.9768,-2.018,-2.0232,-2.0232,-2.0232,-2.0266,-2.0292,-2.0292,-2.0292,-2.0292,-2.0337,-2.0564,-2.0609,-2.0382,-2.0609,-2.0902,-2.1206,-2.1215,-2.1567,-2.2391,-2.2391,-2.2485,-2.272,-2.286,-2.276,-2.2436,-2.3377,-2.3609,-2.3357,-2.4978,-2.5694,-2.5872,-2.6787,-2.719,-2.719,-2.719,-2.719,-2.719,-2.719,-2.719,-2.719,-2.719,-2.719,-2.719,-2.719,-2.719,-2.719,-2.719,-2.719,-2.7087,-2.6651,-2.6467,-2.6191,-2.5164,-2.4866,-2.4728,-2.4292,-2.42,-2.42,-2.42,-2.4154,-2.4103,-2.4118,-2.408,-2.3915,-2.3475,-2.376,-2.404,-2.4103,-2.4083,-2.4083,-2.4083,-2.4112,-2.4218,-2.4372,-2.4416,-2.4443,-2.4393,-2.4221,-2.4092,-2.4092,-2.4092,-2.4092,-2.4092,-2.4092,-2.423,-2.454,-2.499,-2.564,-2.6534,-2.7047,-2.7626,-2.8288,-2.8288,-2.8288,-1.124,-1.1475,0.0,0.0,-1.4213,-1.5186,-1.6182,-1.6739,-1.7295,-1.798,-1.8346,-1.8527,-1.8571,-1.8956,-1.929,0.0,-1.9778,-2.0121,-2.0275,-2.0292,-2.0215,-2.0001,-2.0163,-2.0292,-2.0292,-2.0292,-2.0292,-2.0292,-2.0643,-2.0773,-2.068,-2.111,-2.1386,-2.1552,-2.156,-2.1733,-2.2081,-2.2081,-2.2138,-2.2271,-2.2375,-2.2342,-2.2209,-2.252,-2.2496,-2.2378,-2.3651,-2.4553,-2.5115,-2.6008,-2.6704,-2.719,-2.719,-2.719,-2.719,-2.719,-2.719,-2.719,-2.719,-2.719,-2.719,-2.719,-2.719,-2.719,-2.719,-2.719,-2.7144,-2.6967,-2.6691,-2.6398,-2.5961,-2.5371,-2.4866,-2.4659,-2.4395,-2.42,-2.42,-2.42,-2.4123,-2.3793,-2.3723,-2.3558,-2.3071,-2.3389,-2.3673,-2.3688,-2.3936,-2.4083,-2.4083,-2.4083,-2.4141,-2.4274,-2.4421,-2.4587,-2.4763,-2.4859,-2.4989,-2.5135,-2.5161,-2.5161,-2.5161,-2.5161,-2.5331,-2.5693,-2.61,-2.6659,-2.7353,-2.7773,-2.8134,-2.8411,-2.8812,-2.8972,-1.2398,0.0,0.0,-1.4292,-1.5564,-1.6644,-1.6928,-1.7689,-1.8425,-1.8691,-1.9016,-1.9127,-1.8802,-1.9204,-1.953,-1.9358,-1.9787,-2.0172,-2.0275,-2.0292,-2.0189,-1.9879,-2.0129,-2.0292,-2.0292,-2.0292,-2.0292,-2.0292,-2.066,-2.0883,-2.0883,-2.1406,-2.1744,-2.1856,-2.1865,-2.1957,-2.2109,-2.2109,-2.2158,-2.2254,-2.2408,-2.2403,-2.224,-2.1962,-2.1698,-2.1544,-2.2492,-2.3487,-2.4445,-2.5358,-2.631,-2.719,-2.719,-2.719,-2.719,-2.719,-2.719,-2.719,-2.719,-2.719,-2.719,-2.719,-2.719,-2.719,-2.719,-2.719,-2.719,-2.719,-2.6967,-2.6645,-2.6536,-2.5807,-2.5096,-2.4946,-2.4545,-2.42,-2.42,-2.42,-2.4097,-2.3682,-2.3614,-2.3479,-2.296,-2.3158,-2.3394,-2.3391,-2.3701,-2.3936,-2.4083,-2.4083,-2.4083,-2.4083,-2.4421,-2.4736,-2.4977,-2.5397,-2.5702,-2.5893,-2.5893,-2.5893,-2.5893,-2.5893,-2.6056,-2.6324,-2.6733,-2.7251,-2.791,-2.8312,-2.8642,-2.8965,-2.9433,-2.9756,0.0,0.0,-1.4225,-1.5381,-1.6456,-1.7474,-1.8351,-1.8845,-1.9187,-1.9196,-1.9204,-1.9213,-1.9204,-1.9213,-1.9307,-1.9623,-1.97,-1.9836,-2.024,-2.0292,-2.0292,-2.0275,-2.0283,-2.0292,0.0,-2.0292,-2.0292,-2.0292,-2.066,-2.0883,-2.0883,-2.1216,-2.1585,-2.197,-2.1978,-2.2298,-2.2961,-2.2961,-2.3111,-2.3361,-2.3361,-2.3116,-2.2669,-2.1955,-2.1378,-2.1078,-2.1996,-2.3042,-2.4178,-2.5105,-2.6185,-2.719,-2.719,-2.719,-2.719,-2.719,-2.719,-2.719,-2.719,-2.719,-2.719,-2.719,-2.719,-2.719,-2.719,-2.719,-2.719,-2.719,-2.7179,-2.7093,-2.6639,-2.6083,-2.5555,-2.5038,-2.4545,-2.42,-2.42,-2.42,-2.4189,-2.4177,-2.4177,-2.4016,-2.3488,-2.3372,-2.3389,-2.3406,-2.3398,-2.3582,-2.4024,-2.4083,-2.4083,-2.4083,-2.462,-2.4977,-2.5005,-2.5536,-2.5893,-2.5893,-2.5893,-2.5893,-2.5893,-2.5893,-2.5921,-2.5921,-2.6297,-2.7053,-2.819,-2.8584,-2.9321,-3.034,-3.0356,-3.0735,0.0,0.0,-1.4714,-1.6349,-1.7369,-1.8194,-1.9108,-1.9409,-1.9512,-1.9512,-1.9144,-1.8708,-1.8459,-1.8614,-1.8828,-1.8956,-1.9366,-1.9828,-2.024,-2.0292,-2.0198,-1.9913,-2.0146,0.0,0.0,0.0,0.0,-2.0292,-2.0874,-2.1234,-2.1234,-2.1824,-2.2276,-2.2405,-2.2414,-2.2524,-2.2745,-2.2745,-2.2795,-2.2846,-2.2846,-2.2746,-2.2402,-2.1935,-2.1853,-2.2089,-2.2419,-2.3444,-2.4882,-2.5453,-2.631,-2.719,-2.6839,-2.6921,-2.7149,-2.6839,-2.6921,-2.719,-2.719,-2.719,-2.719,-2.719,-2.719,-2.719,-2.719,-2.719,-2.719,-2.719,-2.719,-2.7144,-2.7013,-2.66,-2.6083,-2.5566,-2.505,-2.4579,-2.4269,-2.42,-2.42,-2.42,-2.42,-2.4039,-2.3499,-2.3711,-2.3932,-2.386,-2.3854,-2.3907,-2.4083,-2.4083,-2.4083,-2.4083,-2.4434,-2.4765,-2.4977,-2.5383,-2.5702,-2.5893,-2.5893,-2.5893,-2.5893,-2.5893,-2.6213,-2.6884,-2.7021,-2.7637,-2.8719,-2.9179,-2.9565,-2.9966,-3.0727,-3.1182,-1.4224,-1.5035,-1.5787,-1.7262,-1.8234,-1.8983,-1.9754,-1.9794,-1.958,-1.9179,-1.8631,-1.7989,-1.7355,-1.7432,-1.7766,-1.8305,-1.876,-1.9366,-2.018,-2.0292,-2.0198,-1.9966,-2.0275,0.0,0.0,0.0,0.0,-2.03,-2.0985,-2.1413,-2.1413,-2.2182,-2.2594,-2.2594,-2.2594,-2.2594,-2.2594,-2.2594,-2.2594,-2.2594,-2.2594,-2.2447,-2.2166,-2.1826,-2.1766,-2.2025,-2.2182,-2.3173,-2.4744,-2.5062,-2.5966,-2.7149,-2.6663,-2.6798,-2.7149,-2.688,-2.6921,-2.719,-2.719,-2.719,-2.719,-2.719,-2.719,-2.719,-2.719,-2.719,-2.719,-2.719,-2.719,-2.719,-2.719,-2.6852,-2.6421,-2.606,-2.5429,-2.4832,-2.4522,-2.4315,-2.42,-2.42,-2.42,-2.4097,-2.3728,-2.412,-2.4398,-2.4165,-2.4299,-2.4347,-2.4122,-2.4083,-2.4083,-2.4083,-2.4463,-2.4765,-2.4977,-2.5383,-2.573,-2.5893,-2.6104,-2.6217,-2.6217,-2.6441,-2.6877,-2.7527,-2.7527,-2.8067,-2.9127,-2.9451,-2.9876,-3.0418,-3.1171,-3.1615,-1.4866,-1.602,-1.734,-1.8108,-1.8982,-1.9729,-2.0175,-1.9949,-1.9298,-1.817,-1.7629,-1.7033,0.0,0.0,-1.6276,-1.7701,-1.8,-1.8572,-2.0086,-2.0309,-2.0317,0.0,0.0,0.0,0.0,0.0,0.0,-2.0377,0.0,-2.1422,-2.1439,-2.2191,-2.2594,-2.2594,-2.2594,-2.2594,-2.2594,-2.2594,-2.2594,-2.2594,-2.2594,-2.2414,-2.2013,-2.1593,-2.1225,-2.1023,-2.1319,-2.2306,-2.3793,-2.4039,-2.5326,-2.7056,-2.661,-2.6745,-2.7149,-2.7149,-2.7149,-2.719,-2.719,-2.719,-2.719,-2.719,-2.719,-2.719,-2.719,-2.719,-2.719,-2.719,-2.719,-2.719,-2.719,-2.6864,-2.6536,-2.6513,-2.5716,-2.4981,-2.4923,-2.4556,-2.4223,-2.42,-2.42,-2.42,-2.42,-2.46,-2.4777,-2.4304,-2.4645,-2.4775,-2.42,-2.4109,-2.4083,-2.4083,-2.4607,-2.4977,-2.5005,-2.5536,-2.5907,-2.5936,-2.6483,-2.6821,-2.6849,-2.7453,-2.7819,-2.7862,-2.7862,-2.8349,-2.9404,-2.9419,-3.0207,-3.161,-3.1638,-3.1894,-1.5508,-1.6784,-1.8092,-1.8536,-1.9123,-1.9662,-1.9807,-1.911,-1.8196,-1.7342,-1.6242,-1.5215,0.0,0.0,0.0,-1.7009,-1.8143,0.0,-2.0163,-2.0549,0.0,-2.0728,0.0,-2.1234,-2.1131,-2.1216,0.0,0.0,-2.1302,-2.1533,-2.1833,-2.2345,-2.2594,-2.2594,-2.2594,-2.2594,-2.2594,-2.2594,-2.2594,-2.2594,-2.2594,-2.2551,-2.2431,-2.1713,-2.164,-2.2075,-2.1907,-2.2385,-2.3347,-2.4243,-2.5147,-2.5924,-2.5653,-2.5988,-2.6622,-2.6354,-2.6426,-2.6745,-2.7097,-2.719,-2.719,-2.719,-2.719,-2.719,-2.719,-2.719,-2.719,-2.719,-2.719,-2.719,-2.719,-2.7087,-2.6932,-2.6593,-2.6306,-2.5853,-2.5084,-2.482,-2.4625,-2.4269,-2.42,-2.42,-2.42,-2.3977,-2.4035,-2.4698,-2.457,-2.4501,-2.4728,-2.4387,-2.4083,-2.4083,-2.4434,-2.4736,-2.4977,-2.5369,-2.5869,-2.6526,-2.6722,-2.7017,-2.7509,-2.7721,-2.8016,-2.845,-2.8464,-2.882,-2.9549,-2.99,-3.0274,-3.0673,-3.1029,-3.1248,-1.6204,-1.7255,-1.8308,-1.8688,-1.9074,-1.9276,-1.9024,-1.8205,-1.7154,-1.5934,-1.4872,0.0,0.0,0.0,0.0,0.0,0.0,0.0,-1.9898,-2.0377,-2.0686,0.0,-2.1191,0.0,-2.1413,-2.1567,-2.167,0.0,-2.167,-2.1764,-2.1987,-2.2397,-2.2594,-2.2594,-2.2594,-2.2594,-2.2594,-2.2594,-2.2594,-2.2594,-2.2594,-2.2594,-2.2568,-2.1756,-2.1644,-2.202,0.0,-2.2085,-2.2702,-2.379,-2.4606,-2.5179,-2.5179,-2.5622,-2.6249,-2.6177,-2.629,-2.6569,-2.7056,-2.719,-2.719,-2.719,-2.719,-2.719,-2.719,-2.719,-2.719,-2.719,-2.719,-2.719,-2.719,-2.719,-2.7121,-2.6864,-2.6634,-2.6283,-2.544,-2.5084,-2.4774,-2.4292,-2.42,-2.42,-2.42,-2.4163,-2.439,-2.5269,-2.5094,-2.5093,-2.5652,-2.5001,-2.4596,-2.4801,-2.4889,-2.5146,-2.5722,-2.6082,-2.6521,-2.7214,-2.7481,-2.779,-2.8199,-2.8436,-2.8745,-2.9083,-2.9083,-2.9265,-2.9602,-2.9867,-3.0113,-3.0312,-3.0583,-3.0792,-1.6921,-1.7644,-1.8272,-1.8689,-1.8843,-1.8742,-1.7975,-1.7226,-1.6173,-1.4324,0.0,-1.3074,-1.2372,0.0,-1.3939,-1.5471,0.0,-1.7946,-1.9477,-2.0061,-2.0454,-2.09,-2.1268,-2.1508,-2.1559,-2.1867,-2.2073,-2.2073,-2.2073,-2.2073,-2.2073,-2.2422,-2.2594,-2.2594,-2.2594,-2.2594,-2.2594,-2.2594,-2.2594,-2.2594,-2.2594,-2.2594,-2.2568,-2.1756,-2.1413,-2.141,0.0,0.0,-2.1863,-2.2828,-2.3767,-2.4575,-2.4744,-2.5242,-2.5853,-2.6071,-2.6268,-2.6498,-2.6974,-2.7149,-2.719,-2.719,-2.719,-2.719,-2.719,-2.719,-2.719,-2.719,-2.719,-2.719,-2.719,-2.719,-2.719,-2.719,-2.6887,-2.6416,-2.5842,-2.5245,-2.4694,-2.4281,-2.42,-2.42,-2.42,-2.4599,-2.5087,-2.5674,-2.5729,-2.5932,-2.6616,-2.5754,-2.5275,-2.5741,-2.5581,-2.5808,-2.6728,-2.701,-2.7363,-2.7888,-2.8394,-2.8731,-2.8816,-2.9321,-2.9602,-2.9602,-2.9602,-2.9602,-2.9602,-2.9602,-2.982,-3.0205,-3.0205,-3.0433,-1.7827,-1.8375,-1.8689,-1.8781,-1.8649,-1.8224,-1.7185,-1.6166,0.0,0.0,0.0,-1.1968,-1.1576,-1.2374,0.0,-1.5069,0.0,0.0,0.0,0.0,-2.0549,0.0,0.0,0.0,0.0,0.0,0.0,0.0,0.0,0.0,-2.25,-2.256,-2.2594,-2.2594,-2.2594,-2.2594,-2.2594,-2.2594,-2.2594,-2.2594,-2.2594,-2.2594,-2.2568,-2.1756,-2.1413,-2.1371,0.0,0.0,-2.0645,-2.1445,-2.2403,-2.3347,-2.3008,-2.3877,-2.5242,-2.4701,-2.5137,-2.6063,-2.6498,-2.688,-2.719,-2.719,-2.719,-2.719,-2.719,-2.719,-2.719,-2.719,-2.719,-2.719,-2.719,-2.719,-2.719,-2.719,-2.7121,-2.6841,-2.5911,-2.4981,-2.4292,-2.4212,-2.42,-2.42,-2.42,-2.4261,-2.4539,-2.5087,-2.5145,-2.5505,-2.6574,-2.6084,-2.572,-2.578,-2.5764,-2.6003,-2.6738,-2.6829,-2.7363,-2.8463,-2.8633,-2.8914,-2.942,-2.9546,-2.9602,-2.9602,-2.9602,-2.9602,-2.9602,-2.9602,-2.9634,-2.9727,-2.9727,-2.9758,-1.7699,-1.8322,-1.8688,-1.8278,-1.8157,-1.7713,-1.5983,0.0,0.0,0.0,0.0,-1.149,-1.1336,0.0,0.0,0.0,0.0,0.0,0.0,0.0,0.0,0.0,0.0,0.0,0.0,0.0,0.0,0.0,0.0,0.0,-2.2594,-2.2594,-2.2594,-2.2594,-2.2594,-2.2594,-2.2594,-2.2594,-2.2594,-2.2594,-2.2594,-2.25,-2.2294,-2.167,-2.1311,-2.1105,-2.0531,0.0,-2.0382,-2.1096,-2.1704,-2.2227,-2.235,-2.2965,-2.3747,-2.4006,-2.4488,-2.5105,-2.5915,-2.6354,-2.6561,-2.6757,-2.7003,-2.719,-2.719,-2.719,-2.719,-2.719,-2.719,-2.719,-2.719,-2.719,-2.719,-2.719,-2.7024,-2.6634,-2.5876,-2.5107,-2.4499,-2.4246,-2.42,-2.42,-2.42,-2.42,-2.4358,-2.4909,-2.5252,-2.5756,-2.6577,-2.669,-2.6681,-2.6681,-2.6438,-2.6609,-2.7422,-2.7624,-2.806,-2.8875,-2.9075,-2.9307,-2.9602,-2.9602,-2.9602,-2.9602,-2.9602,-2.9602,-2.9602,-2.9602,-2.9602,-2.9602,-2.9602,-2.9602,-1.7451,-1.8176,-1.8553,-1.7916,-1.7767,-1.7227,-1.5084,-1.4278,0.0,0.0,-1.1301,-1.1301,-1.1301,0.0,0.0,0.0,0.0,0.0,0.0,0.0,0.0,0.0,0.0,0.0,0.0,0.0,0.0,0.0,0.0,0.0,0.0,-2.2594,-2.2594,-2.2594,-2.2594,-2.2594,-2.2594,-2.2594,-2.2594,-2.2594,-2.2517,-2.2328,-2.1978,-2.1508,-2.1148,-2.0857,-2.0463,0.0,0.0,-2.0916,-2.1266,-2.1445,-2.1828,-2.2129,-2.2482,-2.3226,-2.3704,-2.4006,-2.4978,-2.5454,-2.5706,-2.6019,-2.6569,-2.7056,-2.719,-2.719,-2.719,-2.719,-2.719,-2.719,-2.719,-2.719,-2.719,-2.719,-2.6841,-2.6398,-2.5957,-2.5371,-2.4797,-2.443,-2.4269,-2.42,-2.42,-2.42,-2.4322,-2.4778,-2.5229,-2.5791,-2.644,-2.6918,-2.7255,-2.7503,-2.7131,-2.7203,-2.8039,-2.8341,-2.8651,-2.8972,-2.932,-2.9477,-2.9477,-2.954,-2.9602,-2.9602,-2.9602,-2.9602,-2.9602,-2.9602,-2.9602,-2.9602,-2.9602,-2.9602,-1.7848,-1.8274,-1.8343,-1.8258,-1.7782,-1.6858,-1.4939,0.0,0.0,-1.1619,-1.1301,-1.1301,-1.1301,-1.1361,0.0,0.0,0.0,0.0,0.0,0.0,0.0,0.0,0.0,0.0,0.0,0.0,0.0,0.0,0.0,0.0,0.0,-2.2594,-2.2594,-2.2594,-2.2594,-2.2594,-2.2594,-2.2594,-2.2594,-2.2594,-2.221,-2.203,-2.197,-2.1251,-2.0908,-2.0857,0.0,0.0,0.0,-2.0382,-2.0781,-2.1356,-2.0736,-2.1257,-2.235,-2.1828,-2.2315,-2.3226,-2.3313,-2.4039,-2.4925,-2.4957,-2.5704,-2.6663,-2.7056,-2.719,-2.719,-2.719,-2.719,-2.719,-2.719,-2.719,-2.719,-2.719,-2.6841,-2.649,-2.6444,-2.5612,-2.49,-2.4855,-2.4499,-2.42,-2.42,-2.42,-2.4236,-2.4261,-2.4334,-2.4754,-2.5826,-2.6035,-2.6414,-2.739,-2.7451,-2.7617,-2.8079,-2.8112,-2.8276,-2.8619,-2.8972,-2.9162,-2.9162,-2.9446,-2.9602,-2.9602,-2.9602,-2.9602,-2.9602,-2.9602,-2.9602,-2.9602,-2.9602,-2.9602,-1.7072,-1.8056,-1.8638,-1.7861,-1.7335,-1.6577,-1.4624,0.0,-1.2826,-1.1559,-1.1301,-1.1301,-1.1301,-1.1301,-1.1567,0.0,0.0,0.0,0.0,0.0,0.0,0.0,0.0,0.0,0.0,0.0,0.0,0.0,0.0,0.0,0.0,-2.2594,-2.2594,-2.2594,-2.2594,-2.2594,-2.2594,-2.2379,-2.2218,-2.221,-2.1824,-2.1533,-2.1311,-2.1011,-2.0754,-2.0514,0.0,0.0,0.0,-2.0292,-2.0473,-2.069,-2.0428,-2.0645,-2.1168,-2.1311,-2.1704,-2.2138,-2.2526,-2.328,-2.4069,-2.4296,-2.5168,-2.6218,-2.6663,-2.6787,-2.6839,-2.7108,-2.719,-2.719,-2.719,-2.719,-2.719,-2.719,-2.7082,-2.6841,-2.657,-2.5899,-2.5302,-2.4981,-2.4522,-2.42,-2.42,-2.42,-2.42,-2.42,-2.4467,-2.4838,-2.53,-2.5965,-2.6543,-2.6952,-2.7289,-2.757,-2.7736,-2.7947,-2.8145,-2.8276,-2.8619,-2.8876,-2.9099,-2.9226,-2.9383,-2.9602,-2.9602,-2.9602,-2.9602,-2.9602,-2.9602,-2.9602,-2.9602,-2.9602,-1.6016,-1.731,-1.8271,-1.7308,-1.6872,-1.6235,0.0,0.0,-1.2683,-1.1533,-1.1301,-1.1301,-1.1301,-1.1301,-1.1421,0.0,0.0,0.0,0.0,0.0,0.0,0.0,0.0,0.0,0.0,0.0,0.0,0.0,0.0,0.0,0.0,-2.2594,-2.2594,-2.2594,-2.2594,-2.2542,-2.2439,-2.2124,-2.1936,-2.1824,-2.143,-2.1122,-2.0921,-2.0754,-2.0557,-2.0292,0.0,0.0,0.0,-2.0292,-2.0292,-2.0292,-2.0292,-2.0292,-2.0382,-2.0871,-2.1087,-2.1132,-2.1606,-2.2413,-2.3222,-2.3487,-2.4531,-2.5759,-2.6207,-2.6498,-2.6787,-2.7097,-2.719,-2.719,-2.719,-2.719,-2.719,-2.719,-2.719,-2.7087,-2.6772,-2.6175,-2.5601,-2.5222,-2.4636,-2.42,-2.42,-2.42,-2.42,-2.42,-2.4539,-2.4802,-2.4981,-2.5687,-2.6255,-2.6427,-2.6803,-2.7154,-2.7456,-2.7769,-2.7914,-2.7914,-2.8276,-2.8587,-2.894,-2.9035,-2.9257,-2.9571,-2.9602,-2.9602,-2.9602,-2.9602,-2.9602,-2.9602,-2.9602,-2.9602,-1.4797,-1.5952,-1.6903,-1.6737,-1.6493,-1.5915,0.0,-1.3519,-1.2683,-1.1533,-1.1301,-1.1301,-1.1301,-1.1301,-1.1421,-1.1755,0.0,0.0,0.0,0.0,0.0,0.0,0.0,0.0,0.0,0.0,0.0,0.0,0.0,0.0,0.0,0.0,-2.2594,-2.2594,-2.2594,-2.2422,-2.2004,-2.1996,-2.1799,-2.1413,-2.1054,-2.0883,-2.0912,-2.048,-2.0292,0.0,0.0,0.0,0.0,-2.0292,-2.0292,-2.0292,-2.0292,-2.0292,-2.0292,-2.0292,-2.0292,-2.0292,-2.0337,-2.1257,-2.2394,-2.2438,-2.3661,-2.5285,-2.577,-2.652,-2.719,-2.719,-2.719,-2.719,-2.719,-2.719,-2.719,-2.719,-2.719,-2.719,-2.7179,-2.6427,-2.5716,-2.5704,-2.4889,-2.42,-2.42,-2.42,-2.42,-2.42,-2.42,-2.4394,-2.4945,-2.5004,-2.5264,-2.5849,-2.5896,-2.6346,-2.7423,-2.749,-2.749,-2.749,-2.7868,-2.8276,-2.8587,-2.8908,-2.9257,-2.9571,-2.9602,-2.9602,-2.9602,-2.9602,-2.9602,-2.9602,-2.9602,-2.9602,-1.3563,-1.4348,-1.5043,-1.5008,-1.4698,-1.4213,-1.3502,-1.2749,-1.1994,-1.143,-1.1301,-1.1301,-1.1301,-1.1301,-1.1593,-1.2475,-1.262,0.0,0.0,0.0,0.0,0.0,0.0,0.0,0.0,0.0,0.0,0.0,0.0,0.0,0.0,0.0,-2.2175,-2.2175,-2.2175,-2.1987,-2.1602,-2.1353,-2.1174,-2.1045,-2.066,-2.048,-2.0472,-2.0352,0.0,0.0,0.0,0.0,0.0,-2.0292,-2.0292,-2.0292,-2.0292,-2.0292,-2.0292,-2.0292,-2.0292,-2.0292,-2.0292,-2.0907,-2.1704,-2.1704,-2.2668,-2.3877,-2.4488,-2.5642,-2.6798,-2.7097,-2.719,-2.719,-2.719,-2.719,-2.719,-2.719,-2.719,-2.719,-2.719,-2.6427,-2.5716,-2.5716,-2.4889,-2.42,-2.42,-2.42,-2.42,-2.42,-2.42,-2.4261,-2.4431,-2.4767,-2.5075,-2.5252,-2.5639,-2.6186,-2.6884,-2.6952,-2.7121,-2.7503,-2.7636,-2.7868,-2.8243,-2.8587,-2.8908,-2.9257,-2.9477,-2.9602,-2.9602,-2.9602,-2.9602,-2.9602,-2.9602,-2.9602,0.0,-1.2939,-1.3445,-1.3606,-1.3389,-1.3063,-1.2699,-1.2204,-1.1704,-1.1378,-1.1226,-1.1175,-1.1276,-1.1226,-1.1404,-1.2218,-1.2458,0.0,0.0,0.0,0.0,0.0,0.0,0.0,0.0,0.0,0.0,0.0,0.0,0.0,0.0,0.0,-2.1713,-2.1576,-2.1704,-2.1593,-2.1216,-2.0994,-2.0805,-2.0651,-2.0412,-2.0292,-2.0292,-2.0292,0.0,0.0,0.0,0.0,0.0,-2.0292,-2.0292,-2.0292,-2.0292,-2.0292,-2.0292,-2.0292,-2.0292,-2.0292,-2.0292,-2.0781,-2.1401,-2.1401,-2.2183,-2.3226,-2.3823,-2.5147,-2.6569,-2.6839,-2.7056,-2.719,-2.719,-2.719,-2.719,-2.719,-2.719,-2.719,-2.719,-2.6427,-2.5716,-2.5716,-2.4889,-2.42,-2.42,-2.42,-2.42,-2.42,-2.42,-2.42,-2.42,-2.4503,-2.4707,-2.4707,-2.5016,-2.5488,-2.6013,-2.6255,-2.6645,-2.7154,-2.7188,-2.7536,-2.8276,-2.8503,-2.8812,-2.9289,-2.9477,-2.9602,-2.9602,-2.9602,-2.9602,-2.9602,-2.9602,-2.9602,0.0,-1.1602,-1.1996,-1.2351,-1.2408,-1.229,-1.1933,-1.1755,0.0,-1.1302,-1.1032,-1.0956,-1.1285,-1.1082,-1.0997,-1.1404,-1.1728,0.0,0.0,0.0,0.0,0.0,0.0,0.0,0.0,0.0,0.0,0.0,0.0,0.0,0.0,0.0,0.0,-2.0891,-2.1174,-2.1174,-2.084,-2.0886,-2.0651,-2.0292,-2.0292,-2.0292,-2.0292,-2.0292,0.0,0.0,0.0,0.0,0.0,-2.0292,-2.0292,-2.0292,-2.0292,-2.0292,-2.0292,-2.0292,-2.0292,-2.0292,-2.0292,-2.0736,-2.1311,-2.1311,-2.205,-2.3042,-2.3501,-2.4925,-2.6434,-2.6434,-2.6798,-2.719,-2.719,-2.719,-2.719,-2.719,-2.719,-2.719,-2.719,-2.6427,-2.5716,-2.5716,-2.4889,-2.42,-2.42,-2.42,-2.42,-2.42,-2.42,-2.42,-2.42,-2.42,-2.42,-2.42,-2.42,-2.4394,-2.4909,-2.5499,-2.6082,-2.6611,-2.6645,-2.7209,-2.8457,-2.8522,-2.8876,-2.954,-2.9571,-2.9602,-2.9602,-2.9602,-2.9602,-2.9602,-2.9602,-2.9602,-0.9082,0.0,-1.002,-0.9953,-1.0089,-1.023,0.0,-1.0283,-1.037,-1.0765,-1.0621,-1.0698,-1.1539,-1.1084,-1.1156,-1.2799,0.0,0.0,0.0,0.0,0.0,0.0,0.0,0.0,0.0,0.0,0.0,0.0,0.0,0.0,0.0,0.0,0.0,-2.0883,-2.0668,-2.0514,-2.0429,-2.0429,-2.0386,-2.0292,-2.0292,-2.0292,-2.0292,-2.0292,0.0,0.0,0.0,0.0,-2.0292,-2.0292,-2.0292,-2.0292,-2.0292,-2.0292,-2.0292,-2.0292,-2.0292,-2.0292,-2.0292,-2.0428,-2.0555,-2.0555,-2.1132,-2.1837,-2.1917,-2.3727,-2.5746,-2.5746,-2.6445,-2.719,-2.719,-2.719,-2.719,-2.719,-2.719,-2.719,-2.719,-2.6427,-2.5716,-2.5716,-2.4889,-2.42,-2.42,-2.42,-2.42,-2.42,-2.42,-2.42,-2.42,-2.42,-2.42,-2.42,-2.42,-2.4261,-2.4358,-2.4874,-2.5464,-2.6035,-2.607,-2.6517,-2.7497,-2.7796,-2.832,-2.9194,-2.9477,-2.9602,-2.9602,-2.9602,-2.9602,-2.9602,-2.9602,-2.9602,-0.8132,-0.8792,-0.9462,-0.9347,-0.964,-1.0012,-1.0261,-1.0213,-1.0246,-1.0688,0.0,0.0,0.0,0.0,0.0,0.0,0.0,0.0,0.0,0.0,0.0,0.0,0.0,0.0,0.0,0.0,0.0,0.0,0.0,0.0,0.0,0.0,0.0,0.0,-2.0403,-2.0292,-2.0292,-2.0292,-2.0292,-2.0292,-2.0292,-2.0292,-2.0292,-2.0292,0.0,0.0,0.0,0.0,-2.0292,-2.0292,-2.0292,-2.0292,-2.0292,-2.0292,-2.0292,-2.0292,-2.0292,-2.0292,-2.0292,-2.0292,-2.0292,-2.0292,-2.0555,-2.0916,-2.0916,-2.2296,-2.4061,-2.4925,-2.583,-2.6663,-2.7097,-2.719,-2.719,-2.719,-2.719,-2.719,-2.719,-2.6427,-2.5716,-2.5716,-2.4889,-2.42,-2.42,-2.42,-2.42,-2.42,-2.42,-2.42,-2.42,-2.42,-2.42,-2.42,-2.42,-2.42,-2.42,-2.4467,-2.4886,-2.5429,-2.5581,-2.6022,-2.6913,-2.7537,-2.8306,-2.932,-2.9509,-2.9602,-2.9602,-2.9602,-2.9602,-2.9602,-2.9602,-2.9602,-0.7871,-0.8698,-0.9577,-0.9413,-0.9844,-1.0367,-1.0571,0.0,0.0,0.0,0.0,0.0,0.0,-1.0874,0.0,0.0,0.0,0.0,0.0,0.0,0.0,0.0,0.0,0.0,0.0,0.0,0.0,0.0,0.0,0.0,0.0,0.0,0.0,0.0,-2.0292,-2.0292,-2.0292,-2.0292,-2.0292,-2.0292,-2.0292,-2.0292,-2.0292,-2.0292,0.0,0.0,0.0,0.0,-2.0292,-2.0292,-2.0292,-2.0292,-2.0292,-2.0292,-2.0292,-2.0292,-2.0292,-2.0292,-2.0292,-2.0292,-2.0292,-2.0292,-2.0292,-2.0292,-2.0292,-2.1078,-2.234,-2.4061,-2.5136,-2.5955,-2.688,-2.7149,-2.719,-2.719,-2.719,-2.719,-2.719,-2.6485,-2.5807,-2.5727,-2.4958,-2.4281,-2.4212,-2.42,-2.42,-2.42,-2.42,-2.42,-2.42,-2.42,-2.42,-2.42,-2.42,-2.42,-2.42,-2.42,-2.4394,-2.4838,-2.5028,-2.5604,-2.6697,-2.7591,-2.8565,-2.9571,-2.9602,-2.9602,-2.9602,-2.9602,-2.9602,-2.9602,-2.9602,-2.9602,-0.8415,-0.9065,-0.9424,-0.8619,-0.8923,-0.939,-0.9317,-0.925,0.0,0.0,0.0,0.0,0.0,0.0,0.0,0.0,0.0,0.0,0.0,0.0,0.0,0.0,0.0,0.0,0.0,0.0,0.0,0.0,0.0,0.0,0.0,0.0,0.0,-2.0292,-2.0292,-2.0292,-2.0292,-2.0292,-2.0292,-2.0292,-2.0292,-2.0292,-2.0292,-2.0292,-2.0292,0.0,0.0,-2.0292,-2.0292,-2.0292,-2.0292,-2.0292,-2.0292,-2.0292,-2.0292,-2.0292,-2.0292,-2.0292,-2.0292,-2.0292,-2.0292,-2.0292,-2.0292,-2.0292,-2.0292,-2.0997,-2.1952,-2.3042,-2.4414,-2.5704,-2.6445,-2.688,-2.719,-2.719,-2.719,-2.719,-2.719,-2.6772,-2.6221,-2.5796,-2.5222,-2.4682,-2.4269,-2.42,-2.42,-2.42,-2.42,-2.42,-2.42,-2.42,-2.42,-2.42,-2.42,-2.42,-2.42,-2.42,-2.4236,-2.4334,-2.437,-2.5111,-2.6782,-2.7861,-2.8776,-2.9571,-2.9602,-2.9602,-2.9602,-2.9602,-2.9602,-2.9602,-2.9602,-2.9602,-0.7814,-0.8494,-0.9051,-0.8794,-0.9493,-1.0289,-1.0551,-1.0361,0.0,0.0,0.0,0.0,0.0,0.0,0.0,0.0,0.0,0.0,0.0,0.0,0.0,0.0,0.0,0.0,0.0,0.0,0.0,0.0,0.0,0.0,0.0,0.0,0.0,0.0,-1.992,-2.0056,-2.0292,-2.0292,-2.0292,-2.0292,-2.0292,-2.0292,-2.0292,-2.0292,-2.0292,-2.0292,0.0,-2.0292,-2.0292,-2.0292,-2.0292,-2.0292,-2.0292,-2.0292,-2.0292,-2.0292,-2.0292,-2.0292,-2.0292,-2.0292,-2.0292,-2.0292,-2.0292,-2.0292,-2.0292,-2.06,-2.1132,-2.1961,-2.3521,-2.5168,-2.5957,-2.6498,-2.6839,-2.6839,-2.7015,-2.719,-2.719,-2.6829,-2.6352,-2.5807,-2.5279,-2.4763,-2.4281,-2.42,-2.42,-2.42,-2.42,-2.42,-2.42,-2.42,-2.42,-2.42,-2.42,-2.42,-2.42,-2.42,-2.4236,-2.4345,-2.4345,-2.4957,-2.6249,-2.6794,-2.7398,-2.8136,-2.8629,-2.9077,-2.9393,-2.9871,-3.0076,-3.0076,-3.0076,-2.9926,-0.7486,-0.8114,-0.8826,-0.9302,-1.0153,-1.1056,-1.1751,-1.1487,-1.13,0.0,0.0,0.0,0.0,0.0,0.0,0.0,0.0,0.0,0.0,0.0,0.0,0.0,0.0,0.0,0.0,0.0,0.0,0.0,0.0,0.0,0.0,0.0,0.0,0.0,-1.9546,-1.9783,-2.0147,-2.0246,-2.0292,-2.0292,-2.0292,-2.0292,-2.0292,-2.0292,-2.0292,-2.0292,-2.0292,-2.0292,-2.0292,-2.0292,-2.0292,-2.0292,-2.0292,-2.0292,-2.0292,-2.0292,-2.0292,-2.0292,-2.0292,-2.0292,-2.0292,-2.0292,-2.0292,-2.0292,-2.0292,-2.0419,-2.069,-2.1221,-2.2668,-2.4231,-2.5232,-2.5999,-2.6487,-2.6487,-2.6839,-2.719,-2.719,-2.6829,-2.6352,-2.5807,-2.5279,-2.4763,-2.4281,-2.42,-2.42,-2.42,-2.42,-2.42,-2.42,-2.42,-2.42,-2.42,-2.42,-2.42,-2.42,-2.42,-2.4273,-2.4418,-2.4454,-2.485,-2.572,-2.5777,-2.6146,-2.6883,-2.7624,-2.8226,-2.8746,-2.9704,-3.0141,-3.0034,-3.0349,-3.0231,-0.8334,-0.8633,-0.8904,-0.9811,-1.0104,-1.044,-1.1409,-1.1335,0.0,-1.2296,0.0,0.0,0.0,0.0,0.0,0.0,0.0,0.0,0.0,0.0,0.0,0.0,0.0,0.0,0.0,0.0,0.0,0.0,0.0,0.0,0.0,0.0,0.0,0.0,0.0,-1.9637,-1.9646,-2.0056,-2.0292,-2.0292,-2.0292,-2.0292,-2.0292,-2.0292,-2.0292,-2.0292,-2.0292,-2.0292,-2.0292,-2.0292,-2.0292,-2.0292,-2.0292,-2.0292,-2.0292,-2.0292,-2.0292,-2.0292,-2.0292,-2.0292,-2.0292,-2.0292,-2.0292,-2.0292,-2.0292,-2.0781,-2.1311,-2.1401,-2.1961,-2.2833,-2.3963,-2.5379,-2.6487,-2.6487,-2.6839,-2.719,-2.719,-2.6829,-2.6352,-2.5807,-2.5279,-2.4763,-2.4281,-2.42,-2.42,-2.42,-2.42,-2.42,-2.42,-2.42,-2.42,-2.42,-2.42,-2.42,-2.42,-2.42,-2.42,-2.4236,-2.4381,-2.4814,-2.5486,-2.5707,-2.6146,-2.6883,-2.6984,-2.7111,-2.7343,-2.8645,-2.9064,-2.867,-2.99,-3.0469,-0.7603,-0.8224,-0.8868,-0.9614,-1.0258,0.0,0.0,-1.2219,-1.2606,-1.3747,-1.3967,0.0,0.0,0.0,0.0,0.0,0.0,0.0,0.0,0.0,0.0,0.0,0.0,0.0,0.0,0.0,0.0,0.0,0.0,0.0,0.0,0.0,0.0,0.0,0.0,-1.8819,-1.9096,-1.9279,-1.9509,-1.9874,-2.0155,-2.0292,-2.0292,-2.0292,-2.0292,-2.0292,-2.0292,-2.0292,-2.0292,-2.0292,-2.0292,-2.0292,-2.0292,-2.0292,-2.0292,-2.0292,-2.0292,-2.0292,-2.0292,-2.0292,-2.0292,-2.0292,-2.0292,-2.0292,-2.0292,-2.051,-2.0736,-2.0736,-2.1221,-2.2104,-2.3387,-2.4573,-2.5579,-2.6041,-2.6685,-2.719,-2.719,-2.6829,-2.6352,-2.5807,-2.5279,-2.4763,-2.4281,-2.42,-2.42,-2.42,-2.42,-2.42,-2.42,-2.42,-2.42,-2.42,-2.42,-2.42,-2.42,-2.42,-2.42,-2.42,-2.4273,-2.4442,-2.4695,-2.4767,-2.4945,-2.5205,-2.5765,-2.6342,-2.6961,-2.8467,-2.9173,-2.9154,-3.0517,-3.0909,-0.7304,-0.8026,-0.886,-0.9585,0.0,0.0,-1.2562,-1.2921,-1.3433,-1.49,-1.4911,0.0,0.0,0.0,0.0,0.0,0.0,0.0,0.0,0.0,0.0,0.0,0.0,0.0,0.0,0.0,0.0,0.0,0.0,0.0,0.0,0.0,0.0,0.0,0.0,0.0,-1.8596,-1.8735,-1.8966,-1.9371,-1.9646,-1.9928,-2.0056,-2.0056,-2.0056,-2.0056,-2.0056,-2.0155,-2.0292,-2.0292,-2.0292,-2.0292,-2.0292,-2.0292,-2.0292,-2.0292,-2.0292,-2.0292,-2.0292,-2.0292,-2.0292,-2.0292,-2.0292,-2.0292,-2.0292,-2.0292,-2.0292,-2.0292,-2.0645,-2.1311,-2.252,-2.3574,-2.4542,-2.5348,-2.6166,-2.6794,-2.6943,-2.6588,-2.6071,-2.5566,-2.5038,-2.4579,-2.4258,-2.42,-2.42,-2.42,-2.42,-2.42,-2.42,-2.42,-2.42,-2.42,-2.42,-2.42,-2.42,-2.42,-2.42,-2.42,-2.42,-2.42,-2.42,-2.42,-2.42,-2.42,-2.4791,-2.5421,-2.6093,-2.7608,-2.8352,-2.8464,-2.9801,-3.0204,-0.7691,-0.8194,-0.8926,-0.987,0.0,0.0,-1.3133,-1.325,-1.3572,-1.5518,0.0,-1.5112,0.0,0.0,0.0,0.0,0.0,0.0,0.0,0.0,0.0,0.0,0.0,0.0,0.0,0.0,0.0,0.0,0.0,0.0,0.0,0.0,0.0,0.0,0.0,0.0,-1.8087,-1.855,-1.8781,-1.8781,-1.8781,-1.905,-1.9592,-1.9592,-1.9592,-1.9592,-1.9592,-1.9874,-2.0292,-2.0292,-2.0292,-2.0292,-2.0292,-2.0292,-2.0292,-2.0292,-2.0292,-2.0292,-2.0292,-2.0292,-2.0292,-2.0292,-2.0292,-2.0292,-2.0292,-2.0292,-2.0292,-2.0292,-2.0292,-2.0473,-2.1177,-2.2394,-2.3597,-2.4575,-2.5305,-2.5906,-2.6405,-2.606,-2.5516,-2.5015,-2.4522,-2.42,-2.42,-2.42,-2.42,-2.42,-2.42,-2.42,-2.42,-2.42,-2.42,-2.42,-2.42,-2.42,-2.42,-2.42,-2.42,-2.42,-2.42,-2.42,-2.42,-2.42,-2.42,-2.42,-2.42,-2.4309,-2.449,-2.5853,-2.6353,-2.6126,-2.7485,-2.8204,-0.7691,-0.8486,0.0,-1.0258,0.0,0.0,0.0,-1.3762,0.0,0.0,0.0,0.0,0.0,0.0,0.0,0.0,0.0,0.0,0.0,0.0,0.0,0.0,0.0,0.0,0.0,0.0,0.0,0.0,0.0,0.0,0.0,0.0,0.0,0.0,0.0,0.0,-1.752,-1.766,-1.7939,-1.8319,-1.8319,-1.855,-1.905,-1.905,-1.905,-1.905,-1.9463,-1.9691,-1.9828,-2.0155,-2.0292,-2.0292,-2.0292,-2.0292,-2.0292,-2.0292,-2.0292,-2.0292,-2.0292,-2.0292,-2.0292,-2.0292,-2.0292,-2.0292,-2.0292,-2.0292,-2.0292,-2.0292,-2.0292,-2.0337,-2.0555,-2.1042,-2.2006,-2.3867,-2.4483,-2.4843,-2.5804,-2.5345,-2.4816,-2.4871,-2.4522,-2.42,-2.42,-2.42,-2.42,-2.42,-2.42,-2.42,-2.42,-2.42,-2.42,-2.42,-2.42,-2.42,-2.42,-2.42,-2.42,-2.42,-2.42,-2.42,-2.42,-2.42,-2.42,-2.42,-2.42,-2.4309,-2.449,-2.5361,-2.5832,-2.5906,-2.7252,-2.8006,-0.8224,-0.9131,0.0,-1.0967,-1.2094,-1.325,-1.4157,0.0,0.0,0.0,0.0,0.0,0.0,0.0,0.0,0.0,0.0,0.0,0.0,0.0,0.0,0.0,0.0,0.0,0.0,0.0,0.0,0.0,0.0,0.0,0.0,0.0,0.0,0.0,0.0,0.0,-1.7279,-1.7279,-1.7473,-1.78,-1.78,-1.7939,-1.8218,-1.8411,-1.8596,-1.8827,-1.9554,-1.9874,-1.992,-2.0201,-2.0292,-2.0292,-2.0292,-2.0292,-2.0292,-2.0292,-2.0292,-2.0292,-2.0292,-2.0292,-2.0292,-2.0292,-2.0292,-2.0292,-2.0292,-2.0292,-2.0292,-2.0292,-2.0292,-2.0292,-2.0292,-2.0428,-2.1087,-2.3217,-2.3618,-2.3877,-2.4982,-2.4815,-2.4378,-2.4399,-2.4285,-2.42,-2.42,-2.42,-2.42,-2.42,-2.42,-2.42,-2.42,-2.42,-2.42,-2.42,-2.42,-2.42,-2.42,-2.42,-2.42,-2.42,-2.42,-2.42,-2.42,-2.42,-2.42,-2.42,-2.42,-2.4273,-2.4381,-2.4802,-2.5111,-2.53,-2.6121,-2.6586,-0.895,-0.9845,0.0,-1.1762,-1.2558,0.0,-1.4666,-1.5403,-1.5877,0.0,0.0,0.0,0.0,0.0,0.0,0.0,0.0,0.0,0.0,0.0,0.0,0.0,0.0,0.0,0.0,0.0,0.0,0.0,0.0,0.0,0.0,0.0,0.0,0.0,0.0,0.0,-1.7279,-1.7279,-1.7279,0.0,-1.7279,-1.7279,-1.7326,-1.78,-1.8319,-1.8827,-1.9791,-2.0201,-2.0292,-2.0292,-2.0292,-2.0292,-2.0292,-2.0292,-2.0292,-2.0292,-2.0292,-2.0292,-2.0292,-2.0292,-2.0292,-2.0292,-2.0292,-2.0292,-2.0292,-2.0292,-2.0292,-2.0292,-2.0292,-2.0292,-2.0292,-2.0292,-2.0727,-2.2526,-2.2734,-2.2872,-2.398,-2.42,-2.4082,-2.3682,-2.3934,-2.42,-2.42,-2.42,-2.42,-2.42,-2.42,-2.42,-2.42,-2.42,-2.42,-2.42,-2.42,-2.42,-2.42,-2.42,-2.42,-2.42,-2.42,-2.42,-2.42,-2.42,-2.42,-2.42,-2.42,-2.42,-2.42,-2.42,-2.4309,-2.4454,-2.4454,-2.4574,-0.837,-0.9475,0.0,0.0,-1.3104,-1.4362,-1.5104,-1.5389,0.0,0.0,0.0,0.0,0.0,0.0,0.0,0.0,0.0,0.0,0.0,0.0,0.0,0.0,0.0,0.0,0.0,0.0,0.0,0.0,0.0,0.0,0.0,0.0,0.0,0.0,0.0,-1.7279,-1.7279,-1.7279,-1.7279,0.0,-1.7279,-1.7279,-1.7279,-1.7426,-1.7939,-1.8827,-1.9012,-1.9563,-2.0292,-2.0292,-2.0292,-2.0292,-2.0292,-2.0292,-2.0292,-2.0292,-2.0292,-2.0292,-2.0292,-2.0292,-2.0292,-2.0292,-2.0292,-2.0292,-2.0292,-2.0292,-2.0292,-2.0292,-2.0292,-2.0292,-2.0292,-2.0292,-2.0555,-2.1526,-2.1197,-2.1109,-2.2707,-2.2804,-2.2789,-2.3468,-2.3934,-2.42,-2.42,-2.42,-2.42,-2.42,-2.42,-2.42,-2.42,-2.42,-2.42,-2.42,-2.42,-2.42,-2.42,-2.42,-2.42,-2.42,-2.42,-2.42,-2.42,-2.42,-2.42,-2.42,-2.42,-2.42,-2.42,-2.42,-2.4236,-2.4273,-2.4273,-2.4381,-0.8494,0.0,0.0,-1.2372,0.0,-1.4406,-1.5009,0.0,0.0,0.0,0.0,0.0,0.0,0.0,0.0,0.0,0.0,0.0,0.0,0.0,0.0,0.0,0.0,0.0,0.0,0.0,0.0,0.0,0.0,0.0,0.0,0.0,0.0,0.0,-1.7279,-1.7279,-1.7279,-1.7279,-1.7279,-1.7279,-1.7279,-1.7279,-1.7333,-1.7567,-1.7986,-1.8458,-1.8689,-1.9234,-1.9965,-1.9965,-2.011,-2.0292,-2.0292,-2.0292,-2.0292,-2.0292,-2.0292,-2.0292,-2.0292,-2.0292,-2.0292,-2.0292,-2.0292,-2.0292,-2.0292,-2.0292,-2.0292,-2.0292,-2.0292,-2.0292,-2.0292,-2.0292,-2.0382,-2.0781,-2.049,-2.047,-2.1712,-2.1739,-2.1642,-2.2172,-2.2681,-2.3054,-2.3054,-2.3361,-2.3751,-2.4152,-2.42,-2.42,-2.42,-2.42,-2.42,-2.42,-2.42,-2.42,-2.42,-2.42,-2.42,-2.42,-2.42,-2.42,-2.42,-2.42,-2.42,-2.42,-2.42,-2.42,-2.42,-2.42,-2.42,-2.42,-2.42,-2.4273,-0.8516,0.0,-1.1041,-1.2936,-1.366,0.0,0.0,0.0,0.0,0.0,0.0,0.0,0.0,0.0,0.0,0.0,0.0,0.0,0.0,0.0,0.0,0.0,0.0,0.0,0.0,0.0,0.0,0.0,0.0,0.0,0.0,0.0,-1.7118,-1.7118,-1.7216,-1.7245,-1.7245,-1.7304,-1.7279,-1.7279,-1.7279,-1.7279,-1.7326,-1.7753,-1.7986,-1.8133,-1.8504,-1.8966,-1.9463,-1.9546,-1.9828,-2.0201,-2.0292,-2.0292,-2.0292,-2.0292,-2.0292,-2.0292,-2.0292,-2.0292,-2.0292,-2.0292,-2.0292,-2.0292,-2.0292,-2.0292,-2.0292,-2.0292,-2.0292,-2.0292,-2.0292,-2.0292,-2.0275,-2.0215,-2.0062,-2.0132,-2.0848,-2.0792,-2.0605,-2.0721,-2.1298,-2.1794,-2.1993,-2.258,-2.3261,-2.408,-2.42,-2.42,-2.42,-2.42,-2.42,-2.42,-2.42,-2.42,-2.42,-2.42,-2.42,-2.42,-2.42,-2.42,-2.42,-2.42,-2.42,-2.42,-2.42,-2.42,-2.42,-2.42,-2.42,-2.42,-2.42,-2.42,0.0,0.0,-1.0989,0.0,-1.3323,0.0,0.0,0.0,0.0,0.0,0.0,0.0,0.0,0.0,0.0,0.0,0.0,0.0,0.0,0.0,0.0,0.0,0.0,0.0,0.0,0.0,0.0,0.0,0.0,0.0,0.0,-1.6514,-1.6543,-1.6543,-1.6815,-1.6961,-1.6961,-1.7186,-1.7279,-1.7279,-1.7279,-1.7279,-1.7279,-1.7372,-1.766,-1.8087,-1.8179,-1.8458,-1.892,-1.9417,-1.9637,-1.9729,-2.0155,-2.0292,-2.0292,-2.0292,-2.0292,-2.0292,-2.0292,-2.0292,-2.0292,-2.0292,-2.0292,-2.0292,-2.0292,-2.0292,-2.0292,-2.0292,-2.0292,-2.0292,-2.0292,-2.0292,-2.0215,-1.9845,-1.953,-1.9512,-2.009,-1.9983,-1.9904,-2.043,-2.1048,-2.1756,-2.2692,-2.2927,-2.3261,-2.408,-2.42,-2.42,-2.42,-2.42,-2.42,-2.42,-2.42,-2.42,-2.42,-2.42,-2.42,-2.42,-2.42,-2.42,-2.42,-2.42,-2.42,-2.42,-2.42,-2.42,-2.42,-2.42,-2.42,-2.42,-2.42,-2.42,-0.7397,-0.8882,-1.0389,0.0,0.0,0.0,0.0,0.0,0.0,0.0,0.0,0.0,0.0,0.0,0.0,0.0,0.0,0.0,0.0,0.0,0.0,0.0,0.0,0.0,0.0,0.0,0.0,0.0,0.0,0.0,-1.6111,-1.6323,-1.6411,-1.6411,-1.6551,0.0,-1.6631,-1.6718,-1.6879,-1.7062,-1.7062,-1.7157,-1.7279,-1.7279,-1.7419,-1.766,-1.766,-1.7939,-1.8458,-1.8958,-1.9325,-1.9646,-2.011,-2.0292,-2.0292,-2.0292,-2.0292,-2.0292,-2.0292,-2.0292,-2.0292,-2.0292,-2.0292,-2.0292,-2.0292,-2.0292,-2.0292,-2.0292,-2.0292,-2.0292,-2.0292,-2.0292,-2.0249,-2.0086,-1.9607,-1.9221,-1.9363,-1.9158,-1.9024,-1.9411,-1.9795,-2.0489,-2.1869,-2.222,-2.2756,-2.4007,-2.42,-2.42,-2.42,-2.42,-2.42,-2.42,-2.42,-2.42,-2.42,-2.42,-2.42,-2.42,-2.42,-2.42,-2.42,-2.42,-2.42,-2.42,-2.42,-2.42,-2.42,-2.42,-2.42,-2.42,-2.42,-2.42,0.0,0.0,-0.9336,0.0,0.0,0.0,0.0,0.0,0.0,0.0,0.0,0.0,0.0,0.0,0.0,0.0,0.0,0.0,0.0,0.0,0.0,0.0,0.0,0.0,0.0,0.0,0.0,0.0,0.0,0.0,-1.5754,-1.6009,-1.6133,-1.6133,-1.6206,-1.625,-1.625,-1.6375,-1.6536,-1.6778,-1.6778,-1.6903,-1.7084,-1.7172,-1.7208,-1.7216,-1.7296,-1.752,-1.7939,-1.8411,-1.8866,-1.9271,-1.9874,-2.011,-2.0155,-2.0246,-2.0292,-2.0292,-2.0292,-2.0292,-2.0292,-2.0292,-2.0292,-2.0292,-2.0292,-2.0292,-2.0292,-2.0292,-2.0292,-2.0292,-2.0292,-2.0292,-2.024,-2.0052,-1.9581,-1.911,-1.8674,-1.8419,-1.8362,-1.8571,-1.8723,-1.9301,-2.0788,-2.1211,-2.1945,-2.3582,-2.3849,-2.397,-2.4164,-2.42,-2.42,-2.42,-2.42,-2.42,-2.42,-2.42,-2.42,-2.42,-2.42,-2.42,-2.42,-2.42,-2.42,-2.42,-2.42,-2.42,-2.42,-2.42,-2.42,-2.42,-2.42,-2.42,0.0,-0.6848,0.0,0.0,0.0,0.0,0.0,0.0,0.0,0.0,0.0,0.0,0.0,0.0,0.0,0.0,0.0,0.0,0.0,0.0,0.0,0.0,0.0,0.0,0.0,0.0,0.0,0.0,0.0,0.0,-1.5411,-1.5425,-1.5433,-1.5433,-1.5782,-1.5943,-1.5943,-1.6221,-1.6419,-1.6441,-1.6441,-1.6448,-1.647,-1.6785,-1.6925,-1.6939,-1.7201,-1.7326,-1.7372,-1.79,-1.8133,-1.8272,-1.9225,-1.9637,-1.9683,-2.0155,-2.0292,-2.0292,-2.0292,-2.0292,-2.0292,-2.0292,-2.0292,-2.0292,-2.0292,-2.0292,-2.0292,-2.0292,-2.0292,-2.0292,-2.0292,-2.0292,-2.0112,-1.9401,-1.9247,-1.8973,-1.8196,-1.8017,-1.8121,-1.8362,-1.8442,-1.8745,-1.9786,-2.0168,-2.0855,-2.2537,-2.2942,-2.3335,-2.4091,-2.42,-2.42,-2.42,-2.42,-2.42,-2.42,-2.42,-2.42,-2.42,-2.42,-2.42,-2.42,-2.42,-2.42,-2.42,-2.42,-2.42,-2.42,-2.42,-2.42,-2.42,-2.42,-2.42,0.0,0.0,0.0,0.0,0.0,0.0,0.0,0.0,0.0,0.0,0.0,0.0,0.0,0.0,0.0,0.0,0.0,0.0,0.0,0.0,0.0,0.0,0.0,0.0,0.0,0.0,0.0,0.0,0.0,0.0,-1.5389,-1.5389,-1.5389,-1.5389,-1.5498,-1.5564,-1.5564,-1.5709,-1.587,-1.6074,-1.6074,-1.6177,-1.6419,-1.6536,-1.6587,-1.6595,-1.666,-1.6945,-1.7326,-1.7893,-1.8087,-1.8179,-1.8819,-1.9104,-1.9104,-1.9288,-1.9554,-1.9874,-1.9874,-2.0056,-2.0292,-2.0292,-2.0292,-2.0292,-2.0292,-2.0292,-2.0292,-2.0292,-2.0292,-2.024,-2.0001,-1.9896,-1.9744,-1.8982,-1.8614,-1.8365,-1.8059,-1.8,-1.804,-1.8121,-1.8282,-1.8674,-1.9559,-1.9972,-2.0585,-2.1697,-2.2059,-2.2333,-2.2633,-2.267,-2.267,-2.267,-2.3139,-2.3446,-2.3446,-2.3897,-2.42,-2.42,-2.42,-2.42,-2.42,-2.42,-2.42,-2.42,-2.42,-2.42,-2.42,-2.42,-2.42,-2.42,-2.42,-2.42,-0.5363,0.0,0.0,0.0,0.0,0.0,0.0,0.0,0.0,0.0,0.0,0.0,0.0,0.0,0.0,0.0,0.0,0.0,0.0,0.0,0.0,0.0,0.0,0.0,0.0,0.0,0.0,0.0,0.0,0.0,-1.5228,-1.533,-1.5389,-1.5389,-1.5389,-1.5389,-1.5389,-1.5389,-1.5498,-1.571,-1.571,-1.5855,-1.606,-1.617,-1.6213,-1.6221,-1.6367,-1.6674,-1.7172,-1.7542,-1.7748,-1.7893,-1.8365,-1.855,-1.8596,-1.8735,-1.9012,-1.9325,-1.9325,-1.9554,-1.9837,-2.0019,-2.0056,-2.0102,-2.0246,-2.0292,-2.0266,-2.0146,-2.0103,-2.0026,-1.965,-1.9409,-1.9222,-1.8708,-1.8305,-1.8,-1.8,-1.8,-1.8,-1.8,-1.8161,-1.8434,-1.8975,-1.9402,-1.9982,-2.0788,-2.1173,-2.1451,-2.1756,-2.1794,-2.1918,-2.2182,-2.2692,-2.3113,-2.3372,-2.3897,-2.42,-2.42,-2.42,-2.42,-2.42,-2.42,-2.42,-2.42,-2.42,-2.42,-2.42,-2.42,-2.42,-2.42,-2.42,-2.42,0.0,0.0,0.0,0.0,0.0,0.0,0.0,0.0,0.0,0.0,0.0,0.0,0.0,0.0,0.0,0.0,0.0,0.0,0.0,0.0,0.0,0.0,0.0,0.0,0.0,0.0,0.0,0.0,0.0,-1.4885,-1.4885,-1.5199,-1.5374,-1.5374,-1.5382,-1.5389,-1.5389,-1.5389,-1.5389,-1.5389,-1.5389,-1.5389,-1.5396,-1.576,-1.5899,-1.5913,-1.6213,-1.6573,-1.6873,-1.6881,-1.7018,-1.735,-1.7863,-1.8056,-1.8102,-1.8565,-1.875,-1.875,-1.875,-1.875,-1.8842,-1.9384,-1.9567,-1.9658,-2.0121,-2.0257,-2.018,-1.9785,-1.9683,-1.9597,-1.9256,-1.8862,-1.8571,-1.8571,-1.8297,-1.8,-1.8,-1.8,-1.8,-1.8,-1.8,-1.8,-1.8,-1.8362,-1.8962,-1.9747,-2.0187,-2.0769,-2.1614,-2.1718,-2.2031,-2.2804,-2.2916,-2.3261,-2.4007,-2.4116,-2.4152,-2.4152,-2.4152,-2.4164,-2.42,-2.42,-2.42,-2.42,-2.42,-2.42,-2.42,-2.42,-2.42,-2.42,-2.42,-2.42,-0.4516,0.0,0.0,0.0,0.0,0.0,0.0,0.0,0.0,0.0,0.0,0.0,0.0,0.0,0.0,0.0,0.0,0.0,0.0,0.0,0.0,0.0,0.0,0.0,0.0,0.0,0.0,0.0,0.0,-1.4596,-1.4596,-1.4863,-1.5039,-1.5039,-1.5265,-1.5389,-1.5389,-1.5389,-1.5389,-1.5389,-1.5389,-1.5389,-1.5389,-1.5484,-1.552,-1.5528,-1.5657,-1.5877,-1.6191,-1.6455,-1.6595,-1.6675,-1.6817,-1.6862,-1.6907,-1.7041,-1.7265,-1.7569,-1.7569,-1.7799,-1.8161,-1.8338,-1.8382,-1.847,-1.8858,-1.8989,-1.906,-1.9272,-1.9333,-1.9239,-1.8853,-1.8468,-1.8186,-1.8186,-1.8068,-1.8,-1.8,-1.8,-1.8,-1.8,-1.8,-1.8,-1.8,-1.8282,-1.8563,-1.8785,-1.9033,-1.935,-1.9726,-1.9766,-1.9923,-2.0265,-2.0847,-2.126,-2.1489,-2.2096,-2.2718,-2.3298,-2.3335,-2.3593,-2.4164,-2.42,-2.42,-2.42,-2.42,-2.42,-2.42,-2.42,-2.42,-2.42,-2.42,-2.42,0.0,0.0,0.0,0.0,0.0,0.0,0.0,0.0,0.0,0.0,0.0,0.0,0.0,0.0,0.0,0.0,0.0,0.0,0.0,0.0,0.0,0.0,0.0,0.0,0.0,0.0,0.0,0.0,-1.368,-1.4086,-1.4465,-1.464,-1.4743,-1.4743,-1.5017,-1.5185,-1.5185,-1.5316,-1.5389,-1.5389,-1.5131,-1.4999,-1.4957,-1.4706,-1.4706,-1.4999,-1.4999,-1.5232,-1.5723,-1.5899,-1.6133,-1.6411,-1.6411,-1.6411,-1.6411,-1.6411,-1.6588,-1.6808,-1.6808,-1.7028,-1.7298,-1.7517,-1.7561,-1.7648,-1.8127,-1.8265,-1.831,-1.859,-1.8684,-1.8648,-1.8417,-1.8194,-1.8,-1.8,-1.8,-1.8,-1.8,-1.8,-1.8,-1.8,-1.8,-1.8,-1.8,-1.8241,-1.8402,-1.8402,-1.8571,-1.8732,-1.8851,-1.8882,-1.9073,-1.9599,-2.0099,-2.0566,-2.1001,-2.1489,-2.1993,-2.2456,-2.2494,-2.2718,-2.3165,-2.3202,-2.3361,-2.3677,-2.3703,-2.3861,-2.42,-2.42,-2.42,-2.42,-2.42,-2.42,0.0,0.0,0.0,0.0,0.0,0.0,-0.7089,-0.6789,0.0,0.0,0.0,0.0,0.0,0.0,0.0,0.0,0.0,0.0,0.0,0.0,0.0,0.0,0.0,0.0,0.0,0.0,0.0,-1.1662,-1.2457,-1.3317,-1.4147,-1.4236,-1.4251,-1.4251,-1.4522,-1.464,-1.464,-1.4969,-1.5128,-1.5123,-1.4518,-1.428,-1.4272,-1.3688,-1.373,-1.4314,-1.4314,-1.4615,-1.5173,-1.5173,-1.5625,-1.6309,-1.6309,-1.6309,-1.6309,-1.6309,-1.6309,-1.6309,-1.6309,-1.6309,-1.6352,-1.679,-1.6921,-1.7008,-1.7538,-1.7719,-1.7733,-1.7819,-1.7911,-1.8,-1.8,-1.8,-1.8,-1.8,-1.8,-1.8,-1.8,-1.8,-1.8,-1.8,-1.8,-1.8,-1.8,-1.8201,-1.8362,-1.8362,-1.8531,-1.862,-1.8652,-1.866,-1.9033,-1.9943,-2.0051,-2.044,-2.1413,-2.1489,-2.1565,-2.1642,-2.1652,-2.168,-2.1794,-2.1794,-2.2182,-2.2964,-2.3075,-2.3494,-2.42,-2.42,-2.42,-2.42,-2.42,-2.42,0.0,0.0,0.0,0.0,0.0,0.0,0.0,-0.5545,0.0,0.0,0.0,0.0,0.0,0.0,0.0,0.0,0.0,0.0,0.0,0.0,0.0,0.0,0.0,0.0,0.0,0.0,-1.1333,-1.1454,-1.1784,-1.2039,-1.2247,-1.2508,-1.264,-1.264,-1.2962,-1.3114,-1.3114,-1.3207,-1.3312,-1.3454,-1.3324,-1.3412,-1.3603,-1.3483,-1.3476,-1.3603,-1.3603,-1.3688,-1.3773,-1.3773,-1.448,-1.5613,-1.5613,-1.5613,-1.5613,-1.5613,-1.5613,-1.5613,-1.5613,-1.5613,-1.5613,-1.5698,-1.574,-1.5817,-1.6286,-1.6453,-1.6604,-1.731,-1.7726,-1.8,-1.8,-1.8,-1.8,-1.8,-1.8,-1.8,-1.8,-1.8,-1.8,-1.8,-1.8,-1.8,-1.8,-1.804,-1.808,-1.808,-1.8121,-1.8201,-1.8442,-1.8442,-1.8603,-1.8962,-1.9152,-1.9301,-1.9539,-1.9687,-2.007,-2.0692,-2.0769,-2.1078,-2.1766,-2.1794,-2.2182,-2.2964,-2.3641,-2.4043,-2.42,-2.42,-2.42,-2.42,-2.42,-2.42,0.0,0.0,0.0,-0.5166,0.0,0.0,0.0,0.0,0.0,0.0,0.0,0.0,0.0,0.0,0.0,0.0,0.0,0.0,0.0,0.0,0.0,0.0,0.0,0.0,0.0,0.0,-1.0837,-1.1434,-1.1481,-1.1569,-1.186,-1.1913,-1.1954,-1.1954,-1.2267,-1.246,-1.246,-1.264,-1.2736,-1.283,-1.2507,-1.2451,-1.2679,-1.2343,-1.2457,-1.2881,-1.2881,-1.3094,-1.3398,-1.3398,-1.3822,-1.4412,-1.4412,-1.4622,-1.4915,-1.4915,-1.5131,-1.5389,-1.5389,-1.5389,-1.5389,-1.5389,-1.5389,-1.5431,-1.568,-1.6046,-1.6492,-1.6943,-1.7505,-1.8,-1.8,-1.8,-1.8,-1.8,-1.8,-1.8,-1.8,-1.8,-1.8,-1.8,-1.8,-1.8,-1.8,-1.8,-1.8,-1.8,-1.8,-1.804,-1.8201,-1.8201,-1.8282,-1.8531,-1.8643,-1.8803,-1.8962,-1.9073,-1.9381,-1.9883,-1.9883,-2.0109,-2.0537,-2.0527,-2.1145,-2.2381,-2.3593,-2.42,-2.42,-2.42,-2.42,-2.42,-2.42,-2.42,0.0,0.0,0.0,0.0,0.0,-0.5687,0.0,0.0,0.0,0.0,0.0,0.0,0.0,0.0,0.0,0.0,0.0,0.0,0.0,0.0,0.0,0.0,0.0,0.0,0.0,0.0,-0.9984,-1.101,-1.0839,-1.0914,-1.1516,-1.1398,-1.1298,-1.1298,-1.1595,-1.1776,-1.1776,-1.2039,-1.2182,-1.2238,-1.1677,-1.1531,-1.1705,-1.1161,-1.1377,-1.2122,-1.2122,-1.245,-1.3009,-1.3009,-1.3009,-1.3015,-1.3313,-1.373,-1.423,-1.423,-1.4531,-1.5048,-1.5173,-1.5215,-1.5215,-1.5347,-1.5389,-1.5389,-1.5389,-1.5963,-1.6574,-1.6574,-1.7147,-1.7757,-1.7878,-1.7878,-1.7919,-1.8,-1.8,-1.8,-1.8,-1.8,-1.8,-1.8,-1.8,-1.8,-1.8,-1.8,-1.8,-1.8,-1.8,-1.8,-1.8,-1.8,-1.808,-1.8322,-1.8362,-1.8514,-1.8843,-1.8922,-1.9002,-1.9183,-1.9192,-1.9192,-1.9222,-1.942,-2.0187,-2.1527,-2.2979,-2.3813,-2.397,-2.397,-2.4043,-2.42,-2.42,-2.42,0.0,0.0,0.0,0.0,-0.5722,0.0,0.0,0.0,0.0,0.0,0.0,0.0,0.0,0.0,0.0,0.0,0.0,0.0,0.0,0.0,0.0,0.0,0.0,0.0,0.0,0.0,0.0,-0.9153,-0.8964,-0.9008,-0.9502,-0.9733,-0.9834,-0.9834,-1.0066,-1.0149,-1.0149,-1.0214,-1.0341,-1.0567,-1.0488,-1.0574,-1.0757,-1.0676,-1.084,-1.1146,-1.1146,-1.1319,-1.1521,-1.1521,-1.1521,-1.165,-1.2924,-1.3434,-1.3519,-1.3519,-1.3561,-1.3688,-1.4314,-1.4524,-1.4608,-1.5215,-1.5389,-1.5389,-1.5389,-1.5756,-1.617,-1.617,-1.6492,-1.6935,-1.7351,-1.7473,-1.7554,-1.7919,-1.8,-1.8,-1.8,-1.8,-1.8,-1.8,-1.8,-1.8,-1.8,-1.8,-1.8,-1.8,-1.8,-1.8,-1.8,-1.8,-1.7991,-1.804,-1.8282,-1.8442,-1.8482,-1.8652,-1.8732,-1.878,-1.8772,-1.8851,-1.9042,-1.9883,-2.0459,-2.0653,-2.1603,-2.2408,-2.315,-2.315,-2.3482,-2.42,-2.42,-2.42,0.0,0.0,0.0,0.0,0.0,0.0,0.0,0.0,-0.5942,0.0,0.0,0.0,0.0,0.0,0.0,0.0,0.0,0.0,0.0,0.0,0.0,0.0,0.0,0.0,0.0,0.0,0.0,0.0,0.0,-0.8768,-0.9236,-0.9234,-0.9327,-0.9608,-0.9674,-0.9787,-0.9884,-0.9884,-0.997,-1.0078,-1.0078,-1.0202,-1.0439,-1.0439,-1.0562,-1.0783,-1.0783,-1.0918,-1.1139,-1.1139,-1.1177,-1.1348,-1.1946,-1.2454,-1.2833,-1.2833,-1.3052,-1.3519,-1.4188,-1.4398,-1.4524,-1.5173,-1.5389,-1.5389,-1.5389,-1.5722,-1.6087,-1.6087,-1.6376,-1.6738,-1.6943,-1.7188,-1.7432,-1.7595,-1.7838,-1.8,-1.8,-1.8,-1.8,-1.8,-1.8,-1.8,-1.8,-1.8,-1.8,-1.8,-1.8,-1.8,-1.8,-1.8,-1.8,-1.8,-1.8121,-1.8233,-1.8402,-1.8482,-1.8571,-1.87,-1.8812,-1.8851,-1.8812,-1.9883,-2.0459,-2.0333,-2.1298,-2.1956,-2.2306,-2.2767,-2.3187,-2.3519,-2.397,-2.42,-0.5369,0.0,0.0,0.0,0.0,0.0,0.0,0.0,0.0,0.0,0.0,0.0,0.0,0.0,0.0,0.0,0.0,0.0,0.0,0.0,0.0,0.0,0.0,0.0,0.0,0.0,0.0,0.0,0.0,0.0,-0.8975,-0.8865,-0.9019,-0.9459,-0.9545,-0.969,-0.9879,-0.9884,-0.9884,-0.9884,-0.9884,-1.0013,-1.0191,-1.0191,-1.032,-1.0501,-1.0501,-1.0676,-1.0885,-1.0885,-1.1031,-1.1209,-1.1209,-1.1584,-1.2112,-1.2112,-1.254,-1.3222,-1.3893,-1.4356,-1.4741,-1.5257,-1.5389,-1.5389,-1.5389,-1.5639,-1.5922,-1.5922,-1.6128,-1.6368,-1.6492,-1.6779,-1.7106,-1.7351,-1.7635,-1.7878,-1.8,-1.8,-1.8,-1.8,-1.8,-1.8,-1.8,-1.8,-1.8,-1.8,-1.8,-1.8,-1.8,-1.8,-1.8,-1.8,-1.8,-1.808,-1.8273,-1.8273,-1.8362,-1.8491,-1.8723,-1.8763,-1.8612,-1.9476,-1.9869,-1.9694,-2.0425,-2.0906,-2.1121,-2.1691,-2.2109,-2.2341,-2.3616,-2.42,0.0,0.0,0.0,-0.5249,0.0,0.0,0.0,0.0,-0.5547,0.0,0.0,0.0,0.0,0.0,0.0,0.0,0.0,0.0,0.0,0.0,0.0,0.0,0.0,0.0,0.0,0.0,0.0,0.0,0.0,0.0,-0.8169,-0.8425,-0.8737,-0.92,-0.9453,-0.969,-0.9879,-0.9884,-0.9884,-0.9884,-0.9884,-0.9922,-0.9933,-0.9933,-1.0067,-1.0304,-1.0304,-1.0433,-1.0608,-1.0608,-1.0783,-1.0993,-1.0993,-1.1139,-1.1354,-1.1354,-1.1817,-1.2534,-1.3179,-1.4286,-1.5389,-1.5389,-1.5389,-1.5389,-1.5389,-1.5431,-1.5431,-1.5431,-1.5431,-1.5555,-1.6004,-1.6128,-1.6335,-1.7188,-1.74,-1.7514,-1.7919,-1.8,-1.8,-1.8,-1.8,-1.8,-1.8,-1.8,-1.8,-1.8,-1.8,-1.8,-1.8,-1.8,-1.8,-1.8,-1.8,-1.8,-1.7991,-1.7991,-1.804,-1.804,-1.8273,-1.8442,-1.8402,-1.8446,-1.8481,-1.8481,-1.8282,-1.8582,-1.9396,-1.9396,-1.9821,-2.0644,-2.305,-2.42,0.0,0.0,-0.5988,-0.5539,0.0,0.0,0.0,0.0,0.0,0.0,0.0,0.0,0.0,0.0,0.0,0.0,0.0,0.0,0.0,0.0,0.0,0.0,0.0,0.0,0.0,0.0,0.0,0.0,0.0,0.0,0.0,-0.7914,-0.8258,-0.8732,-0.9125,-0.9448,-0.969,-0.9841,-0.9884,-0.9884,-0.9884,-0.9884,-0.9884,-0.9884,-0.9965,-1.0046,-1.0046,-1.0186,-1.0412,-1.0412,-1.0546,-1.0756,-1.0756,-1.0764,-1.0876,-1.1193,-1.1478,-1.1774,-1.2491,-1.3349,-1.4075,-1.4075,-1.4363,-1.4741,-1.4741,-1.5041,-1.5389,-1.5389,-1.5389,-1.5431,-1.5597,-1.588,-1.617,-1.6458,-1.6984,-1.7432,-1.7554,-1.7797,-1.8,-1.8,-1.8,-1.8,-1.8,-1.8,-1.8,-1.8,-1.8,-1.8,-1.8,-1.8,-1.8,-1.8,-1.7809,-1.7663,-1.7663,-1.7441,-1.7256,-1.7256,-1.748,-1.7557,-1.7411,-1.772,-1.7801,-1.7594,-1.7705,-1.7904,-1.8184,-1.8847,-1.9311,-1.9591,-2.1085,-2.2007,-0.5643,-0.589,0.0,0.0,-0.5661,0.0,-0.5353,0.0,0.0,0.0,0.0,0.0,0.0,0.0,0.0,0.0,0.0,0.0,0.0,0.0,0.0,0.0,0.0,0.0,0.0,0.0,-0.5938,-0.6363,0.0,0.0,0.0,0.0,-0.8021,-0.8501,-0.8883,-0.9244,-0.9614,-0.9723,-0.9841,-0.9884,-0.9884,-0.9884,-0.9884,-0.9884,-0.9884,-0.9884,-0.9884,-1.0013,-1.0164,-1.0164,-1.0304,-1.0474,-1.0474,-1.0522,-1.063,-1.0941,-1.1222,-1.1559,-1.2361,-1.2897,-1.3258,-1.336,-1.3688,-1.4062,-1.4062,-1.4489,-1.5041,-1.5041,-1.5215,-1.5389,-1.5389,-1.5631,-1.588,-1.6046,-1.6541,-1.7025,-1.731,-1.7595,-1.7838,-1.7951,-1.8,-1.8,-1.8,-1.8,-1.8,-1.8,-1.8,-1.8,-1.8,-1.792,-1.7834,-1.7834,-1.7492,-1.7278,-1.7278,-1.7055,-1.688,-1.688,-1.7023,-1.7023,-1.6918,-1.7136,-1.7169,-1.7003,-1.7102,-1.715,-1.715,-1.7805,-1.8111,-1.8111,-1.9052,-1.9893]}]]